<?xml version="1.0" encoding="UTF-8" standalone="no" ?>
<gpx xmlns="http://www.topografix.com/GPX/1/1" xmlns:xsi="http://www.w3.org/2001/XMLSchema-instance" xsi:schemaLocation="http://www.topografix.com/GPX/1/1 http://www.topografix.com/GPX/1/1/gpx.xsd" version="1.1" creator="VisuGPX - https://www.visugpx.com">
  <metadata>
    <name>Le Mont Cindre sous toutes ses coutures</name>
    <desc><![CDATA[Trail fait le 16/12/12 avec une douzaine de GR



]]></desc>
  </metadata>
  <trk>
    <name><![CDATA[2012-12-16T08:08:37Z]]></name>
    <trkseg>
      <trkpt lat="45.81452" lon="4.82">
        <ele>319</ele>
        <time>2012-12-16T08:08:37Z</time>
      </trkpt>
      <trkpt lat="45.81457" lon="4.81994">
        <ele>319</ele>
        <time>2012-12-16T08:08:42Z</time>
      </trkpt>
      <trkpt lat="45.81466" lon="4.81988">
        <ele>320</ele>
        <time>2012-12-16T08:08:47Z</time>
      </trkpt>
      <trkpt lat="45.81474" lon="4.81989">
        <ele>321</ele>
        <time>2012-12-16T08:08:51Z</time>
      </trkpt>
      <trkpt lat="45.81482" lon="4.81998">
        <ele>322</ele>
        <time>2012-12-16T08:08:56Z</time>
      </trkpt>
      <trkpt lat="45.81493" lon="4.82007">
        <ele>323</ele>
        <time>2012-12-16T08:09:02Z</time>
      </trkpt>
      <trkpt lat="45.815" lon="4.82011">
        <ele>323</ele>
        <time>2012-12-16T08:09:05Z</time>
      </trkpt>
      <trkpt lat="45.81503" lon="4.82012">
        <ele>325</ele>
        <time>2012-12-16T08:09:07Z</time>
      </trkpt>
      <trkpt lat="45.81515" lon="4.82013">
        <ele>325</ele>
        <time>2012-12-16T08:09:13Z</time>
      </trkpt>
      <trkpt lat="45.81518" lon="4.82012">
        <ele>325</ele>
        <time>2012-12-16T08:09:14Z</time>
      </trkpt>
      <trkpt lat="45.81527" lon="4.82008">
        <ele>325</ele>
        <time>2012-12-16T08:09:18Z</time>
      </trkpt>
      <trkpt lat="45.81536" lon="4.8201">
        <ele>325</ele>
        <time>2012-12-16T08:09:21Z</time>
      </trkpt>
      <trkpt lat="45.81541" lon="4.82013">
        <ele>325</ele>
        <time>2012-12-16T08:09:23Z</time>
      </trkpt>
      <trkpt lat="45.81553" lon="4.82021">
        <ele>325</ele>
        <time>2012-12-16T08:09:28Z</time>
      </trkpt>
      <trkpt lat="45.81558" lon="4.82023">
        <ele>325</ele>
        <time>2012-12-16T08:09:30Z</time>
      </trkpt>
      <trkpt lat="45.8157" lon="4.8203">
        <ele>325</ele>
        <time>2012-12-16T08:09:35Z</time>
      </trkpt>
      <trkpt lat="45.81581" lon="4.82036">
        <ele>325</ele>
        <time>2012-12-16T08:09:40Z</time>
      </trkpt>
      <trkpt lat="45.81589" lon="4.82039">
        <ele>328</ele>
        <time>2012-12-16T08:09:43Z</time>
      </trkpt>
      <trkpt lat="45.81597" lon="4.82042">
        <ele>328</ele>
        <time>2012-12-16T08:09:46Z</time>
      </trkpt>
      <trkpt lat="45.81608" lon="4.82044">
        <ele>329</ele>
        <time>2012-12-16T08:09:51Z</time>
      </trkpt>
      <trkpt lat="45.81611" lon="4.82045">
        <ele>329</ele>
        <time>2012-12-16T08:09:52Z</time>
      </trkpt>
      <trkpt lat="45.81624" lon="4.8205">
        <ele>329</ele>
        <time>2012-12-16T08:09:58Z</time>
      </trkpt>
      <trkpt lat="45.81626" lon="4.82051">
        <ele>329</ele>
        <time>2012-12-16T08:09:59Z</time>
      </trkpt>
      <trkpt lat="45.81634" lon="4.82054">
        <ele>330</ele>
        <time>2012-12-16T08:10:03Z</time>
      </trkpt>
      <trkpt lat="45.81645" lon="4.82057">
        <ele>330</ele>
        <time>2012-12-16T08:10:08Z</time>
      </trkpt>
      <trkpt lat="45.81651" lon="4.82065">
        <ele>330</ele>
        <time>2012-12-16T08:10:12Z</time>
      </trkpt>
      <trkpt lat="45.81653" lon="4.82078">
        <ele>331</ele>
        <time>2012-12-16T08:10:16Z</time>
      </trkpt>
      <trkpt lat="45.81653" lon="4.82081">
        <ele>331</ele>
        <time>2012-12-16T08:10:17Z</time>
      </trkpt>
      <trkpt lat="45.81651" lon="4.82102">
        <ele>329</ele>
        <time>2012-12-16T08:10:23Z</time>
      </trkpt>
      <trkpt lat="45.81651" lon="4.82105">
        <ele>329</ele>
        <time>2012-12-16T08:10:24Z</time>
      </trkpt>
      <trkpt lat="45.81651" lon="4.82127">
        <ele>328</ele>
        <time>2012-12-16T08:10:30Z</time>
      </trkpt>
      <trkpt lat="45.8165" lon="4.82134">
        <ele>328</ele>
        <time>2012-12-16T08:10:32Z</time>
      </trkpt>
      <trkpt lat="45.81649" lon="4.82144">
        <ele>329</ele>
        <time>2012-12-16T08:10:35Z</time>
      </trkpt>
      <trkpt lat="45.81649" lon="4.82159">
        <ele>329</ele>
        <time>2012-12-16T08:10:39Z</time>
      </trkpt>
      <trkpt lat="45.81649" lon="4.82166">
        <ele>329</ele>
        <time>2012-12-16T08:10:41Z</time>
      </trkpt>
      <trkpt lat="45.8165" lon="4.82188">
        <ele>326</ele>
        <time>2012-12-16T08:10:47Z</time>
      </trkpt>
      <trkpt lat="45.81653" lon="4.82213">
        <ele>325</ele>
        <time>2012-12-16T08:10:54Z</time>
      </trkpt>
      <trkpt lat="45.8166" lon="4.82229">
        <ele>325</ele>
        <time>2012-12-16T08:10:59Z</time>
      </trkpt>
      <trkpt lat="45.81664" lon="4.82235">
        <ele>326</ele>
        <time>2012-12-16T08:11:01Z</time>
      </trkpt>
      <trkpt lat="45.8167" lon="4.82241">
        <ele>330</ele>
        <time>2012-12-16T08:11:04Z</time>
      </trkpt>
      <trkpt lat="45.8168" lon="4.82252">
        <ele>327</ele>
        <time>2012-12-16T08:11:09Z</time>
      </trkpt>
      <trkpt lat="45.81691" lon="4.82259">
        <ele>327</ele>
        <time>2012-12-16T08:11:14Z</time>
      </trkpt>
      <trkpt lat="45.81698" lon="4.82261">
        <ele>327</ele>
        <time>2012-12-16T08:11:17Z</time>
      </trkpt>
      <trkpt lat="45.81704" lon="4.82264">
        <ele>327</ele>
        <time>2012-12-16T08:11:20Z</time>
      </trkpt>
      <trkpt lat="45.81706" lon="4.82266">
        <ele>328</ele>
        <time>2012-12-16T08:11:21Z</time>
      </trkpt>
      <trkpt lat="45.81713" lon="4.82272">
        <ele>328</ele>
        <time>2012-12-16T08:11:25Z</time>
      </trkpt>
      <trkpt lat="45.81715" lon="4.82272">
        <ele>328</ele>
        <time>2012-12-16T08:11:26Z</time>
      </trkpt>
      <trkpt lat="45.81722" lon="4.82273">
        <ele>328</ele>
        <time>2012-12-16T08:11:29Z</time>
      </trkpt>
      <trkpt lat="45.81733" lon="4.82276">
        <ele>329</ele>
        <time>2012-12-16T08:11:34Z</time>
      </trkpt>
      <trkpt lat="45.81745" lon="4.82279">
        <ele>329</ele>
        <time>2012-12-16T08:11:40Z</time>
      </trkpt>
      <trkpt lat="45.81752" lon="4.82278">
        <ele>337</ele>
        <time>2012-12-16T08:11:44Z</time>
      </trkpt>
      <trkpt lat="45.81765" lon="4.82277">
        <ele>338</ele>
        <time>2012-12-16T08:11:50Z</time>
      </trkpt>
      <trkpt lat="45.81768" lon="4.82277">
        <ele>338</ele>
        <time>2012-12-16T08:11:51Z</time>
      </trkpt>
      <trkpt lat="45.81771" lon="4.82277">
        <ele>338</ele>
        <time>2012-12-16T08:11:53Z</time>
      </trkpt>
      <trkpt lat="45.81773" lon="4.82277">
        <ele>338</ele>
        <time>2012-12-16T08:11:54Z</time>
      </trkpt>
      <trkpt lat="45.81783" lon="4.8228">
        <ele>339</ele>
        <time>2012-12-16T08:11:59Z</time>
      </trkpt>
      <trkpt lat="45.81789" lon="4.82285">
        <ele>339</ele>
        <time>2012-12-16T08:12:02Z</time>
      </trkpt>
      <trkpt lat="45.81792" lon="4.82289">
        <ele>340</ele>
        <time>2012-12-16T08:12:04Z</time>
      </trkpt>
      <trkpt lat="45.81795" lon="4.82301">
        <ele>340</ele>
        <time>2012-12-16T08:12:09Z</time>
      </trkpt>
      <trkpt lat="45.81798" lon="4.82309">
        <ele>340</ele>
        <time>2012-12-16T08:12:12Z</time>
      </trkpt>
      <trkpt lat="45.81801" lon="4.82317">
        <ele>340</ele>
        <time>2012-12-16T08:12:15Z</time>
      </trkpt>
      <trkpt lat="45.81806" lon="4.82332">
        <ele>341</ele>
        <time>2012-12-16T08:12:21Z</time>
      </trkpt>
      <trkpt lat="45.81813" lon="4.82346">
        <ele>338</ele>
        <time>2012-12-16T08:12:26Z</time>
      </trkpt>
      <trkpt lat="45.81817" lon="4.82354">
        <ele>338</ele>
        <time>2012-12-16T08:12:29Z</time>
      </trkpt>
      <trkpt lat="45.8182" lon="4.82359">
        <ele>337</ele>
        <time>2012-12-16T08:12:31Z</time>
      </trkpt>
      <trkpt lat="45.81823" lon="4.82364">
        <ele>337</ele>
        <time>2012-12-16T08:12:33Z</time>
      </trkpt>
      <trkpt lat="45.81826" lon="4.82372">
        <ele>336</ele>
        <time>2012-12-16T08:12:36Z</time>
      </trkpt>
      <trkpt lat="45.81828" lon="4.82377">
        <ele>336</ele>
        <time>2012-12-16T08:12:38Z</time>
      </trkpt>
      <trkpt lat="45.81837" lon="4.8239">
        <ele>345</ele>
        <time>2012-12-16T08:12:43Z</time>
      </trkpt>
      <trkpt lat="45.81841" lon="4.82399">
        <ele>344</ele>
        <time>2012-12-16T08:12:46Z</time>
      </trkpt>
      <trkpt lat="45.81845" lon="4.82411">
        <ele>343</ele>
        <time>2012-12-16T08:12:50Z</time>
      </trkpt>
      <trkpt lat="45.8185" lon="4.82422">
        <ele>341</ele>
        <time>2012-12-16T08:12:54Z</time>
      </trkpt>
      <trkpt lat="45.81855" lon="4.82433">
        <ele>341</ele>
        <time>2012-12-16T08:12:58Z</time>
      </trkpt>
      <trkpt lat="45.8186" lon="4.82445">
        <ele>341</ele>
        <time>2012-12-16T08:13:02Z</time>
      </trkpt>
      <trkpt lat="45.81863" lon="4.82451">
        <ele>341</ele>
        <time>2012-12-16T08:13:04Z</time>
      </trkpt>
      <trkpt lat="45.81871" lon="4.82467">
        <ele>341</ele>
        <time>2012-12-16T08:13:10Z</time>
      </trkpt>
      <trkpt lat="45.81873" lon="4.8247">
        <ele>341</ele>
        <time>2012-12-16T08:13:11Z</time>
      </trkpt>
      <trkpt lat="45.81882" lon="4.82484">
        <ele>341</ele>
        <time>2012-12-16T08:13:16Z</time>
      </trkpt>
      <trkpt lat="45.81884" lon="4.82486">
        <ele>342</ele>
        <time>2012-12-16T08:13:17Z</time>
      </trkpt>
      <trkpt lat="45.81891" lon="4.82496">
        <ele>342</ele>
        <time>2012-12-16T08:13:21Z</time>
      </trkpt>
      <trkpt lat="45.81897" lon="4.82503">
        <ele>338</ele>
        <time>2012-12-16T08:13:24Z</time>
      </trkpt>
      <trkpt lat="45.819" lon="4.82507">
        <ele>339</ele>
        <time>2012-12-16T08:13:26Z</time>
      </trkpt>
      <trkpt lat="45.81911" lon="4.82519">
        <ele>338</ele>
        <time>2012-12-16T08:13:32Z</time>
      </trkpt>
      <trkpt lat="45.81919" lon="4.82532">
        <ele>344</ele>
        <time>2012-12-16T08:13:37Z</time>
      </trkpt>
      <trkpt lat="45.81923" lon="4.82539">
        <ele>344</ele>
        <time>2012-12-16T08:13:40Z</time>
      </trkpt>
      <trkpt lat="45.81928" lon="4.82547">
        <ele>343</ele>
        <time>2012-12-16T08:13:43Z</time>
      </trkpt>
      <trkpt lat="45.81936" lon="4.82559">
        <ele>342</ele>
        <time>2012-12-16T08:13:48Z</time>
      </trkpt>
      <trkpt lat="45.81938" lon="4.82562">
        <ele>342</ele>
        <time>2012-12-16T08:13:49Z</time>
      </trkpt>
      <trkpt lat="45.81947" lon="4.8257">
        <ele>342</ele>
        <time>2012-12-16T08:13:54Z</time>
      </trkpt>
      <trkpt lat="45.81953" lon="4.82575">
        <ele>343</ele>
        <time>2012-12-16T08:13:57Z</time>
      </trkpt>
      <trkpt lat="45.81957" lon="4.82577">
        <ele>343</ele>
        <time>2012-12-16T08:13:59Z</time>
      </trkpt>
      <trkpt lat="45.81968" lon="4.82585">
        <ele>336</ele>
        <time>2012-12-16T08:14:04Z</time>
      </trkpt>
      <trkpt lat="45.8197" lon="4.82586">
        <ele>336</ele>
        <time>2012-12-16T08:14:05Z</time>
      </trkpt>
      <trkpt lat="45.81979" lon="4.82592">
        <ele>338</ele>
        <time>2012-12-16T08:14:09Z</time>
      </trkpt>
      <trkpt lat="45.81986" lon="4.82597">
        <ele>339</ele>
        <time>2012-12-16T08:14:13Z</time>
      </trkpt>
      <trkpt lat="45.8199" lon="4.826">
        <ele>338</ele>
        <time>2012-12-16T08:14:15Z</time>
      </trkpt>
      <trkpt lat="45.81999" lon="4.82608">
        <ele>337</ele>
        <time>2012-12-16T08:14:21Z</time>
      </trkpt>
      <trkpt lat="45.82001" lon="4.82609">
        <ele>345</ele>
        <time>2012-12-16T08:14:22Z</time>
      </trkpt>
      <trkpt lat="45.82002" lon="4.8261">
        <ele>345</ele>
        <time>2012-12-16T08:14:23Z</time>
      </trkpt>
      <trkpt lat="45.82009" lon="4.82615">
        <ele>345</ele>
        <time>2012-12-16T08:14:28Z</time>
      </trkpt>
      <trkpt lat="45.82014" lon="4.8262">
        <ele>344</ele>
        <time>2012-12-16T08:14:32Z</time>
      </trkpt>
      <trkpt lat="45.82015" lon="4.82624">
        <ele>344</ele>
        <time>2012-12-16T08:14:34Z</time>
      </trkpt>
      <trkpt lat="45.82021" lon="4.82631">
        <ele>343</ele>
        <time>2012-12-16T08:14:37Z</time>
      </trkpt>
      <trkpt lat="45.82026" lon="4.82639">
        <ele>343</ele>
        <time>2012-12-16T08:14:40Z</time>
      </trkpt>
      <trkpt lat="45.82028" lon="4.82641">
        <ele>343</ele>
        <time>2012-12-16T08:14:41Z</time>
      </trkpt>
      <trkpt lat="45.82031" lon="4.82643">
        <ele>343</ele>
        <time>2012-12-16T08:14:42Z</time>
      </trkpt>
      <trkpt lat="45.82038" lon="4.82652">
        <ele>343</ele>
        <time>2012-12-16T08:14:46Z</time>
      </trkpt>
      <trkpt lat="45.82043" lon="4.82656">
        <ele>343</ele>
        <time>2012-12-16T08:14:48Z</time>
      </trkpt>
      <trkpt lat="45.8205" lon="4.8266">
        <ele>344</ele>
        <time>2012-12-16T08:14:51Z</time>
      </trkpt>
      <trkpt lat="45.82058" lon="4.82668">
        <ele>334</ele>
        <time>2012-12-16T08:14:55Z</time>
      </trkpt>
      <trkpt lat="45.8206" lon="4.8267">
        <ele>335</ele>
        <time>2012-12-16T08:14:56Z</time>
      </trkpt>
      <trkpt lat="45.82069" lon="4.82677">
        <ele>336</ele>
        <time>2012-12-16T08:15:00Z</time>
      </trkpt>
      <trkpt lat="45.82078" lon="4.82686">
        <ele>335</ele>
        <time>2012-12-16T08:15:05Z</time>
      </trkpt>
      <trkpt lat="45.82089" lon="4.82693">
        <ele>339</ele>
        <time>2012-12-16T08:15:10Z</time>
      </trkpt>
      <trkpt lat="45.82096" lon="4.82697">
        <ele>339</ele>
        <time>2012-12-16T08:15:13Z</time>
      </trkpt>
      <trkpt lat="45.82098" lon="4.82698">
        <ele>339</ele>
        <time>2012-12-16T08:15:14Z</time>
      </trkpt>
      <trkpt lat="45.82111" lon="4.82704">
        <ele>338</ele>
        <time>2012-12-16T08:15:20Z</time>
      </trkpt>
      <trkpt lat="45.82113" lon="4.82705">
        <ele>338</ele>
        <time>2012-12-16T08:15:21Z</time>
      </trkpt>
      <trkpt lat="45.82126" lon="4.82714">
        <ele>338</ele>
        <time>2012-12-16T08:15:26Z</time>
      </trkpt>
      <trkpt lat="45.8213" lon="4.82718">
        <ele>338</ele>
        <time>2012-12-16T08:15:28Z</time>
      </trkpt>
      <trkpt lat="45.82138" lon="4.82723">
        <ele>338</ele>
        <time>2012-12-16T08:15:31Z</time>
      </trkpt>
      <trkpt lat="45.82148" lon="4.82729">
        <ele>337</ele>
        <time>2012-12-16T08:15:35Z</time>
      </trkpt>
      <trkpt lat="45.82153" lon="4.82731">
        <ele>337</ele>
        <time>2012-12-16T08:15:37Z</time>
      </trkpt>
      <trkpt lat="45.82167" lon="4.82736">
        <ele>336</ele>
        <time>2012-12-16T08:15:42Z</time>
      </trkpt>
      <trkpt lat="45.82169" lon="4.82737">
        <ele>338</ele>
        <time>2012-12-16T08:15:43Z</time>
      </trkpt>
      <trkpt lat="45.8218" lon="4.82748">
        <ele>337</ele>
        <time>2012-12-16T08:15:48Z</time>
      </trkpt>
      <trkpt lat="45.82182" lon="4.82751">
        <ele>331</ele>
        <time>2012-12-16T08:15:49Z</time>
      </trkpt>
      <trkpt lat="45.82187" lon="4.82759">
        <ele>331</ele>
        <time>2012-12-16T08:15:52Z</time>
      </trkpt>
      <trkpt lat="45.82194" lon="4.8277">
        <ele>330</ele>
        <time>2012-12-16T08:15:56Z</time>
      </trkpt>
      <trkpt lat="45.82196" lon="4.82772">
        <ele>329</ele>
        <time>2012-12-16T08:15:57Z</time>
      </trkpt>
      <trkpt lat="45.82202" lon="4.82782">
        <ele>329</ele>
        <time>2012-12-16T08:16:01Z</time>
      </trkpt>
      <trkpt lat="45.8221" lon="4.82788">
        <ele>328</ele>
        <time>2012-12-16T08:16:05Z</time>
      </trkpt>
      <trkpt lat="45.82212" lon="4.82788">
        <ele>328</ele>
        <time>2012-12-16T08:16:06Z</time>
      </trkpt>
      <trkpt lat="45.82221" lon="4.82786">
        <ele>329</ele>
        <time>2012-12-16T08:16:10Z</time>
      </trkpt>
      <trkpt lat="45.82226" lon="4.82781">
        <ele>329</ele>
        <time>2012-12-16T08:16:14Z</time>
      </trkpt>
      <trkpt lat="45.82228" lon="4.82779">
        <ele>329</ele>
        <time>2012-12-16T08:16:15Z</time>
      </trkpt>
      <trkpt lat="45.82233" lon="4.82773">
        <ele>330</ele>
        <time>2012-12-16T08:16:19Z</time>
      </trkpt>
      <trkpt lat="45.82244" lon="4.82767">
        <ele>331</ele>
        <time>2012-12-16T08:16:24Z</time>
      </trkpt>
      <trkpt lat="45.82258" lon="4.82761">
        <ele>333</ele>
        <time>2012-12-16T08:16:30Z</time>
      </trkpt>
      <trkpt lat="45.82263" lon="4.8276">
        <ele>333</ele>
        <time>2012-12-16T08:16:32Z</time>
      </trkpt>
      <trkpt lat="45.82267" lon="4.82759">
        <ele>332</ele>
        <time>2012-12-16T08:16:34Z</time>
      </trkpt>
      <trkpt lat="45.82269" lon="4.82759">
        <ele>332</ele>
        <time>2012-12-16T08:16:35Z</time>
      </trkpt>
      <trkpt lat="45.82275" lon="4.82757">
        <ele>332</ele>
        <time>2012-12-16T08:16:38Z</time>
      </trkpt>
      <trkpt lat="45.82277" lon="4.82757">
        <ele>332</ele>
        <time>2012-12-16T08:16:39Z</time>
      </trkpt>
      <trkpt lat="45.82278" lon="4.82757">
        <ele>332</ele>
        <time>2012-12-16T08:16:40Z</time>
      </trkpt>
      <trkpt lat="45.8228" lon="4.82755">
        <ele>332</ele>
        <time>2012-12-16T08:16:42Z</time>
      </trkpt>
      <trkpt lat="45.82284" lon="4.82754">
        <ele>332</ele>
        <time>2012-12-16T08:16:44Z</time>
      </trkpt>
      <trkpt lat="45.82286" lon="4.82754">
        <ele>332</ele>
        <time>2012-12-16T08:16:45Z</time>
      </trkpt>
      <trkpt lat="45.82296" lon="4.82751">
        <ele>332</ele>
        <time>2012-12-16T08:16:50Z</time>
      </trkpt>
      <trkpt lat="45.82298" lon="4.8275">
        <ele>340</ele>
        <time>2012-12-16T08:16:51Z</time>
      </trkpt>
      <trkpt lat="45.823" lon="4.82748">
        <ele>340</ele>
        <time>2012-12-16T08:16:52Z</time>
      </trkpt>
      <trkpt lat="45.82302" lon="4.82741">
        <ele>340</ele>
        <time>2012-12-16T08:16:55Z</time>
      </trkpt>
      <trkpt lat="45.82307" lon="4.82727">
        <ele>341</ele>
        <time>2012-12-16T08:17:01Z</time>
      </trkpt>
      <trkpt lat="45.82309" lon="4.82723">
        <ele>341</ele>
        <time>2012-12-16T08:17:03Z</time>
      </trkpt>
      <trkpt lat="45.82318" lon="4.8271">
        <ele>343</ele>
        <time>2012-12-16T08:17:10Z</time>
      </trkpt>
      <trkpt lat="45.82319" lon="4.82709">
        <ele>343</ele>
        <time>2012-12-16T08:17:11Z</time>
      </trkpt>
      <trkpt lat="45.8232" lon="4.82708">
        <ele>343</ele>
        <time>2012-12-16T08:17:12Z</time>
      </trkpt>
      <trkpt lat="45.82324" lon="4.82704">
        <ele>343</ele>
        <time>2012-12-16T08:17:15Z</time>
      </trkpt>
      <trkpt lat="45.82326" lon="4.82703">
        <ele>343</ele>
        <time>2012-12-16T08:17:16Z</time>
      </trkpt>
      <trkpt lat="45.82329" lon="4.82701">
        <ele>344</ele>
        <time>2012-12-16T08:17:18Z</time>
      </trkpt>
      <trkpt lat="45.8233" lon="4.827">
        <ele>344</ele>
        <time>2012-12-16T08:17:19Z</time>
      </trkpt>
      <trkpt lat="45.82338" lon="4.82696">
        <ele>346</ele>
        <time>2012-12-16T08:17:24Z</time>
      </trkpt>
      <trkpt lat="45.82345" lon="4.82698">
        <ele>346</ele>
        <time>2012-12-16T08:17:28Z</time>
      </trkpt>
      <trkpt lat="45.82348" lon="4.82698">
        <ele>346</ele>
        <time>2012-12-16T08:17:29Z</time>
      </trkpt>
      <trkpt lat="45.82356" lon="4.82697">
        <ele>346</ele>
        <time>2012-12-16T08:17:33Z</time>
      </trkpt>
      <trkpt lat="45.82358" lon="4.82697">
        <ele>346</ele>
        <time>2012-12-16T08:17:34Z</time>
      </trkpt>
      <trkpt lat="45.82367" lon="4.82697">
        <ele>346</ele>
        <time>2012-12-16T08:17:39Z</time>
      </trkpt>
      <trkpt lat="45.82376" lon="4.82696">
        <ele>346</ele>
        <time>2012-12-16T08:17:42Z</time>
      </trkpt>
      <trkpt lat="45.82381" lon="4.82697">
        <ele>347</ele>
        <time>2012-12-16T08:17:44Z</time>
      </trkpt>
      <trkpt lat="45.82386" lon="4.82696">
        <ele>347</ele>
        <time>2012-12-16T08:17:46Z</time>
      </trkpt>
      <trkpt lat="45.82389" lon="4.82696">
        <ele>347</ele>
        <time>2012-12-16T08:17:48Z</time>
      </trkpt>
      <trkpt lat="45.82396" lon="4.82696">
        <ele>347</ele>
        <time>2012-12-16T08:17:51Z</time>
      </trkpt>
      <trkpt lat="45.82405" lon="4.82697">
        <ele>347</ele>
        <time>2012-12-16T08:17:55Z</time>
      </trkpt>
      <trkpt lat="45.82407" lon="4.82698">
        <ele>347</ele>
        <time>2012-12-16T08:17:56Z</time>
      </trkpt>
      <trkpt lat="45.82412" lon="4.82699">
        <ele>347</ele>
        <time>2012-12-16T08:17:59Z</time>
      </trkpt>
      <trkpt lat="45.82414" lon="4.82699">
        <ele>347</ele>
        <time>2012-12-16T08:18:00Z</time>
      </trkpt>
      <trkpt lat="45.82424" lon="4.82702">
        <ele>350</ele>
        <time>2012-12-16T08:18:04Z</time>
      </trkpt>
      <trkpt lat="45.82426" lon="4.82702">
        <ele>350</ele>
        <time>2012-12-16T08:18:05Z</time>
      </trkpt>
      <trkpt lat="45.82434" lon="4.82703">
        <ele>350</ele>
        <time>2012-12-16T08:18:08Z</time>
      </trkpt>
      <trkpt lat="45.82439" lon="4.82703">
        <ele>350</ele>
        <time>2012-12-16T08:18:10Z</time>
      </trkpt>
      <trkpt lat="45.82452" lon="4.82704">
        <ele>350</ele>
        <time>2012-12-16T08:18:15Z</time>
      </trkpt>
      <trkpt lat="45.82466" lon="4.82705">
        <ele>350</ele>
        <time>2012-12-16T08:18:20Z</time>
      </trkpt>
      <trkpt lat="45.8247" lon="4.82706">
        <ele>351</ele>
        <time>2012-12-16T08:18:22Z</time>
      </trkpt>
      <trkpt lat="45.8248" lon="4.82709">
        <ele>351</ele>
        <time>2012-12-16T08:18:26Z</time>
      </trkpt>
      <trkpt lat="45.8249" lon="4.82713">
        <ele>350</ele>
        <time>2012-12-16T08:18:30Z</time>
      </trkpt>
      <trkpt lat="45.825" lon="4.82715">
        <ele>350</ele>
        <time>2012-12-16T08:18:34Z</time>
      </trkpt>
      <trkpt lat="45.82509" lon="4.82717">
        <ele>353</ele>
        <time>2012-12-16T08:18:38Z</time>
      </trkpt>
      <trkpt lat="45.82515" lon="4.82717">
        <ele>353</ele>
        <time>2012-12-16T08:18:40Z</time>
      </trkpt>
      <trkpt lat="45.82529" lon="4.82715">
        <ele>353</ele>
        <time>2012-12-16T08:18:46Z</time>
      </trkpt>
      <trkpt lat="45.82537" lon="4.82709">
        <ele>354</ele>
        <time>2012-12-16T08:18:51Z</time>
      </trkpt>
      <trkpt lat="45.82545" lon="4.82707">
        <ele>355</ele>
        <time>2012-12-16T08:18:56Z</time>
      </trkpt>
      <trkpt lat="45.82558" lon="4.82713">
        <ele>354</ele>
        <time>2012-12-16T08:19:02Z</time>
      </trkpt>
      <trkpt lat="45.82564" lon="4.82715">
        <ele>354</ele>
        <time>2012-12-16T08:19:05Z</time>
      </trkpt>
      <trkpt lat="45.8257" lon="4.82717">
        <ele>354</ele>
        <time>2012-12-16T08:19:08Z</time>
      </trkpt>
      <trkpt lat="45.82578" lon="4.82719">
        <ele>354</ele>
        <time>2012-12-16T08:19:13Z</time>
      </trkpt>
      <trkpt lat="45.82583" lon="4.82721">
        <ele>353</ele>
        <time>2012-12-16T08:19:15Z</time>
      </trkpt>
      <trkpt lat="45.82592" lon="4.82723">
        <ele>359</ele>
        <time>2012-12-16T08:19:19Z</time>
      </trkpt>
      <trkpt lat="45.82602" lon="4.82724">
        <ele>360</ele>
        <time>2012-12-16T08:19:25Z</time>
      </trkpt>
      <trkpt lat="45.82612" lon="4.8273">
        <ele>361</ele>
        <time>2012-12-16T08:19:31Z</time>
      </trkpt>
      <trkpt lat="45.82621" lon="4.82735">
        <ele>361</ele>
        <time>2012-12-16T08:19:36Z</time>
      </trkpt>
      <trkpt lat="45.82632" lon="4.82742">
        <ele>362</ele>
        <time>2012-12-16T08:19:41Z</time>
      </trkpt>
      <trkpt lat="45.82638" lon="4.82745">
        <ele>363</ele>
        <time>2012-12-16T08:19:43Z</time>
      </trkpt>
      <trkpt lat="45.82645" lon="4.8275">
        <ele>355</ele>
        <time>2012-12-16T08:19:46Z</time>
      </trkpt>
      <trkpt lat="45.82654" lon="4.8276">
        <ele>356</ele>
        <time>2012-12-16T08:19:51Z</time>
      </trkpt>
      <trkpt lat="45.82657" lon="4.82765">
        <ele>356</ele>
        <time>2012-12-16T08:19:53Z</time>
      </trkpt>
      <trkpt lat="45.82667" lon="4.82775">
        <ele>365</ele>
        <time>2012-12-16T08:19:58Z</time>
      </trkpt>
      <trkpt lat="45.82668" lon="4.82778">
        <ele>365</ele>
        <time>2012-12-16T08:19:59Z</time>
      </trkpt>
      <trkpt lat="45.82676" lon="4.82787">
        <ele>365</ele>
        <time>2012-12-16T08:20:04Z</time>
      </trkpt>
      <trkpt lat="45.82684" lon="4.82794">
        <ele>364</ele>
        <time>2012-12-16T08:20:10Z</time>
      </trkpt>
      <trkpt lat="45.82685" lon="4.82796">
        <ele>364</ele>
        <time>2012-12-16T08:20:11Z</time>
      </trkpt>
      <trkpt lat="45.82691" lon="4.82802">
        <ele>364</ele>
        <time>2012-12-16T08:20:15Z</time>
      </trkpt>
      <trkpt lat="45.827" lon="4.82806">
        <ele>365</ele>
        <time>2012-12-16T08:20:21Z</time>
      </trkpt>
      <trkpt lat="45.82701" lon="4.82806">
        <ele>365</ele>
        <time>2012-12-16T08:20:22Z</time>
      </trkpt>
      <trkpt lat="45.8271" lon="4.828">
        <ele>367</ele>
        <time>2012-12-16T08:20:28Z</time>
      </trkpt>
      <trkpt lat="45.82712" lon="4.828">
        <ele>367</ele>
        <time>2012-12-16T08:20:29Z</time>
      </trkpt>
      <trkpt lat="45.82715" lon="4.828">
        <ele>367</ele>
        <time>2012-12-16T08:20:31Z</time>
      </trkpt>
      <trkpt lat="45.82717" lon="4.828">
        <ele>368</ele>
        <time>2012-12-16T08:20:33Z</time>
      </trkpt>
      <trkpt lat="45.8272" lon="4.82799">
        <ele>368</ele>
        <time>2012-12-16T08:20:36Z</time>
      </trkpt>
      <trkpt lat="45.82722" lon="4.82798">
        <ele>368</ele>
        <time>2012-12-16T08:20:38Z</time>
      </trkpt>
      <trkpt lat="45.82724" lon="4.82798">
        <ele>369</ele>
        <time>2012-12-16T08:20:41Z</time>
      </trkpt>
      <trkpt lat="45.82732" lon="4.82804">
        <ele>369</ele>
        <time>2012-12-16T08:20:45Z</time>
      </trkpt>
      <trkpt lat="45.82732" lon="4.82804">
        <ele>369</ele>
        <time>2012-12-16T08:20:46Z</time>
      </trkpt>
      <trkpt lat="45.82735" lon="4.82806">
        <ele>369</ele>
        <time>2012-12-16T08:20:48Z</time>
      </trkpt>
      <trkpt lat="45.82739" lon="4.82809">
        <ele>369</ele>
        <time>2012-12-16T08:20:51Z</time>
      </trkpt>
      <trkpt lat="45.82749" lon="4.82807">
        <ele>369</ele>
        <time>2012-12-16T08:20:56Z</time>
      </trkpt>
      <trkpt lat="45.82751" lon="4.82808">
        <ele>377</ele>
        <time>2012-12-16T08:20:57Z</time>
      </trkpt>
      <trkpt lat="45.82757" lon="4.8281">
        <ele>376</ele>
        <time>2012-12-16T08:21:00Z</time>
      </trkpt>
      <trkpt lat="45.8276" lon="4.82809">
        <ele>377</ele>
        <time>2012-12-16T08:21:02Z</time>
      </trkpt>
      <trkpt lat="45.82762" lon="4.8281">
        <ele>377</ele>
        <time>2012-12-16T08:21:04Z</time>
      </trkpt>
      <trkpt lat="45.82762" lon="4.82813">
        <ele>376</ele>
        <time>2012-12-16T08:21:08Z</time>
      </trkpt>
      <trkpt lat="45.82763" lon="4.82815">
        <ele>376</ele>
        <time>2012-12-16T08:21:10Z</time>
      </trkpt>
      <trkpt lat="45.82763" lon="4.8282">
        <ele>375</ele>
        <time>2012-12-16T08:21:12Z</time>
      </trkpt>
      <trkpt lat="45.82764" lon="4.82827">
        <ele>373</ele>
        <time>2012-12-16T08:21:15Z</time>
      </trkpt>
      <trkpt lat="45.82764" lon="4.82838">
        <ele>364</ele>
        <time>2012-12-16T08:21:19Z</time>
      </trkpt>
      <trkpt lat="45.82765" lon="4.82841">
        <ele>364</ele>
        <time>2012-12-16T08:21:23Z</time>
      </trkpt>
      <trkpt lat="45.8277" lon="4.82842">
        <ele>363</ele>
        <time>2012-12-16T08:21:26Z</time>
      </trkpt>
      <trkpt lat="45.82772" lon="4.82842">
        <ele>363</ele>
        <time>2012-12-16T08:21:30Z</time>
      </trkpt>
      <trkpt lat="45.82776" lon="4.82838">
        <ele>363</ele>
        <time>2012-12-16T08:21:38Z</time>
      </trkpt>
      <trkpt lat="45.82781" lon="4.82835">
        <ele>363</ele>
        <time>2012-12-16T08:21:44Z</time>
      </trkpt>
      <trkpt lat="45.82782" lon="4.8283">
        <ele>377</ele>
        <time>2012-12-16T08:21:45Z</time>
      </trkpt>
      <trkpt lat="45.82783" lon="4.82828">
        <ele>377</ele>
        <time>2012-12-16T08:21:47Z</time>
      </trkpt>
      <trkpt lat="45.82786" lon="4.82826">
        <ele>377</ele>
        <time>2012-12-16T08:21:50Z</time>
      </trkpt>
      <trkpt lat="45.82796" lon="4.82828">
        <ele>378</ele>
        <time>2012-12-16T08:21:56Z</time>
      </trkpt>
      <trkpt lat="45.82798" lon="4.82827">
        <ele>378</ele>
        <time>2012-12-16T08:21:58Z</time>
      </trkpt>
      <trkpt lat="45.82804" lon="4.82822">
        <ele>378</ele>
        <time>2012-12-16T08:22:03Z</time>
      </trkpt>
      <trkpt lat="45.82804" lon="4.82821">
        <ele>378</ele>
        <time>2012-12-16T08:22:04Z</time>
      </trkpt>
      <trkpt lat="45.82807" lon="4.82817">
        <ele>379</ele>
        <time>2012-12-16T08:22:08Z</time>
      </trkpt>
      <trkpt lat="45.82808" lon="4.82807">
        <ele>380</ele>
        <time>2012-12-16T08:22:13Z</time>
      </trkpt>
      <trkpt lat="45.82807" lon="4.82805">
        <ele>380</ele>
        <time>2012-12-16T08:22:14Z</time>
      </trkpt>
      <trkpt lat="45.82808" lon="4.82804">
        <ele>381</ele>
        <time>2012-12-16T08:22:16Z</time>
      </trkpt>
      <trkpt lat="45.82811" lon="4.82802">
        <ele>381</ele>
        <time>2012-12-16T08:22:21Z</time>
      </trkpt>
      <trkpt lat="45.82811" lon="4.82801">
        <ele>381</ele>
        <time>2012-12-16T08:22:22Z</time>
      </trkpt>
      <trkpt lat="45.82808" lon="4.82796">
        <ele>382</ele>
        <time>2012-12-16T08:22:28Z</time>
      </trkpt>
      <trkpt lat="45.82807" lon="4.82792">
        <ele>382</ele>
        <time>2012-12-16T08:22:33Z</time>
      </trkpt>
      <trkpt lat="45.82808" lon="4.82787">
        <ele>383</ele>
        <time>2012-12-16T08:22:36Z</time>
      </trkpt>
      <trkpt lat="45.82809" lon="4.82783">
        <ele>384</ele>
        <time>2012-12-16T08:22:39Z</time>
      </trkpt>
      <trkpt lat="45.82808" lon="4.82782">
        <ele>384</ele>
        <time>2012-12-16T08:22:43Z</time>
      </trkpt>
      <trkpt lat="45.82804" lon="4.82781">
        <ele>384</ele>
        <time>2012-12-16T08:22:47Z</time>
      </trkpt>
      <trkpt lat="45.82802" lon="4.82778">
        <ele>384</ele>
        <time>2012-12-16T08:22:50Z</time>
      </trkpt>
      <trkpt lat="45.82803" lon="4.82775">
        <ele>385</ele>
        <time>2012-12-16T08:22:52Z</time>
      </trkpt>
      <trkpt lat="45.82803" lon="4.82769">
        <ele>386</ele>
        <time>2012-12-16T08:22:56Z</time>
      </trkpt>
      <trkpt lat="45.82802" lon="4.82765">
        <ele>386</ele>
        <time>2012-12-16T08:23:00Z</time>
      </trkpt>
      <trkpt lat="45.82803" lon="4.82764">
        <ele>386</ele>
        <time>2012-12-16T08:23:01Z</time>
      </trkpt>
      <trkpt lat="45.82803" lon="4.82764">
        <ele>386</ele>
        <time>2012-12-16T08:23:02Z</time>
      </trkpt>
      <trkpt lat="45.82802" lon="4.82761">
        <ele>387</ele>
        <time>2012-12-16T08:23:06Z</time>
      </trkpt>
      <trkpt lat="45.82801" lon="4.8276">
        <ele>387</ele>
        <time>2012-12-16T08:23:09Z</time>
      </trkpt>
      <trkpt lat="45.828" lon="4.82758">
        <ele>387</ele>
        <time>2012-12-16T08:23:11Z</time>
      </trkpt>
      <trkpt lat="45.828" lon="4.82758">
        <ele>387</ele>
        <time>2012-12-16T08:23:12Z</time>
      </trkpt>
      <trkpt lat="45.82799" lon="4.82752">
        <ele>387</ele>
        <time>2012-12-16T08:23:19Z</time>
      </trkpt>
      <trkpt lat="45.82796" lon="4.82745">
        <ele>399</ele>
        <time>2012-12-16T08:23:26Z</time>
      </trkpt>
      <trkpt lat="45.82795" lon="4.82739">
        <ele>400</ele>
        <time>2012-12-16T08:23:32Z</time>
      </trkpt>
      <trkpt lat="45.8279" lon="4.82735">
        <ele>399</ele>
        <time>2012-12-16T08:23:36Z</time>
      </trkpt>
      <trkpt lat="45.82788" lon="4.82734">
        <ele>399</ele>
        <time>2012-12-16T08:23:39Z</time>
      </trkpt>
      <trkpt lat="45.82787" lon="4.82732">
        <ele>399</ele>
        <time>2012-12-16T08:23:41Z</time>
      </trkpt>
      <trkpt lat="45.82789" lon="4.82729">
        <ele>400</ele>
        <time>2012-12-16T08:23:45Z</time>
      </trkpt>
      <trkpt lat="45.82787" lon="4.82726">
        <ele>400</ele>
        <time>2012-12-16T08:23:56Z</time>
      </trkpt>
      <trkpt lat="45.82786" lon="4.82727">
        <ele>400</ele>
        <time>2012-12-16T08:24:27Z</time>
      </trkpt>
      <trkpt lat="45.82786" lon="4.82727">
        <ele>400</ele>
        <time>2012-12-16T08:24:34Z</time>
      </trkpt>
      <trkpt lat="45.82787" lon="4.8272">
        <ele>401</ele>
        <time>2012-12-16T08:25:13Z</time>
      </trkpt>
      <trkpt lat="45.82792" lon="4.82716">
        <ele>401</ele>
        <time>2012-12-16T08:25:19Z</time>
      </trkpt>
      <trkpt lat="45.82795" lon="4.82715">
        <ele>402</ele>
        <time>2012-12-16T08:25:21Z</time>
      </trkpt>
      <trkpt lat="45.82799" lon="4.82711">
        <ele>402</ele>
        <time>2012-12-16T08:25:24Z</time>
      </trkpt>
      <trkpt lat="45.828" lon="4.8271">
        <ele>402</ele>
        <time>2012-12-16T08:25:26Z</time>
      </trkpt>
      <trkpt lat="45.82804" lon="4.82702">
        <ele>403</ele>
        <time>2012-12-16T08:25:30Z</time>
      </trkpt>
      <trkpt lat="45.82804" lon="4.827">
        <ele>404</ele>
        <time>2012-12-16T08:25:31Z</time>
      </trkpt>
      <trkpt lat="45.82806" lon="4.82691">
        <ele>405</ele>
        <time>2012-12-16T08:25:36Z</time>
      </trkpt>
      <trkpt lat="45.82806" lon="4.8269">
        <ele>405</ele>
        <time>2012-12-16T08:25:37Z</time>
      </trkpt>
      <trkpt lat="45.8281" lon="4.82684">
        <ele>406</ele>
        <time>2012-12-16T08:25:42Z</time>
      </trkpt>
      <trkpt lat="45.8282" lon="4.82677">
        <ele>408</ele>
        <time>2012-12-16T08:25:48Z</time>
      </trkpt>
      <trkpt lat="45.82822" lon="4.82676">
        <ele>409</ele>
        <time>2012-12-16T08:25:50Z</time>
      </trkpt>
      <trkpt lat="45.82828" lon="4.82672">
        <ele>411</ele>
        <time>2012-12-16T08:25:53Z</time>
      </trkpt>
      <trkpt lat="45.8283" lon="4.82669">
        <ele>412</ele>
        <time>2012-12-16T08:25:54Z</time>
      </trkpt>
      <trkpt lat="45.82839" lon="4.82662">
        <ele>415</ele>
        <time>2012-12-16T08:25:59Z</time>
      </trkpt>
      <trkpt lat="45.82849" lon="4.82653">
        <ele>416</ele>
        <time>2012-12-16T08:26:05Z</time>
      </trkpt>
      <trkpt lat="45.82854" lon="4.82647">
        <ele>417</ele>
        <time>2012-12-16T08:26:09Z</time>
      </trkpt>
      <trkpt lat="45.82857" lon="4.82644">
        <ele>417</ele>
        <time>2012-12-16T08:26:11Z</time>
      </trkpt>
      <trkpt lat="45.82865" lon="4.82639">
        <ele>417</ele>
        <time>2012-12-16T08:26:16Z</time>
      </trkpt>
      <trkpt lat="45.82868" lon="4.82636">
        <ele>417</ele>
        <time>2012-12-16T08:26:18Z</time>
      </trkpt>
      <trkpt lat="45.8287" lon="4.82635">
        <ele>417</ele>
        <time>2012-12-16T08:26:20Z</time>
      </trkpt>
      <trkpt lat="45.82873" lon="4.82632">
        <ele>418</ele>
        <time>2012-12-16T08:26:21Z</time>
      </trkpt>
      <trkpt lat="45.82883" lon="4.82622">
        <ele>418</ele>
        <time>2012-12-16T08:26:27Z</time>
      </trkpt>
      <trkpt lat="45.82888" lon="4.82617">
        <ele>418</ele>
        <time>2012-12-16T08:26:30Z</time>
      </trkpt>
      <trkpt lat="45.82891" lon="4.82614">
        <ele>419</ele>
        <time>2012-12-16T08:26:33Z</time>
      </trkpt>
      <trkpt lat="45.82892" lon="4.82606">
        <ele>419</ele>
        <time>2012-12-16T08:26:34Z</time>
      </trkpt>
      <trkpt lat="45.82897" lon="4.82599">
        <ele>420</ele>
        <time>2012-12-16T08:26:38Z</time>
      </trkpt>
      <trkpt lat="45.82902" lon="4.82598">
        <ele>420</ele>
        <time>2012-12-16T08:26:40Z</time>
      </trkpt>
      <trkpt lat="45.8291" lon="4.82593">
        <ele>421</ele>
        <time>2012-12-16T08:26:44Z</time>
      </trkpt>
      <trkpt lat="45.82919" lon="4.82587">
        <ele>420</ele>
        <time>2012-12-16T08:26:49Z</time>
      </trkpt>
      <trkpt lat="45.82919" lon="4.82587">
        <ele>420</ele>
        <time>2012-12-16T08:26:50Z</time>
      </trkpt>
      <trkpt lat="45.82923" lon="4.82584">
        <ele>419</ele>
        <time>2012-12-16T08:26:52Z</time>
      </trkpt>
      <trkpt lat="45.82927" lon="4.82579">
        <ele>422</ele>
        <time>2012-12-16T08:26:55Z</time>
      </trkpt>
      <trkpt lat="45.82936" lon="4.82574">
        <ele>421</ele>
        <time>2012-12-16T08:26:59Z</time>
      </trkpt>
      <trkpt lat="45.82938" lon="4.82573">
        <ele>421</ele>
        <time>2012-12-16T08:27:00Z</time>
      </trkpt>
      <trkpt lat="45.8294" lon="4.82571">
        <ele>421</ele>
        <time>2012-12-16T08:27:01Z</time>
      </trkpt>
      <trkpt lat="45.82946" lon="4.82563">
        <ele>420</ele>
        <time>2012-12-16T08:27:05Z</time>
      </trkpt>
      <trkpt lat="45.82951" lon="4.82558">
        <ele>420</ele>
        <time>2012-12-16T08:27:08Z</time>
      </trkpt>
      <trkpt lat="45.82954" lon="4.82554">
        <ele>420</ele>
        <time>2012-12-16T08:27:10Z</time>
      </trkpt>
      <trkpt lat="45.82965" lon="4.82544">
        <ele>420</ele>
        <time>2012-12-16T08:27:15Z</time>
      </trkpt>
      <trkpt lat="45.82967" lon="4.82542">
        <ele>420</ele>
        <time>2012-12-16T08:27:16Z</time>
      </trkpt>
      <trkpt lat="45.82972" lon="4.82537">
        <ele>420</ele>
        <time>2012-12-16T08:27:19Z</time>
      </trkpt>
      <trkpt lat="45.82974" lon="4.82535">
        <ele>420</ele>
        <time>2012-12-16T08:27:20Z</time>
      </trkpt>
      <trkpt lat="45.82981" lon="4.82528">
        <ele>420</ele>
        <time>2012-12-16T08:27:24Z</time>
      </trkpt>
      <trkpt lat="45.82983" lon="4.82526">
        <ele>420</ele>
        <time>2012-12-16T08:27:25Z</time>
      </trkpt>
      <trkpt lat="45.82992" lon="4.82516">
        <ele>420</ele>
        <time>2012-12-16T08:27:30Z</time>
      </trkpt>
      <trkpt lat="45.82993" lon="4.82511">
        <ele>420</ele>
        <time>2012-12-16T08:27:32Z</time>
      </trkpt>
      <trkpt lat="45.82992" lon="4.82505">
        <ele>421</ele>
        <time>2012-12-16T08:27:34Z</time>
      </trkpt>
      <trkpt lat="45.82988" lon="4.82485">
        <ele>424</ele>
        <time>2012-12-16T08:27:39Z</time>
      </trkpt>
      <trkpt lat="45.82987" lon="4.82479">
        <ele>425</ele>
        <time>2012-12-16T08:27:41Z</time>
      </trkpt>
      <trkpt lat="45.82986" lon="4.82473">
        <ele>425</ele>
        <time>2012-12-16T08:27:43Z</time>
      </trkpt>
      <trkpt lat="45.82985" lon="4.82469">
        <ele>426</ele>
        <time>2012-12-16T08:27:45Z</time>
      </trkpt>
      <trkpt lat="45.82982" lon="4.82453">
        <ele>426</ele>
        <time>2012-12-16T08:27:49Z</time>
      </trkpt>
      <trkpt lat="45.82982" lon="4.82453">
        <ele>426</ele>
        <time>2012-12-16T08:27:50Z</time>
      </trkpt>
      <trkpt lat="45.82979" lon="4.82447">
        <ele>426</ele>
        <time>2012-12-16T08:27:57Z</time>
      </trkpt>
      <trkpt lat="45.82978" lon="4.82439">
        <ele>427</ele>
        <time>2012-12-16T08:28:05Z</time>
      </trkpt>
      <trkpt lat="45.82978" lon="4.82436">
        <ele>427</ele>
        <time>2012-12-16T08:28:07Z</time>
      </trkpt>
      <trkpt lat="45.82977" lon="4.82433">
        <ele>427</ele>
        <time>2012-12-16T08:28:09Z</time>
      </trkpt>
      <trkpt lat="45.82977" lon="4.82431">
        <ele>427</ele>
        <time>2012-12-16T08:28:11Z</time>
      </trkpt>
      <trkpt lat="45.82975" lon="4.82432">
        <ele>427</ele>
        <time>2012-12-16T08:28:17Z</time>
      </trkpt>
      <trkpt lat="45.82974" lon="4.82432">
        <ele>427</ele>
        <time>2012-12-16T08:28:19Z</time>
      </trkpt>
      <trkpt lat="45.82971" lon="4.82433">
        <ele>427</ele>
        <time>2012-12-16T08:28:23Z</time>
      </trkpt>
      <trkpt lat="45.82966" lon="4.82433">
        <ele>427</ele>
        <time>2012-12-16T08:28:29Z</time>
      </trkpt>
      <trkpt lat="45.82965" lon="4.82433">
        <ele>428</ele>
        <time>2012-12-16T08:28:30Z</time>
      </trkpt>
      <trkpt lat="45.8296" lon="4.82433">
        <ele>428</ele>
        <time>2012-12-16T08:28:34Z</time>
      </trkpt>
      <trkpt lat="45.82959" lon="4.82432">
        <ele>428</ele>
        <time>2012-12-16T08:28:35Z</time>
      </trkpt>
      <trkpt lat="45.82958" lon="4.82432">
        <ele>428</ele>
        <time>2012-12-16T08:28:36Z</time>
      </trkpt>
      <trkpt lat="45.82956" lon="4.82429">
        <ele>428</ele>
        <time>2012-12-16T08:28:39Z</time>
      </trkpt>
      <trkpt lat="45.82953" lon="4.82428">
        <ele>429</ele>
        <time>2012-12-16T08:28:41Z</time>
      </trkpt>
      <trkpt lat="45.82951" lon="4.82425">
        <ele>429</ele>
        <time>2012-12-16T08:28:44Z</time>
      </trkpt>
      <trkpt lat="45.82949" lon="4.8242">
        <ele>429</ele>
        <time>2012-12-16T08:28:47Z</time>
      </trkpt>
      <trkpt lat="45.82947" lon="4.82416">
        <ele>430</ele>
        <time>2012-12-16T08:28:50Z</time>
      </trkpt>
      <trkpt lat="45.82945" lon="4.8241">
        <ele>430</ele>
        <time>2012-12-16T08:28:52Z</time>
      </trkpt>
      <trkpt lat="45.82945" lon="4.82408">
        <ele>430</ele>
        <time>2012-12-16T08:28:53Z</time>
      </trkpt>
      <trkpt lat="45.82944" lon="4.82398">
        <ele>430</ele>
        <time>2012-12-16T08:28:58Z</time>
      </trkpt>
      <trkpt lat="45.82944" lon="4.82396">
        <ele>430</ele>
        <time>2012-12-16T08:28:59Z</time>
      </trkpt>
      <trkpt lat="45.82942" lon="4.82388">
        <ele>430</ele>
        <time>2012-12-16T08:29:04Z</time>
      </trkpt>
      <trkpt lat="45.82941" lon="4.82384">
        <ele>430</ele>
        <time>2012-12-16T08:29:06Z</time>
      </trkpt>
      <trkpt lat="45.82941" lon="4.82382">
        <ele>430</ele>
        <time>2012-12-16T08:29:07Z</time>
      </trkpt>
      <trkpt lat="45.82938" lon="4.82373">
        <ele>430</ele>
        <time>2012-12-16T08:29:10Z</time>
      </trkpt>
      <trkpt lat="45.82937" lon="4.8237">
        <ele>430</ele>
        <time>2012-12-16T08:29:11Z</time>
      </trkpt>
      <trkpt lat="45.82933" lon="4.82358">
        <ele>430</ele>
        <time>2012-12-16T08:29:16Z</time>
      </trkpt>
      <trkpt lat="45.82926" lon="4.82339">
        <ele>432</ele>
        <time>2012-12-16T08:29:22Z</time>
      </trkpt>
      <trkpt lat="45.82923" lon="4.82333">
        <ele>432</ele>
        <time>2012-12-16T08:29:24Z</time>
      </trkpt>
      <trkpt lat="45.8292" lon="4.82327">
        <ele>432</ele>
        <time>2012-12-16T08:29:26Z</time>
      </trkpt>
      <trkpt lat="45.82913" lon="4.82317">
        <ele>434</ele>
        <time>2012-12-16T08:29:31Z</time>
      </trkpt>
      <trkpt lat="45.82909" lon="4.82317">
        <ele>434</ele>
        <time>2012-12-16T08:29:33Z</time>
      </trkpt>
      <trkpt lat="45.82903" lon="4.82316">
        <ele>435</ele>
        <time>2012-12-16T08:29:36Z</time>
      </trkpt>
      <trkpt lat="45.82892" lon="4.82318">
        <ele>435</ele>
        <time>2012-12-16T08:29:42Z</time>
      </trkpt>
      <trkpt lat="45.82891" lon="4.82319">
        <ele>435</ele>
        <time>2012-12-16T08:29:43Z</time>
      </trkpt>
      <trkpt lat="45.82887" lon="4.82325">
        <ele>435</ele>
        <time>2012-12-16T08:29:46Z</time>
      </trkpt>
      <trkpt lat="45.82886" lon="4.82327">
        <ele>436</ele>
        <time>2012-12-16T08:29:48Z</time>
      </trkpt>
      <trkpt lat="45.82886" lon="4.82332">
        <ele>436</ele>
        <time>2012-12-16T08:29:51Z</time>
      </trkpt>
      <trkpt lat="45.82886" lon="4.82333">
        <ele>436</ele>
        <time>2012-12-16T08:29:52Z</time>
      </trkpt>
      <trkpt lat="45.82885" lon="4.82336">
        <ele>437</ele>
        <time>2012-12-16T08:29:54Z</time>
      </trkpt>
      <trkpt lat="45.82887" lon="4.82342">
        <ele>437</ele>
        <time>2012-12-16T08:29:56Z</time>
      </trkpt>
      <trkpt lat="45.82888" lon="4.82358">
        <ele>437</ele>
        <time>2012-12-16T08:30:01Z</time>
      </trkpt>
      <trkpt lat="45.82885" lon="4.82368">
        <ele>437</ele>
        <time>2012-12-16T08:30:04Z</time>
      </trkpt>
      <trkpt lat="45.82883" lon="4.82371">
        <ele>437</ele>
        <time>2012-12-16T08:30:06Z</time>
      </trkpt>
      <trkpt lat="45.82881" lon="4.82381">
        <ele>437</ele>
        <time>2012-12-16T08:30:10Z</time>
      </trkpt>
      <trkpt lat="45.82877" lon="4.82394">
        <ele>437</ele>
        <time>2012-12-16T08:30:14Z</time>
      </trkpt>
      <trkpt lat="45.82875" lon="4.82397">
        <ele>437</ele>
        <time>2012-12-16T08:30:15Z</time>
      </trkpt>
      <trkpt lat="45.82867" lon="4.82414">
        <ele>437</ele>
        <time>2012-12-16T08:30:21Z</time>
      </trkpt>
      <trkpt lat="45.82865" lon="4.82417">
        <ele>436</ele>
        <time>2012-12-16T08:30:22Z</time>
      </trkpt>
      <trkpt lat="45.82861" lon="4.82426">
        <ele>436</ele>
        <time>2012-12-16T08:30:26Z</time>
      </trkpt>
      <trkpt lat="45.82859" lon="4.82429">
        <ele>436</ele>
        <time>2012-12-16T08:30:32Z</time>
      </trkpt>
      <trkpt lat="45.82862" lon="4.82426">
        <ele>436</ele>
        <time>2012-12-16T08:30:37Z</time>
      </trkpt>
      <trkpt lat="45.82863" lon="4.82422">
        <ele>436</ele>
        <time>2012-12-16T08:30:44Z</time>
      </trkpt>
      <trkpt lat="45.82862" lon="4.82424">
        <ele>436</ele>
        <time>2012-12-16T08:30:47Z</time>
      </trkpt>
      <trkpt lat="45.82862" lon="4.82423">
        <ele>436</ele>
        <time>2012-12-16T08:30:49Z</time>
      </trkpt>
      <trkpt lat="45.82865" lon="4.82418">
        <ele>436</ele>
        <time>2012-12-16T08:30:54Z</time>
      </trkpt>
      <trkpt lat="45.82867" lon="4.82416">
        <ele>437</ele>
        <time>2012-12-16T08:30:59Z</time>
      </trkpt>
      <trkpt lat="45.82869" lon="4.82418">
        <ele>435</ele>
        <time>2012-12-16T08:31:04Z</time>
      </trkpt>
      <trkpt lat="45.8287" lon="4.82421">
        <ele>435</ele>
        <time>2012-12-16T08:31:11Z</time>
      </trkpt>
      <trkpt lat="45.8287" lon="4.82422">
        <ele>435</ele>
        <time>2012-12-16T08:31:20Z</time>
      </trkpt>
      <trkpt lat="45.8287" lon="4.82422">
        <ele>435</ele>
        <time>2012-12-16T08:31:29Z</time>
      </trkpt>
      <trkpt lat="45.82867" lon="4.82421">
        <ele>435</ele>
        <time>2012-12-16T08:32:17Z</time>
      </trkpt>
      <trkpt lat="45.82865" lon="4.82421">
        <ele>436</ele>
        <time>2012-12-16T08:32:19Z</time>
      </trkpt>
      <trkpt lat="45.82863" lon="4.82421">
        <ele>436</ele>
        <time>2012-12-16T08:32:20Z</time>
      </trkpt>
      <trkpt lat="45.82859" lon="4.82428">
        <ele>436</ele>
        <time>2012-12-16T08:32:23Z</time>
      </trkpt>
      <trkpt lat="45.82854" lon="4.82438">
        <ele>436</ele>
        <time>2012-12-16T08:32:27Z</time>
      </trkpt>
      <trkpt lat="45.82852" lon="4.82441">
        <ele>436</ele>
        <time>2012-12-16T08:32:28Z</time>
      </trkpt>
      <trkpt lat="45.82845" lon="4.82452">
        <ele>435</ele>
        <time>2012-12-16T08:32:33Z</time>
      </trkpt>
      <trkpt lat="45.8284" lon="4.82459">
        <ele>435</ele>
        <time>2012-12-16T08:32:36Z</time>
      </trkpt>
      <trkpt lat="45.82836" lon="4.82465">
        <ele>435</ele>
        <time>2012-12-16T08:32:38Z</time>
      </trkpt>
      <trkpt lat="45.82828" lon="4.82481">
        <ele>436</ele>
        <time>2012-12-16T08:32:43Z</time>
      </trkpt>
      <trkpt lat="45.82821" lon="4.82499">
        <ele>435</ele>
        <time>2012-12-16T08:32:48Z</time>
      </trkpt>
      <trkpt lat="45.82819" lon="4.82504">
        <ele>432</ele>
        <time>2012-12-16T08:32:50Z</time>
      </trkpt>
      <trkpt lat="45.82817" lon="4.82509">
        <ele>431</ele>
        <time>2012-12-16T08:32:52Z</time>
      </trkpt>
      <trkpt lat="45.82807" lon="4.82527">
        <ele>429</ele>
        <time>2012-12-16T08:32:58Z</time>
      </trkpt>
      <trkpt lat="45.82802" lon="4.82535">
        <ele>428</ele>
        <time>2012-12-16T08:33:01Z</time>
      </trkpt>
      <trkpt lat="45.828" lon="4.82537">
        <ele>428</ele>
        <time>2012-12-16T08:33:02Z</time>
      </trkpt>
      <trkpt lat="45.82794" lon="4.82542">
        <ele>428</ele>
        <time>2012-12-16T08:33:05Z</time>
      </trkpt>
      <trkpt lat="45.82793" lon="4.8254">
        <ele>428</ele>
        <time>2012-12-16T08:33:07Z</time>
      </trkpt>
      <trkpt lat="45.82791" lon="4.82539">
        <ele>428</ele>
        <time>2012-12-16T08:33:13Z</time>
      </trkpt>
      <trkpt lat="45.82792" lon="4.82538">
        <ele>428</ele>
        <time>2012-12-16T08:33:17Z</time>
      </trkpt>
      <trkpt lat="45.82792" lon="4.82535">
        <ele>428</ele>
        <time>2012-12-16T08:33:27Z</time>
      </trkpt>
      <trkpt lat="45.82795" lon="4.82531">
        <ele>428</ele>
        <time>2012-12-16T08:33:51Z</time>
      </trkpt>
      <trkpt lat="45.82794" lon="4.82528">
        <ele>429</ele>
        <time>2012-12-16T08:33:52Z</time>
      </trkpt>
      <trkpt lat="45.8279" lon="4.82517">
        <ele>429</ele>
        <time>2012-12-16T08:33:56Z</time>
      </trkpt>
      <trkpt lat="45.82788" lon="4.82512">
        <ele>429</ele>
        <time>2012-12-16T08:33:58Z</time>
      </trkpt>
      <trkpt lat="45.82783" lon="4.82495">
        <ele>435</ele>
        <time>2012-12-16T08:34:05Z</time>
      </trkpt>
      <trkpt lat="45.82782" lon="4.82492">
        <ele>435</ele>
        <time>2012-12-16T08:34:06Z</time>
      </trkpt>
      <trkpt lat="45.82776" lon="4.82472">
        <ele>436</ele>
        <time>2012-12-16T08:34:13Z</time>
      </trkpt>
      <trkpt lat="45.82774" lon="4.82467">
        <ele>436</ele>
        <time>2012-12-16T08:34:15Z</time>
      </trkpt>
      <trkpt lat="45.82771" lon="4.82461">
        <ele>437</ele>
        <time>2012-12-16T08:34:18Z</time>
      </trkpt>
      <trkpt lat="45.82764" lon="4.82449">
        <ele>437</ele>
        <time>2012-12-16T08:34:24Z</time>
      </trkpt>
      <trkpt lat="45.82763" lon="4.82447">
        <ele>438</ele>
        <time>2012-12-16T08:34:25Z</time>
      </trkpt>
      <trkpt lat="45.82758" lon="4.82436">
        <ele>439</ele>
        <time>2012-12-16T08:34:30Z</time>
      </trkpt>
      <trkpt lat="45.82752" lon="4.82426">
        <ele>440</ele>
        <time>2012-12-16T08:34:35Z</time>
      </trkpt>
      <trkpt lat="45.8275" lon="4.82421">
        <ele>441</ele>
        <time>2012-12-16T08:34:37Z</time>
      </trkpt>
      <trkpt lat="45.82746" lon="4.8241">
        <ele>443</ele>
        <time>2012-12-16T08:34:42Z</time>
      </trkpt>
      <trkpt lat="45.82743" lon="4.82401">
        <ele>443</ele>
        <time>2012-12-16T08:34:46Z</time>
      </trkpt>
      <trkpt lat="45.82742" lon="4.82397">
        <ele>444</ele>
        <time>2012-12-16T08:34:48Z</time>
      </trkpt>
      <trkpt lat="45.82738" lon="4.82382">
        <ele>444</ele>
        <time>2012-12-16T08:34:55Z</time>
      </trkpt>
      <trkpt lat="45.82737" lon="4.82375">
        <ele>445</ele>
        <time>2012-12-16T08:34:58Z</time>
      </trkpt>
      <trkpt lat="45.82734" lon="4.82367">
        <ele>445</ele>
        <time>2012-12-16T08:35:01Z</time>
      </trkpt>
      <trkpt lat="45.82731" lon="4.82351">
        <ele>446</ele>
        <time>2012-12-16T08:35:08Z</time>
      </trkpt>
      <trkpt lat="45.82726" lon="4.82338">
        <ele>446</ele>
        <time>2012-12-16T08:35:14Z</time>
      </trkpt>
      <trkpt lat="45.82724" lon="4.82325">
        <ele>449</ele>
        <time>2012-12-16T08:35:19Z</time>
      </trkpt>
      <trkpt lat="45.82723" lon="4.8232">
        <ele>449</ele>
        <time>2012-12-16T08:35:21Z</time>
      </trkpt>
      <trkpt lat="45.82721" lon="4.82306">
        <ele>450</ele>
        <time>2012-12-16T08:35:27Z</time>
      </trkpt>
      <trkpt lat="45.82721" lon="4.82303">
        <ele>450</ele>
        <time>2012-12-16T08:35:36Z</time>
      </trkpt>
      <trkpt lat="45.82723" lon="4.82303">
        <ele>450</ele>
        <time>2012-12-16T08:35:45Z</time>
      </trkpt>
      <trkpt lat="45.82723" lon="4.82302">
        <ele>450</ele>
        <time>2012-12-16T08:35:46Z</time>
      </trkpt>
      <trkpt lat="45.82723" lon="4.82302">
        <ele>450</ele>
        <time>2012-12-16T08:35:50Z</time>
      </trkpt>
      <trkpt lat="45.8272" lon="4.82302">
        <ele>450</ele>
        <time>2012-12-16T08:35:53Z</time>
      </trkpt>
      <trkpt lat="45.82719" lon="4.82299">
        <ele>450</ele>
        <time>2012-12-16T08:35:54Z</time>
      </trkpt>
      <trkpt lat="45.82713" lon="4.82286">
        <ele>450</ele>
        <time>2012-12-16T08:35:59Z</time>
      </trkpt>
      <trkpt lat="45.82711" lon="4.82284">
        <ele>450</ele>
        <time>2012-12-16T08:36:00Z</time>
      </trkpt>
      <trkpt lat="45.82707" lon="4.82275">
        <ele>450</ele>
        <time>2012-12-16T08:36:03Z</time>
      </trkpt>
      <trkpt lat="45.82702" lon="4.82263">
        <ele>451</ele>
        <time>2012-12-16T08:36:07Z</time>
      </trkpt>
      <trkpt lat="45.82703" lon="4.8226">
        <ele>451</ele>
        <time>2012-12-16T08:36:08Z</time>
      </trkpt>
      <trkpt lat="45.82707" lon="4.82251">
        <ele>451</ele>
        <time>2012-12-16T08:36:12Z</time>
      </trkpt>
      <trkpt lat="45.82714" lon="4.82246">
        <ele>450</ele>
        <time>2012-12-16T08:36:15Z</time>
      </trkpt>
      <trkpt lat="45.82716" lon="4.82244">
        <ele>450</ele>
        <time>2012-12-16T08:36:16Z</time>
      </trkpt>
      <trkpt lat="45.8272" lon="4.82241">
        <ele>450</ele>
        <time>2012-12-16T08:36:18Z</time>
      </trkpt>
      <trkpt lat="45.82732" lon="4.82232">
        <ele>449</ele>
        <time>2012-12-16T08:36:23Z</time>
      </trkpt>
      <trkpt lat="45.82746" lon="4.82223">
        <ele>449</ele>
        <time>2012-12-16T08:36:28Z</time>
      </trkpt>
      <trkpt lat="45.82749" lon="4.82222">
        <ele>449</ele>
        <time>2012-12-16T08:36:29Z</time>
      </trkpt>
      <trkpt lat="45.82761" lon="4.82218">
        <ele>442</ele>
        <time>2012-12-16T08:36:33Z</time>
      </trkpt>
      <trkpt lat="45.82767" lon="4.82213">
        <ele>442</ele>
        <time>2012-12-16T08:36:36Z</time>
      </trkpt>
      <trkpt lat="45.8277" lon="4.82212">
        <ele>442</ele>
        <time>2012-12-16T08:36:37Z</time>
      </trkpt>
      <trkpt lat="45.82775" lon="4.82208">
        <ele>441</ele>
        <time>2012-12-16T08:36:40Z</time>
      </trkpt>
      <trkpt lat="45.82778" lon="4.82204">
        <ele>441</ele>
        <time>2012-12-16T08:36:42Z</time>
      </trkpt>
      <trkpt lat="45.82784" lon="4.82201">
        <ele>440</ele>
        <time>2012-12-16T08:36:44Z</time>
      </trkpt>
      <trkpt lat="45.82789" lon="4.82198">
        <ele>440</ele>
        <time>2012-12-16T08:36:46Z</time>
      </trkpt>
      <trkpt lat="45.82794" lon="4.82197">
        <ele>439</ele>
        <time>2012-12-16T08:36:48Z</time>
      </trkpt>
      <trkpt lat="45.82803" lon="4.82195">
        <ele>438</ele>
        <time>2012-12-16T08:36:51Z</time>
      </trkpt>
      <trkpt lat="45.82814" lon="4.82194">
        <ele>437</ele>
        <time>2012-12-16T08:36:56Z</time>
      </trkpt>
      <trkpt lat="45.82823" lon="4.82193">
        <ele>437</ele>
        <time>2012-12-16T08:36:59Z</time>
      </trkpt>
      <trkpt lat="45.82828" lon="4.82193">
        <ele>436</ele>
        <time>2012-12-16T08:37:01Z</time>
      </trkpt>
      <trkpt lat="45.82837" lon="4.82188">
        <ele>429</ele>
        <time>2012-12-16T08:37:05Z</time>
      </trkpt>
      <trkpt lat="45.82841" lon="4.82185">
        <ele>428</ele>
        <time>2012-12-16T08:37:07Z</time>
      </trkpt>
      <trkpt lat="45.82848" lon="4.82183">
        <ele>428</ele>
        <time>2012-12-16T08:37:10Z</time>
      </trkpt>
      <trkpt lat="45.82848" lon="4.82181">
        <ele>428</ele>
        <time>2012-12-16T08:37:15Z</time>
      </trkpt>
      <trkpt lat="45.82845" lon="4.8218">
        <ele>428</ele>
        <time>2012-12-16T08:37:34Z</time>
      </trkpt>
      <trkpt lat="45.82845" lon="4.82178">
        <ele>428</ele>
        <time>2012-12-16T08:37:36Z</time>
      </trkpt>
      <trkpt lat="45.82845" lon="4.82174">
        <ele>428</ele>
        <time>2012-12-16T08:37:38Z</time>
      </trkpt>
      <trkpt lat="45.82843" lon="4.82166">
        <ele>425</ele>
        <time>2012-12-16T08:37:42Z</time>
      </trkpt>
      <trkpt lat="45.82842" lon="4.82164">
        <ele>425</ele>
        <time>2012-12-16T08:37:43Z</time>
      </trkpt>
      <trkpt lat="45.82842" lon="4.82161">
        <ele>424</ele>
        <time>2012-12-16T08:37:44Z</time>
      </trkpt>
      <trkpt lat="45.82842" lon="4.82146">
        <ele>421</ele>
        <time>2012-12-16T08:37:49Z</time>
      </trkpt>
      <trkpt lat="45.82842" lon="4.8214">
        <ele>420</ele>
        <time>2012-12-16T08:37:51Z</time>
      </trkpt>
      <trkpt lat="45.82846" lon="4.82134">
        <ele>419</ele>
        <time>2012-12-16T08:37:54Z</time>
      </trkpt>
      <trkpt lat="45.82848" lon="4.82133">
        <ele>418</ele>
        <time>2012-12-16T08:37:57Z</time>
      </trkpt>
      <trkpt lat="45.82852" lon="4.82132">
        <ele>418</ele>
        <time>2012-12-16T08:37:59Z</time>
      </trkpt>
      <trkpt lat="45.82858" lon="4.82129">
        <ele>417</ele>
        <time>2012-12-16T08:38:03Z</time>
      </trkpt>
      <trkpt lat="45.82861" lon="4.82126">
        <ele>417</ele>
        <time>2012-12-16T08:38:05Z</time>
      </trkpt>
      <trkpt lat="45.82864" lon="4.82124">
        <ele>416</ele>
        <time>2012-12-16T08:38:07Z</time>
      </trkpt>
      <trkpt lat="45.82867" lon="4.82123">
        <ele>416</ele>
        <time>2012-12-16T08:38:09Z</time>
      </trkpt>
      <trkpt lat="45.82876" lon="4.82121">
        <ele>415</ele>
        <time>2012-12-16T08:38:14Z</time>
      </trkpt>
      <trkpt lat="45.82884" lon="4.82118">
        <ele>414</ele>
        <time>2012-12-16T08:38:18Z</time>
      </trkpt>
      <trkpt lat="45.82885" lon="4.82118">
        <ele>414</ele>
        <time>2012-12-16T08:38:19Z</time>
      </trkpt>
      <trkpt lat="45.82888" lon="4.82118">
        <ele>413</ele>
        <time>2012-12-16T08:38:22Z</time>
      </trkpt>
      <trkpt lat="45.82893" lon="4.82113">
        <ele>413</ele>
        <time>2012-12-16T08:38:27Z</time>
      </trkpt>
      <trkpt lat="45.82895" lon="4.82112">
        <ele>412</ele>
        <time>2012-12-16T08:38:28Z</time>
      </trkpt>
      <trkpt lat="45.82896" lon="4.82111">
        <ele>412</ele>
        <time>2012-12-16T08:38:29Z</time>
      </trkpt>
      <trkpt lat="45.82898" lon="4.82109">
        <ele>412</ele>
        <time>2012-12-16T08:38:33Z</time>
      </trkpt>
      <trkpt lat="45.829" lon="4.82106">
        <ele>411</ele>
        <time>2012-12-16T08:38:38Z</time>
      </trkpt>
      <trkpt lat="45.82903" lon="4.821">
        <ele>410</ele>
        <time>2012-12-16T08:38:46Z</time>
      </trkpt>
      <trkpt lat="45.82906" lon="4.82095">
        <ele>408</ele>
        <time>2012-12-16T08:38:52Z</time>
      </trkpt>
      <trkpt lat="45.82907" lon="4.82093">
        <ele>408</ele>
        <time>2012-12-16T08:38:54Z</time>
      </trkpt>
      <trkpt lat="45.82907" lon="4.8209">
        <ele>407</ele>
        <time>2012-12-16T08:39:00Z</time>
      </trkpt>
      <trkpt lat="45.82905" lon="4.82083">
        <ele>404</ele>
        <time>2012-12-16T08:39:07Z</time>
      </trkpt>
      <trkpt lat="45.82906" lon="4.82078">
        <ele>404</ele>
        <time>2012-12-16T08:39:15Z</time>
      </trkpt>
      <trkpt lat="45.82911" lon="4.82074">
        <ele>404</ele>
        <time>2012-12-16T08:39:20Z</time>
      </trkpt>
      <trkpt lat="45.82914" lon="4.8207">
        <ele>405</ele>
        <time>2012-12-16T08:39:24Z</time>
      </trkpt>
      <trkpt lat="45.82917" lon="4.82065">
        <ele>398</ele>
        <time>2012-12-16T08:39:27Z</time>
      </trkpt>
      <trkpt lat="45.82921" lon="4.82062">
        <ele>398</ele>
        <time>2012-12-16T08:39:30Z</time>
      </trkpt>
      <trkpt lat="45.82924" lon="4.82059">
        <ele>398</ele>
        <time>2012-12-16T08:39:32Z</time>
      </trkpt>
      <trkpt lat="45.82929" lon="4.82054">
        <ele>397</ele>
        <time>2012-12-16T08:39:36Z</time>
      </trkpt>
      <trkpt lat="45.82934" lon="4.82053">
        <ele>397</ele>
        <time>2012-12-16T08:39:38Z</time>
      </trkpt>
      <trkpt lat="45.82941" lon="4.82048">
        <ele>396</ele>
        <time>2012-12-16T08:39:42Z</time>
      </trkpt>
      <trkpt lat="45.82945" lon="4.82044">
        <ele>396</ele>
        <time>2012-12-16T08:39:45Z</time>
      </trkpt>
      <trkpt lat="45.82947" lon="4.82043">
        <ele>396</ele>
        <time>2012-12-16T08:39:46Z</time>
      </trkpt>
      <trkpt lat="45.82949" lon="4.82042">
        <ele>395</ele>
        <time>2012-12-16T08:39:47Z</time>
      </trkpt>
      <trkpt lat="45.82953" lon="4.82038">
        <ele>395</ele>
        <time>2012-12-16T08:39:50Z</time>
      </trkpt>
      <trkpt lat="45.82963" lon="4.82029">
        <ele>394</ele>
        <time>2012-12-16T08:39:56Z</time>
      </trkpt>
      <trkpt lat="45.8298" lon="4.82026">
        <ele>393</ele>
        <time>2012-12-16T08:40:03Z</time>
      </trkpt>
      <trkpt lat="45.82983" lon="4.82026">
        <ele>393</ele>
        <time>2012-12-16T08:40:04Z</time>
      </trkpt>
      <trkpt lat="45.82986" lon="4.82024">
        <ele>392</ele>
        <time>2012-12-16T08:40:06Z</time>
      </trkpt>
      <trkpt lat="45.82988" lon="4.82024">
        <ele>392</ele>
        <time>2012-12-16T08:40:07Z</time>
      </trkpt>
      <trkpt lat="45.8299" lon="4.82022">
        <ele>392</ele>
        <time>2012-12-16T08:40:09Z</time>
      </trkpt>
      <trkpt lat="45.82991" lon="4.82021">
        <ele>392</ele>
        <time>2012-12-16T08:40:11Z</time>
      </trkpt>
      <trkpt lat="45.82993" lon="4.82021">
        <ele>392</ele>
        <time>2012-12-16T08:40:12Z</time>
      </trkpt>
      <trkpt lat="45.82996" lon="4.82024">
        <ele>392</ele>
        <time>2012-12-16T08:40:18Z</time>
      </trkpt>
      <trkpt lat="45.82998" lon="4.82024">
        <ele>392</ele>
        <time>2012-12-16T08:40:45Z</time>
      </trkpt>
      <trkpt lat="45.82995" lon="4.82023">
        <ele>392</ele>
        <time>2012-12-16T08:40:52Z</time>
      </trkpt>
      <trkpt lat="45.82994" lon="4.82019">
        <ele>392</ele>
        <time>2012-12-16T08:40:53Z</time>
      </trkpt>
      <trkpt lat="45.82988" lon="4.82008">
        <ele>391</ele>
        <time>2012-12-16T08:40:57Z</time>
      </trkpt>
      <trkpt lat="45.82983" lon="4.82003">
        <ele>391</ele>
        <time>2012-12-16T08:40:59Z</time>
      </trkpt>
      <trkpt lat="45.82976" lon="4.81997">
        <ele>392</ele>
        <time>2012-12-16T08:41:02Z</time>
      </trkpt>
      <trkpt lat="45.8297" lon="4.81995">
        <ele>393</ele>
        <time>2012-12-16T08:41:04Z</time>
      </trkpt>
      <trkpt lat="45.82964" lon="4.81992">
        <ele>394</ele>
        <time>2012-12-16T08:41:07Z</time>
      </trkpt>
      <trkpt lat="45.82963" lon="4.81991">
        <ele>394</ele>
        <time>2012-12-16T08:41:08Z</time>
      </trkpt>
      <trkpt lat="45.82959" lon="4.81987">
        <ele>394</ele>
        <time>2012-12-16T08:41:11Z</time>
      </trkpt>
      <trkpt lat="45.82957" lon="4.81982">
        <ele>394</ele>
        <time>2012-12-16T08:41:13Z</time>
      </trkpt>
      <trkpt lat="45.82956" lon="4.8198">
        <ele>395</ele>
        <time>2012-12-16T08:41:14Z</time>
      </trkpt>
      <trkpt lat="45.82953" lon="4.81975">
        <ele>395</ele>
        <time>2012-12-16T08:41:16Z</time>
      </trkpt>
      <trkpt lat="45.82952" lon="4.81966">
        <ele>395</ele>
        <time>2012-12-16T08:41:23Z</time>
      </trkpt>
      <trkpt lat="45.82947" lon="4.81956">
        <ele>396</ele>
        <time>2012-12-16T08:41:29Z</time>
      </trkpt>
      <trkpt lat="45.82942" lon="4.81951">
        <ele>396</ele>
        <time>2012-12-16T08:41:35Z</time>
      </trkpt>
      <trkpt lat="45.82939" lon="4.81943">
        <ele>397</ele>
        <time>2012-12-16T08:41:40Z</time>
      </trkpt>
      <trkpt lat="45.82939" lon="4.81942">
        <ele>397</ele>
        <time>2012-12-16T08:41:41Z</time>
      </trkpt>
      <trkpt lat="45.8294" lon="4.81939">
        <ele>397</ele>
        <time>2012-12-16T08:41:44Z</time>
      </trkpt>
      <trkpt lat="45.82937" lon="4.81934">
        <ele>398</ele>
        <time>2012-12-16T08:41:48Z</time>
      </trkpt>
      <trkpt lat="45.82936" lon="4.81934">
        <ele>398</ele>
        <time>2012-12-16T08:41:49Z</time>
      </trkpt>
      <trkpt lat="45.82935" lon="4.81932">
        <ele>398</ele>
        <time>2012-12-16T08:41:50Z</time>
      </trkpt>
      <trkpt lat="45.82931" lon="4.81928">
        <ele>399</ele>
        <time>2012-12-16T08:41:55Z</time>
      </trkpt>
      <trkpt lat="45.82926" lon="4.81925">
        <ele>401</ele>
        <time>2012-12-16T08:42:00Z</time>
      </trkpt>
      <trkpt lat="45.82923" lon="4.81923">
        <ele>402</ele>
        <time>2012-12-16T08:42:03Z</time>
      </trkpt>
      <trkpt lat="45.82922" lon="4.81922">
        <ele>402</ele>
        <time>2012-12-16T08:42:05Z</time>
      </trkpt>
      <trkpt lat="45.8292" lon="4.81921">
        <ele>403</ele>
        <time>2012-12-16T08:42:07Z</time>
      </trkpt>
      <trkpt lat="45.82919" lon="4.8192">
        <ele>403</ele>
        <time>2012-12-16T08:42:08Z</time>
      </trkpt>
      <trkpt lat="45.82916" lon="4.81918">
        <ele>405</ele>
        <time>2012-12-16T08:42:13Z</time>
      </trkpt>
      <trkpt lat="45.82912" lon="4.81914">
        <ele>407</ele>
        <time>2012-12-16T08:42:18Z</time>
      </trkpt>
      <trkpt lat="45.82907" lon="4.81905">
        <ele>410</ele>
        <time>2012-12-16T08:42:23Z</time>
      </trkpt>
      <trkpt lat="45.82906" lon="4.81904">
        <ele>411</ele>
        <time>2012-12-16T08:42:24Z</time>
      </trkpt>
      <trkpt lat="45.82905" lon="4.81903">
        <ele>411</ele>
        <time>2012-12-16T08:42:25Z</time>
      </trkpt>
      <trkpt lat="45.82898" lon="4.81895">
        <ele>413</ele>
        <time>2012-12-16T08:42:34Z</time>
      </trkpt>
      <trkpt lat="45.82893" lon="4.81892">
        <ele>414</ele>
        <time>2012-12-16T08:42:40Z</time>
      </trkpt>
      <trkpt lat="45.82891" lon="4.81892">
        <ele>414</ele>
        <time>2012-12-16T08:42:45Z</time>
      </trkpt>
      <trkpt lat="45.82889" lon="4.81892">
        <ele>414</ele>
        <time>2012-12-16T08:42:47Z</time>
      </trkpt>
      <trkpt lat="45.82886" lon="4.81891">
        <ele>415</ele>
        <time>2012-12-16T08:42:50Z</time>
      </trkpt>
      <trkpt lat="45.82882" lon="4.81888">
        <ele>415</ele>
        <time>2012-12-16T08:42:54Z</time>
      </trkpt>
      <trkpt lat="45.82877" lon="4.81881">
        <ele>416</ele>
        <time>2012-12-16T08:43:01Z</time>
      </trkpt>
      <trkpt lat="45.82877" lon="4.81877">
        <ele>416</ele>
        <time>2012-12-16T08:43:03Z</time>
      </trkpt>
      <trkpt lat="45.82876" lon="4.81872">
        <ele>416</ele>
        <time>2012-12-16T08:43:07Z</time>
      </trkpt>
      <trkpt lat="45.82874" lon="4.81867">
        <ele>417</ele>
        <time>2012-12-16T08:43:12Z</time>
      </trkpt>
      <trkpt lat="45.82873" lon="4.81865">
        <ele>417</ele>
        <time>2012-12-16T08:43:15Z</time>
      </trkpt>
      <trkpt lat="45.82873" lon="4.81862">
        <ele>417</ele>
        <time>2012-12-16T08:43:17Z</time>
      </trkpt>
      <trkpt lat="45.82872" lon="4.81861">
        <ele>417</ele>
        <time>2012-12-16T08:43:19Z</time>
      </trkpt>
      <trkpt lat="45.82872" lon="4.81859">
        <ele>417</ele>
        <time>2012-12-16T08:43:21Z</time>
      </trkpt>
      <trkpt lat="45.82869" lon="4.81855">
        <ele>418</ele>
        <time>2012-12-16T08:43:25Z</time>
      </trkpt>
      <trkpt lat="45.82869" lon="4.81855">
        <ele>418</ele>
        <time>2012-12-16T08:43:26Z</time>
      </trkpt>
      <trkpt lat="45.82868" lon="4.81855">
        <ele>418</ele>
        <time>2012-12-16T08:43:27Z</time>
      </trkpt>
      <trkpt lat="45.82864" lon="4.81855">
        <ele>418</ele>
        <time>2012-12-16T08:43:32Z</time>
      </trkpt>
      <trkpt lat="45.82862" lon="4.81853">
        <ele>419</ele>
        <time>2012-12-16T08:43:34Z</time>
      </trkpt>
      <trkpt lat="45.82861" lon="4.8185">
        <ele>419</ele>
        <time>2012-12-16T08:43:40Z</time>
      </trkpt>
      <trkpt lat="45.82855" lon="4.81849">
        <ele>420</ele>
        <time>2012-12-16T08:43:45Z</time>
      </trkpt>
      <trkpt lat="45.82853" lon="4.8185">
        <ele>420</ele>
        <time>2012-12-16T08:43:47Z</time>
      </trkpt>
      <trkpt lat="45.82851" lon="4.81851">
        <ele>420</ele>
        <time>2012-12-16T08:43:49Z</time>
      </trkpt>
      <trkpt lat="45.82847" lon="4.81854">
        <ele>421</ele>
        <time>2012-12-16T08:43:54Z</time>
      </trkpt>
      <trkpt lat="45.82846" lon="4.81853">
        <ele>421</ele>
        <time>2012-12-16T08:43:56Z</time>
      </trkpt>
      <trkpt lat="45.82844" lon="4.81855">
        <ele>421</ele>
        <time>2012-12-16T08:43:59Z</time>
      </trkpt>
      <trkpt lat="45.82841" lon="4.81853">
        <ele>421</ele>
        <time>2012-12-16T08:44:02Z</time>
      </trkpt>
      <trkpt lat="45.82838" lon="4.81853">
        <ele>422</ele>
        <time>2012-12-16T08:44:05Z</time>
      </trkpt>
      <trkpt lat="45.82837" lon="4.81854">
        <ele>422</ele>
        <time>2012-12-16T08:44:07Z</time>
      </trkpt>
      <trkpt lat="45.82836" lon="4.81855">
        <ele>421</ele>
        <time>2012-12-16T08:44:10Z</time>
      </trkpt>
      <trkpt lat="45.82832" lon="4.81857">
        <ele>430</ele>
        <time>2012-12-16T08:44:13Z</time>
      </trkpt>
      <trkpt lat="45.82829" lon="4.81858">
        <ele>430</ele>
        <time>2012-12-16T08:44:16Z</time>
      </trkpt>
      <trkpt lat="45.82828" lon="4.81858">
        <ele>430</ele>
        <time>2012-12-16T08:44:20Z</time>
      </trkpt>
      <trkpt lat="45.82823" lon="4.81865">
        <ele>430</ele>
        <time>2012-12-16T08:44:53Z</time>
      </trkpt>
      <trkpt lat="45.82823" lon="4.81866">
        <ele>430</ele>
        <time>2012-12-16T08:44:54Z</time>
      </trkpt>
      <trkpt lat="45.8282" lon="4.81874">
        <ele>431</ele>
        <time>2012-12-16T08:45:00Z</time>
      </trkpt>
      <trkpt lat="45.82818" lon="4.81879">
        <ele>431</ele>
        <time>2012-12-16T08:45:02Z</time>
      </trkpt>
      <trkpt lat="45.82816" lon="4.81881">
        <ele>431</ele>
        <time>2012-12-16T08:45:04Z</time>
      </trkpt>
      <trkpt lat="45.82814" lon="4.81883">
        <ele>431</ele>
        <time>2012-12-16T08:45:09Z</time>
      </trkpt>
      <trkpt lat="45.82813" lon="4.81884">
        <ele>431</ele>
        <time>2012-12-16T08:45:11Z</time>
      </trkpt>
      <trkpt lat="45.8281" lon="4.81885">
        <ele>431</ele>
        <time>2012-12-16T08:45:13Z</time>
      </trkpt>
      <trkpt lat="45.82805" lon="4.8189">
        <ele>431</ele>
        <time>2012-12-16T08:45:18Z</time>
      </trkpt>
      <trkpt lat="45.82802" lon="4.81893">
        <ele>432</ele>
        <time>2012-12-16T08:45:20Z</time>
      </trkpt>
      <trkpt lat="45.82801" lon="4.81895">
        <ele>432</ele>
        <time>2012-12-16T08:45:22Z</time>
      </trkpt>
      <trkpt lat="45.828" lon="4.81896">
        <ele>432</ele>
        <time>2012-12-16T08:45:24Z</time>
      </trkpt>
      <trkpt lat="45.82798" lon="4.81897">
        <ele>432</ele>
        <time>2012-12-16T08:45:26Z</time>
      </trkpt>
      <trkpt lat="45.82796" lon="4.81898">
        <ele>432</ele>
        <time>2012-12-16T08:45:29Z</time>
      </trkpt>
      <trkpt lat="45.82794" lon="4.819">
        <ele>432</ele>
        <time>2012-12-16T08:45:31Z</time>
      </trkpt>
      <trkpt lat="45.82791" lon="4.81905">
        <ele>433</ele>
        <time>2012-12-16T08:45:35Z</time>
      </trkpt>
      <trkpt lat="45.82787" lon="4.8191">
        <ele>433</ele>
        <time>2012-12-16T08:45:39Z</time>
      </trkpt>
      <trkpt lat="45.82785" lon="4.81911">
        <ele>434</ele>
        <time>2012-12-16T08:45:41Z</time>
      </trkpt>
      <trkpt lat="45.82781" lon="4.81912">
        <ele>434</ele>
        <time>2012-12-16T08:45:45Z</time>
      </trkpt>
      <trkpt lat="45.8278" lon="4.81913">
        <ele>434</ele>
        <time>2012-12-16T08:45:46Z</time>
      </trkpt>
      <trkpt lat="45.8278" lon="4.81913">
        <ele>434</ele>
        <time>2012-12-16T08:45:47Z</time>
      </trkpt>
      <trkpt lat="45.82773" lon="4.81915">
        <ele>436</ele>
        <time>2012-12-16T08:45:54Z</time>
      </trkpt>
      <trkpt lat="45.82772" lon="4.81915">
        <ele>436</ele>
        <time>2012-12-16T08:45:55Z</time>
      </trkpt>
      <trkpt lat="45.82769" lon="4.81911">
        <ele>436</ele>
        <time>2012-12-16T08:45:59Z</time>
      </trkpt>
      <trkpt lat="45.82768" lon="4.81908">
        <ele>436</ele>
        <time>2012-12-16T08:46:01Z</time>
      </trkpt>
      <trkpt lat="45.82767" lon="4.81904">
        <ele>436</ele>
        <time>2012-12-16T08:46:04Z</time>
      </trkpt>
      <trkpt lat="45.82767" lon="4.81903">
        <ele>436</ele>
        <time>2012-12-16T08:46:06Z</time>
      </trkpt>
      <trkpt lat="45.82766" lon="4.81902">
        <ele>436</ele>
        <time>2012-12-16T08:46:07Z</time>
      </trkpt>
      <trkpt lat="45.82764" lon="4.81894">
        <ele>436</ele>
        <time>2012-12-16T08:46:12Z</time>
      </trkpt>
      <trkpt lat="45.82762" lon="4.8189">
        <ele>436</ele>
        <time>2012-12-16T08:46:15Z</time>
      </trkpt>
      <trkpt lat="45.8276" lon="4.8189">
        <ele>436</ele>
        <time>2012-12-16T08:46:18Z</time>
      </trkpt>
      <trkpt lat="45.82759" lon="4.8189">
        <ele>436</ele>
        <time>2012-12-16T08:46:19Z</time>
      </trkpt>
      <trkpt lat="45.82755" lon="4.81891">
        <ele>436</ele>
        <time>2012-12-16T08:46:23Z</time>
      </trkpt>
      <trkpt lat="45.8275" lon="4.81887">
        <ele>444</ele>
        <time>2012-12-16T08:46:30Z</time>
      </trkpt>
      <trkpt lat="45.82749" lon="4.81884">
        <ele>444</ele>
        <time>2012-12-16T08:46:36Z</time>
      </trkpt>
      <trkpt lat="45.82748" lon="4.81888">
        <ele>444</ele>
        <time>2012-12-16T08:46:48Z</time>
      </trkpt>
      <trkpt lat="45.82748" lon="4.81884">
        <ele>444</ele>
        <time>2012-12-16T08:47:00Z</time>
      </trkpt>
      <trkpt lat="45.82745" lon="4.81886">
        <ele>444</ele>
        <time>2012-12-16T08:47:20Z</time>
      </trkpt>
      <trkpt lat="45.82743" lon="4.81886">
        <ele>444</ele>
        <time>2012-12-16T08:47:27Z</time>
      </trkpt>
      <trkpt lat="45.82742" lon="4.81884">
        <ele>444</ele>
        <time>2012-12-16T08:47:30Z</time>
      </trkpt>
      <trkpt lat="45.82739" lon="4.81881">
        <ele>444</ele>
        <time>2012-12-16T08:47:34Z</time>
      </trkpt>
      <trkpt lat="45.82738" lon="4.8188">
        <ele>444</ele>
        <time>2012-12-16T08:47:35Z</time>
      </trkpt>
      <trkpt lat="45.82733" lon="4.81874">
        <ele>445</ele>
        <time>2012-12-16T08:47:41Z</time>
      </trkpt>
      <trkpt lat="45.82729" lon="4.81868">
        <ele>445</ele>
        <time>2012-12-16T08:47:45Z</time>
      </trkpt>
      <trkpt lat="45.82726" lon="4.81863">
        <ele>445</ele>
        <time>2012-12-16T08:47:47Z</time>
      </trkpt>
      <trkpt lat="45.82716" lon="4.81852">
        <ele>445</ele>
        <time>2012-12-16T08:47:53Z</time>
      </trkpt>
      <trkpt lat="45.82714" lon="4.8185">
        <ele>445</ele>
        <time>2012-12-16T08:47:54Z</time>
      </trkpt>
      <trkpt lat="45.82706" lon="4.81842">
        <ele>446</ele>
        <time>2012-12-16T08:47:59Z</time>
      </trkpt>
      <trkpt lat="45.82698" lon="4.81835">
        <ele>447</ele>
        <time>2012-12-16T08:48:04Z</time>
      </trkpt>
      <trkpt lat="45.82694" lon="4.81833">
        <ele>446</ele>
        <time>2012-12-16T08:48:06Z</time>
      </trkpt>
      <trkpt lat="45.8269" lon="4.81829">
        <ele>446</ele>
        <time>2012-12-16T08:48:09Z</time>
      </trkpt>
      <trkpt lat="45.82685" lon="4.81825">
        <ele>447</ele>
        <time>2012-12-16T08:48:12Z</time>
      </trkpt>
      <trkpt lat="45.82682" lon="4.81823">
        <ele>447</ele>
        <time>2012-12-16T08:48:14Z</time>
      </trkpt>
      <trkpt lat="45.82679" lon="4.81821">
        <ele>447</ele>
        <time>2012-12-16T08:48:18Z</time>
      </trkpt>
      <trkpt lat="45.82676" lon="4.81821">
        <ele>448</ele>
        <time>2012-12-16T08:48:26Z</time>
      </trkpt>
      <trkpt lat="45.82674" lon="4.81825">
        <ele>448</ele>
        <time>2012-12-16T08:48:31Z</time>
      </trkpt>
      <trkpt lat="45.82671" lon="4.81836">
        <ele>450</ele>
        <time>2012-12-16T08:48:39Z</time>
      </trkpt>
      <trkpt lat="45.8267" lon="4.81841">
        <ele>450</ele>
        <time>2012-12-16T08:48:43Z</time>
      </trkpt>
      <trkpt lat="45.82668" lon="4.81849">
        <ele>449</ele>
        <time>2012-12-16T08:48:46Z</time>
      </trkpt>
      <trkpt lat="45.82664" lon="4.81862">
        <ele>453</ele>
        <time>2012-12-16T08:48:51Z</time>
      </trkpt>
      <trkpt lat="45.82661" lon="4.8187">
        <ele>453</ele>
        <time>2012-12-16T08:48:56Z</time>
      </trkpt>
      <trkpt lat="45.82661" lon="4.8187">
        <ele>453</ele>
        <time>2012-12-16T08:49:05Z</time>
      </trkpt>
      <trkpt lat="45.82659" lon="4.81874">
        <ele>453</ele>
        <time>2012-12-16T08:49:23Z</time>
      </trkpt>
      <trkpt lat="45.82658" lon="4.81877">
        <ele>453</ele>
        <time>2012-12-16T08:49:28Z</time>
      </trkpt>
      <trkpt lat="45.82657" lon="4.81886">
        <ele>454</ele>
        <time>2012-12-16T08:49:31Z</time>
      </trkpt>
      <trkpt lat="45.82655" lon="4.81895">
        <ele>454</ele>
        <time>2012-12-16T08:49:33Z</time>
      </trkpt>
      <trkpt lat="45.82651" lon="4.81914">
        <ele>454</ele>
        <time>2012-12-16T08:49:37Z</time>
      </trkpt>
      <trkpt lat="45.82649" lon="4.81924">
        <ele>455</ele>
        <time>2012-12-16T08:49:39Z</time>
      </trkpt>
      <trkpt lat="45.82643" lon="4.81942">
        <ele>455</ele>
        <time>2012-12-16T08:49:43Z</time>
      </trkpt>
      <trkpt lat="45.82637" lon="4.81963">
        <ele>455</ele>
        <time>2012-12-16T08:49:48Z</time>
      </trkpt>
      <trkpt lat="45.82636" lon="4.81967">
        <ele>455</ele>
        <time>2012-12-16T08:49:49Z</time>
      </trkpt>
      <trkpt lat="45.82633" lon="4.81983">
        <ele>455</ele>
        <time>2012-12-16T08:49:53Z</time>
      </trkpt>
      <trkpt lat="45.8263" lon="4.81995">
        <ele>455</ele>
        <time>2012-12-16T08:49:56Z</time>
      </trkpt>
      <trkpt lat="45.82629" lon="4.82002">
        <ele>455</ele>
        <time>2012-12-16T08:49:58Z</time>
      </trkpt>
      <trkpt lat="45.82625" lon="4.82022">
        <ele>455</ele>
        <time>2012-12-16T08:50:03Z</time>
      </trkpt>
      <trkpt lat="45.82622" lon="4.82049">
        <ele>455</ele>
        <time>2012-12-16T08:50:10Z</time>
      </trkpt>
      <trkpt lat="45.82623" lon="4.82064">
        <ele>455</ele>
        <time>2012-12-16T08:50:14Z</time>
      </trkpt>
      <trkpt lat="45.82623" lon="4.82075">
        <ele>455</ele>
        <time>2012-12-16T08:50:17Z</time>
      </trkpt>
      <trkpt lat="45.82623" lon="4.82079">
        <ele>455</ele>
        <time>2012-12-16T08:50:18Z</time>
      </trkpt>
      <trkpt lat="45.82628" lon="4.82099">
        <ele>454</ele>
        <time>2012-12-16T08:50:24Z</time>
      </trkpt>
      <trkpt lat="45.82629" lon="4.82102">
        <ele>454</ele>
        <time>2012-12-16T08:50:25Z</time>
      </trkpt>
      <trkpt lat="45.82632" lon="4.82111">
        <ele>454</ele>
        <time>2012-12-16T08:50:28Z</time>
      </trkpt>
      <trkpt lat="45.82636" lon="4.82129">
        <ele>455</ele>
        <time>2012-12-16T08:50:33Z</time>
      </trkpt>
      <trkpt lat="45.82637" lon="4.82133">
        <ele>455</ele>
        <time>2012-12-16T08:50:34Z</time>
      </trkpt>
      <trkpt lat="45.82643" lon="4.82152">
        <ele>455</ele>
        <time>2012-12-16T08:50:39Z</time>
      </trkpt>
      <trkpt lat="45.82644" lon="4.82155">
        <ele>455</ele>
        <time>2012-12-16T08:50:40Z</time>
      </trkpt>
      <trkpt lat="45.82651" lon="4.82171">
        <ele>455</ele>
        <time>2012-12-16T08:50:45Z</time>
      </trkpt>
      <trkpt lat="45.82654" lon="4.82179">
        <ele>455</ele>
        <time>2012-12-16T08:50:48Z</time>
      </trkpt>
      <trkpt lat="45.82655" lon="4.82185">
        <ele>455</ele>
        <time>2012-12-16T08:50:50Z</time>
      </trkpt>
      <trkpt lat="45.82656" lon="4.82185">
        <ele>455</ele>
        <time>2012-12-16T08:50:51Z</time>
      </trkpt>
      <trkpt lat="45.82659" lon="4.82189">
        <ele>455</ele>
        <time>2012-12-16T08:50:54Z</time>
      </trkpt>
      <trkpt lat="45.8266" lon="4.8219">
        <ele>456</ele>
        <time>2012-12-16T08:50:55Z</time>
      </trkpt>
      <trkpt lat="45.8266" lon="4.82192">
        <ele>456</ele>
        <time>2012-12-16T08:51:01Z</time>
      </trkpt>
      <trkpt lat="45.8266" lon="4.82195">
        <ele>456</ele>
        <time>2012-12-16T08:51:13Z</time>
      </trkpt>
      <trkpt lat="45.82659" lon="4.82197">
        <ele>456</ele>
        <time>2012-12-16T08:51:19Z</time>
      </trkpt>
      <trkpt lat="45.82656" lon="4.822">
        <ele>456</ele>
        <time>2012-12-16T08:51:26Z</time>
      </trkpt>
      <trkpt lat="45.82655" lon="4.822">
        <ele>456</ele>
        <time>2012-12-16T08:51:27Z</time>
      </trkpt>
      <trkpt lat="45.8265" lon="4.82201">
        <ele>456</ele>
        <time>2012-12-16T08:51:34Z</time>
      </trkpt>
      <trkpt lat="45.82639" lon="4.82204">
        <ele>457</ele>
        <time>2012-12-16T08:51:41Z</time>
      </trkpt>
      <trkpt lat="45.82636" lon="4.82205">
        <ele>457</ele>
        <time>2012-12-16T08:51:42Z</time>
      </trkpt>
      <trkpt lat="45.82629" lon="4.82207">
        <ele>457</ele>
        <time>2012-12-16T08:51:46Z</time>
      </trkpt>
      <trkpt lat="45.82617" lon="4.82212">
        <ele>458</ele>
        <time>2012-12-16T08:51:51Z</time>
      </trkpt>
      <trkpt lat="45.82615" lon="4.82213">
        <ele>458</ele>
        <time>2012-12-16T08:51:52Z</time>
      </trkpt>
      <trkpt lat="45.82604" lon="4.82215">
        <ele>458</ele>
        <time>2012-12-16T08:51:57Z</time>
      </trkpt>
      <trkpt lat="45.82599" lon="4.82216">
        <ele>458</ele>
        <time>2012-12-16T08:51:59Z</time>
      </trkpt>
      <trkpt lat="45.82592" lon="4.8222">
        <ele>458</ele>
        <time>2012-12-16T08:52:02Z</time>
      </trkpt>
      <trkpt lat="45.82582" lon="4.8223">
        <ele>461</ele>
        <time>2012-12-16T08:52:06Z</time>
      </trkpt>
      <trkpt lat="45.82566" lon="4.82232">
        <ele>462</ele>
        <time>2012-12-16T08:52:12Z</time>
      </trkpt>
      <trkpt lat="45.82563" lon="4.82232">
        <ele>462</ele>
        <time>2012-12-16T08:52:13Z</time>
      </trkpt>
      <trkpt lat="45.82556" lon="4.8223">
        <ele>462</ele>
        <time>2012-12-16T08:52:16Z</time>
      </trkpt>
      <trkpt lat="45.82544" lon="4.82228">
        <ele>462</ele>
        <time>2012-12-16T08:52:21Z</time>
      </trkpt>
      <trkpt lat="45.82537" lon="4.82229">
        <ele>463</ele>
        <time>2012-12-16T08:52:24Z</time>
      </trkpt>
      <trkpt lat="45.82532" lon="4.82228">
        <ele>463</ele>
        <time>2012-12-16T08:52:26Z</time>
      </trkpt>
      <trkpt lat="45.82524" lon="4.82227">
        <ele>463</ele>
        <time>2012-12-16T08:52:30Z</time>
      </trkpt>
      <trkpt lat="45.8252" lon="4.82226">
        <ele>463</ele>
        <time>2012-12-16T08:52:32Z</time>
      </trkpt>
      <trkpt lat="45.82517" lon="4.82228">
        <ele>463</ele>
        <time>2012-12-16T08:52:34Z</time>
      </trkpt>
      <trkpt lat="45.82515" lon="4.82234">
        <ele>463</ele>
        <time>2012-12-16T08:52:36Z</time>
      </trkpt>
      <trkpt lat="45.82512" lon="4.82246">
        <ele>463</ele>
        <time>2012-12-16T08:52:39Z</time>
      </trkpt>
      <trkpt lat="45.82509" lon="4.82256">
        <ele>461</ele>
        <time>2012-12-16T08:52:42Z</time>
      </trkpt>
      <trkpt lat="45.825" lon="4.82266">
        <ele>458</ele>
        <time>2012-12-16T08:52:46Z</time>
      </trkpt>
      <trkpt lat="45.82489" lon="4.82276">
        <ele>456</ele>
        <time>2012-12-16T08:52:51Z</time>
      </trkpt>
      <trkpt lat="45.82484" lon="4.82282">
        <ele>455</ele>
        <time>2012-12-16T08:52:54Z</time>
      </trkpt>
      <trkpt lat="45.82482" lon="4.82288">
        <ele>454</ele>
        <time>2012-12-16T08:52:56Z</time>
      </trkpt>
      <trkpt lat="45.82482" lon="4.82291">
        <ele>454</ele>
        <time>2012-12-16T08:52:57Z</time>
      </trkpt>
      <trkpt lat="45.82484" lon="4.823">
        <ele>453</ele>
        <time>2012-12-16T08:53:00Z</time>
      </trkpt>
      <trkpt lat="45.82487" lon="4.82305">
        <ele>453</ele>
        <time>2012-12-16T08:53:02Z</time>
      </trkpt>
      <trkpt lat="45.82491" lon="4.82314">
        <ele>452</ele>
        <time>2012-12-16T08:53:05Z</time>
      </trkpt>
      <trkpt lat="45.82499" lon="4.82327">
        <ele>451</ele>
        <time>2012-12-16T08:53:10Z</time>
      </trkpt>
      <trkpt lat="45.82501" lon="4.82329">
        <ele>451</ele>
        <time>2012-12-16T08:53:11Z</time>
      </trkpt>
      <trkpt lat="45.82503" lon="4.82334">
        <ele>449</ele>
        <time>2012-12-16T08:53:13Z</time>
      </trkpt>
      <trkpt lat="45.82502" lon="4.82338">
        <ele>449</ele>
        <time>2012-12-16T08:53:15Z</time>
      </trkpt>
      <trkpt lat="45.82496" lon="4.82334">
        <ele>448</ele>
        <time>2012-12-16T08:53:19Z</time>
      </trkpt>
      <trkpt lat="45.82494" lon="4.82333">
        <ele>451</ele>
        <time>2012-12-16T08:53:20Z</time>
      </trkpt>
      <trkpt lat="45.82481" lon="4.82325">
        <ele>451</ele>
        <time>2012-12-16T08:53:26Z</time>
      </trkpt>
      <trkpt lat="45.82476" lon="4.82323">
        <ele>451</ele>
        <time>2012-12-16T08:53:28Z</time>
      </trkpt>
      <trkpt lat="45.82469" lon="4.82317">
        <ele>452</ele>
        <time>2012-12-16T08:53:31Z</time>
      </trkpt>
      <trkpt lat="45.82459" lon="4.82311">
        <ele>451</ele>
        <time>2012-12-16T08:53:35Z</time>
      </trkpt>
      <trkpt lat="45.82456" lon="4.8231">
        <ele>451</ele>
        <time>2012-12-16T08:53:36Z</time>
      </trkpt>
      <trkpt lat="45.82441" lon="4.8231">
        <ele>450</ele>
        <time>2012-12-16T08:53:42Z</time>
      </trkpt>
      <trkpt lat="45.82424" lon="4.82314">
        <ele>448</ele>
        <time>2012-12-16T08:53:48Z</time>
      </trkpt>
      <trkpt lat="45.82421" lon="4.82314">
        <ele>448</ele>
        <time>2012-12-16T08:53:49Z</time>
      </trkpt>
      <trkpt lat="45.82404" lon="4.82317">
        <ele>443</ele>
        <time>2012-12-16T08:53:55Z</time>
      </trkpt>
      <trkpt lat="45.82401" lon="4.82318">
        <ele>443</ele>
        <time>2012-12-16T08:53:56Z</time>
      </trkpt>
      <trkpt lat="45.8239" lon="4.82321">
        <ele>443</ele>
        <time>2012-12-16T08:54:00Z</time>
      </trkpt>
      <trkpt lat="45.82382" lon="4.82322">
        <ele>442</ele>
        <time>2012-12-16T08:54:03Z</time>
      </trkpt>
      <trkpt lat="45.82376" lon="4.82326">
        <ele>441</ele>
        <time>2012-12-16T08:54:05Z</time>
      </trkpt>
      <trkpt lat="45.82363" lon="4.82331">
        <ele>439</ele>
        <time>2012-12-16T08:54:09Z</time>
      </trkpt>
      <trkpt lat="45.82351" lon="4.8233">
        <ele>437</ele>
        <time>2012-12-16T08:54:13Z</time>
      </trkpt>
      <trkpt lat="45.82345" lon="4.82329">
        <ele>435</ele>
        <time>2012-12-16T08:54:15Z</time>
      </trkpt>
      <trkpt lat="45.82336" lon="4.82328">
        <ele>433</ele>
        <time>2012-12-16T08:54:18Z</time>
      </trkpt>
      <trkpt lat="45.82326" lon="4.82323">
        <ele>430</ele>
        <time>2012-12-16T08:54:22Z</time>
      </trkpt>
      <trkpt lat="45.82323" lon="4.82322">
        <ele>430</ele>
        <time>2012-12-16T08:54:23Z</time>
      </trkpt>
      <trkpt lat="45.8231" lon="4.82318">
        <ele>430</ele>
        <time>2012-12-16T08:54:28Z</time>
      </trkpt>
      <trkpt lat="45.82307" lon="4.82318">
        <ele>429</ele>
        <time>2012-12-16T08:54:29Z</time>
      </trkpt>
      <trkpt lat="45.82295" lon="4.82312">
        <ele>429</ele>
        <time>2012-12-16T08:54:34Z</time>
      </trkpt>
      <trkpt lat="45.82289" lon="4.82311">
        <ele>428</ele>
        <time>2012-12-16T08:54:36Z</time>
      </trkpt>
      <trkpt lat="45.82282" lon="4.82306">
        <ele>428</ele>
        <time>2012-12-16T08:54:39Z</time>
      </trkpt>
      <trkpt lat="45.82272" lon="4.82303">
        <ele>427</ele>
        <time>2012-12-16T08:54:43Z</time>
      </trkpt>
      <trkpt lat="45.82269" lon="4.82304">
        <ele>426</ele>
        <time>2012-12-16T08:54:44Z</time>
      </trkpt>
      <trkpt lat="45.82263" lon="4.82311">
        <ele>424</ele>
        <time>2012-12-16T08:54:47Z</time>
      </trkpt>
      <trkpt lat="45.82261" lon="4.82312">
        <ele>423</ele>
        <time>2012-12-16T08:54:48Z</time>
      </trkpt>
      <trkpt lat="45.82258" lon="4.82312">
        <ele>423</ele>
        <time>2012-12-16T08:54:49Z</time>
      </trkpt>
      <trkpt lat="45.82255" lon="4.82311">
        <ele>423</ele>
        <time>2012-12-16T08:54:50Z</time>
      </trkpt>
      <trkpt lat="45.82242" lon="4.8231">
        <ele>414</ele>
        <time>2012-12-16T08:54:54Z</time>
      </trkpt>
      <trkpt lat="45.82235" lon="4.82307">
        <ele>414</ele>
        <time>2012-12-16T08:54:56Z</time>
      </trkpt>
      <trkpt lat="45.82225" lon="4.82302">
        <ele>414</ele>
        <time>2012-12-16T08:54:59Z</time>
      </trkpt>
      <trkpt lat="45.8222" lon="4.82302">
        <ele>414</ele>
        <time>2012-12-16T08:55:01Z</time>
      </trkpt>
      <trkpt lat="45.82217" lon="4.82303">
        <ele>413</ele>
        <time>2012-12-16T08:55:02Z</time>
      </trkpt>
      <trkpt lat="45.82199" lon="4.82309">
        <ele>411</ele>
        <time>2012-12-16T08:55:07Z</time>
      </trkpt>
      <trkpt lat="45.82181" lon="4.82315">
        <ele>407</ele>
        <time>2012-12-16T08:55:13Z</time>
      </trkpt>
      <trkpt lat="45.82167" lon="4.8232">
        <ele>403</ele>
        <time>2012-12-16T08:55:17Z</time>
      </trkpt>
      <trkpt lat="45.82162" lon="4.82322">
        <ele>397</ele>
        <time>2012-12-16T08:55:19Z</time>
      </trkpt>
      <trkpt lat="45.82156" lon="4.82326">
        <ele>396</ele>
        <time>2012-12-16T08:55:21Z</time>
      </trkpt>
      <trkpt lat="45.82144" lon="4.82334">
        <ele>390</ele>
        <time>2012-12-16T08:55:25Z</time>
      </trkpt>
      <trkpt lat="45.82129" lon="4.82344">
        <ele>388</ele>
        <time>2012-12-16T08:55:30Z</time>
      </trkpt>
      <trkpt lat="45.82125" lon="4.82345">
        <ele>387</ele>
        <time>2012-12-16T08:55:31Z</time>
      </trkpt>
      <trkpt lat="45.82114" lon="4.82341">
        <ele>386</ele>
        <time>2012-12-16T08:55:34Z</time>
      </trkpt>
      <trkpt lat="45.82106" lon="4.82333">
        <ele>391</ele>
        <time>2012-12-16T08:55:37Z</time>
      </trkpt>
      <trkpt lat="45.82102" lon="4.82326">
        <ele>391</ele>
        <time>2012-12-16T08:55:39Z</time>
      </trkpt>
      <trkpt lat="45.82096" lon="4.8231">
        <ele>392</ele>
        <time>2012-12-16T08:55:43Z</time>
      </trkpt>
      <trkpt lat="45.82093" lon="4.82307">
        <ele>393</ele>
        <time>2012-12-16T08:55:44Z</time>
      </trkpt>
      <trkpt lat="45.82086" lon="4.823">
        <ele>393</ele>
        <time>2012-12-16T08:55:48Z</time>
      </trkpt>
      <trkpt lat="45.8208" lon="4.82303">
        <ele>383</ele>
        <time>2012-12-16T08:55:53Z</time>
      </trkpt>
      <trkpt lat="45.8208" lon="4.82302">
        <ele>383</ele>
        <time>2012-12-16T08:55:54Z</time>
      </trkpt>
      <trkpt lat="45.82079" lon="4.82302">
        <ele>383</ele>
        <time>2012-12-16T08:55:55Z</time>
      </trkpt>
      <trkpt lat="45.8208" lon="4.82301">
        <ele>383</ele>
        <time>2012-12-16T08:56:00Z</time>
      </trkpt>
      <trkpt lat="45.82077" lon="4.82299">
        <ele>383</ele>
        <time>2012-12-16T08:56:23Z</time>
      </trkpt>
      <trkpt lat="45.82078" lon="4.82297">
        <ele>383</ele>
        <time>2012-12-16T08:56:28Z</time>
      </trkpt>
      <trkpt lat="45.82073" lon="4.82294">
        <ele>383</ele>
        <time>2012-12-16T08:56:36Z</time>
      </trkpt>
      <trkpt lat="45.82069" lon="4.82289">
        <ele>383</ele>
        <time>2012-12-16T08:56:38Z</time>
      </trkpt>
      <trkpt lat="45.82064" lon="4.82282">
        <ele>384</ele>
        <time>2012-12-16T08:56:41Z</time>
      </trkpt>
      <trkpt lat="45.82055" lon="4.82273">
        <ele>383</ele>
        <time>2012-12-16T08:56:46Z</time>
      </trkpt>
      <trkpt lat="45.82048" lon="4.82269">
        <ele>383</ele>
        <time>2012-12-16T08:56:50Z</time>
      </trkpt>
      <trkpt lat="45.82038" lon="4.82267">
        <ele>381</ele>
        <time>2012-12-16T08:56:54Z</time>
      </trkpt>
      <trkpt lat="45.82037" lon="4.82268">
        <ele>381</ele>
        <time>2012-12-16T08:56:55Z</time>
      </trkpt>
      <trkpt lat="45.8203" lon="4.82275">
        <ele>380</ele>
        <time>2012-12-16T08:56:59Z</time>
      </trkpt>
      <trkpt lat="45.82021" lon="4.82285">
        <ele>379</ele>
        <time>2012-12-16T08:57:04Z</time>
      </trkpt>
      <trkpt lat="45.82011" lon="4.82294">
        <ele>378</ele>
        <time>2012-12-16T08:57:09Z</time>
      </trkpt>
      <trkpt lat="45.82006" lon="4.823">
        <ele>377</ele>
        <time>2012-12-16T08:57:12Z</time>
      </trkpt>
      <trkpt lat="45.82003" lon="4.82304">
        <ele>377</ele>
        <time>2012-12-16T08:57:14Z</time>
      </trkpt>
      <trkpt lat="45.81991" lon="4.82315">
        <ele>367</ele>
        <time>2012-12-16T08:57:20Z</time>
      </trkpt>
      <trkpt lat="45.81984" lon="4.82317">
        <ele>367</ele>
        <time>2012-12-16T08:57:23Z</time>
      </trkpt>
      <trkpt lat="45.81982" lon="4.82316">
        <ele>367</ele>
        <time>2012-12-16T08:57:24Z</time>
      </trkpt>
      <trkpt lat="45.81973" lon="4.82306">
        <ele>366</ele>
        <time>2012-12-16T08:57:28Z</time>
      </trkpt>
      <trkpt lat="45.81969" lon="4.82301">
        <ele>366</ele>
        <time>2012-12-16T08:57:30Z</time>
      </trkpt>
      <trkpt lat="45.8196" lon="4.82288">
        <ele>366</ele>
        <time>2012-12-16T08:57:35Z</time>
      </trkpt>
      <trkpt lat="45.81958" lon="4.82286">
        <ele>365</ele>
        <time>2012-12-16T08:57:36Z</time>
      </trkpt>
      <trkpt lat="45.81945" lon="4.82269">
        <ele>365</ele>
        <time>2012-12-16T08:57:42Z</time>
      </trkpt>
      <trkpt lat="45.81943" lon="4.82267">
        <ele>365</ele>
        <time>2012-12-16T08:57:43Z</time>
      </trkpt>
      <trkpt lat="45.81929" lon="4.82252">
        <ele>363</ele>
        <time>2012-12-16T08:57:49Z</time>
      </trkpt>
      <trkpt lat="45.81914" lon="4.82239">
        <ele>360</ele>
        <time>2012-12-16T08:57:55Z</time>
      </trkpt>
      <trkpt lat="45.81912" lon="4.82237">
        <ele>360</ele>
        <time>2012-12-16T08:57:56Z</time>
      </trkpt>
      <trkpt lat="45.81897" lon="4.82221">
        <ele>360</ele>
        <time>2012-12-16T08:58:02Z</time>
      </trkpt>
      <trkpt lat="45.81895" lon="4.82219">
        <ele>359</ele>
        <time>2012-12-16T08:58:03Z</time>
      </trkpt>
      <trkpt lat="45.81883" lon="4.82206">
        <ele>359</ele>
        <time>2012-12-16T08:58:08Z</time>
      </trkpt>
      <trkpt lat="45.81881" lon="4.82203">
        <ele>359</ele>
        <time>2012-12-16T08:58:09Z</time>
      </trkpt>
      <trkpt lat="45.81871" lon="4.82186">
        <ele>359</ele>
        <time>2012-12-16T08:58:14Z</time>
      </trkpt>
      <trkpt lat="45.8186" lon="4.82162">
        <ele>361</ele>
        <time>2012-12-16T08:58:21Z</time>
      </trkpt>
      <trkpt lat="45.81855" lon="4.82137">
        <ele>361</ele>
        <time>2012-12-16T08:58:28Z</time>
      </trkpt>
      <trkpt lat="45.81855" lon="4.82133">
        <ele>361</ele>
        <time>2012-12-16T08:58:29Z</time>
      </trkpt>
      <trkpt lat="45.81855" lon="4.82114">
        <ele>361</ele>
        <time>2012-12-16T08:58:34Z</time>
      </trkpt>
      <trkpt lat="45.81855" lon="4.8211">
        <ele>361</ele>
        <time>2012-12-16T08:58:35Z</time>
      </trkpt>
      <trkpt lat="45.81853" lon="4.82093">
        <ele>361</ele>
        <time>2012-12-16T08:58:39Z</time>
      </trkpt>
      <trkpt lat="45.81851" lon="4.82083">
        <ele>360</ele>
        <time>2012-12-16T08:58:42Z</time>
      </trkpt>
      <trkpt lat="45.81849" lon="4.82076">
        <ele>360</ele>
        <time>2012-12-16T08:58:44Z</time>
      </trkpt>
      <trkpt lat="45.81844" lon="4.82057">
        <ele>360</ele>
        <time>2012-12-16T08:58:49Z</time>
      </trkpt>
      <trkpt lat="45.8184" lon="4.82039">
        <ele>360</ele>
        <time>2012-12-16T08:58:54Z</time>
      </trkpt>
      <trkpt lat="45.81839" lon="4.82031">
        <ele>359</ele>
        <time>2012-12-16T08:58:56Z</time>
      </trkpt>
      <trkpt lat="45.81837" lon="4.82017">
        <ele>358</ele>
        <time>2012-12-16T08:59:00Z</time>
      </trkpt>
      <trkpt lat="45.81837" lon="4.82005">
        <ele>356</ele>
        <time>2012-12-16T08:59:03Z</time>
      </trkpt>
      <trkpt lat="45.81837" lon="4.81998">
        <ele>355</ele>
        <time>2012-12-16T08:59:05Z</time>
      </trkpt>
      <trkpt lat="45.81837" lon="4.81979">
        <ele>356</ele>
        <time>2012-12-16T08:59:10Z</time>
      </trkpt>
      <trkpt lat="45.81839" lon="4.81964">
        <ele>356</ele>
        <time>2012-12-16T08:59:14Z</time>
      </trkpt>
      <trkpt lat="45.8184" lon="4.81952">
        <ele>355</ele>
        <time>2012-12-16T08:59:17Z</time>
      </trkpt>
      <trkpt lat="45.81842" lon="4.81941">
        <ele>355</ele>
        <time>2012-12-16T08:59:20Z</time>
      </trkpt>
      <trkpt lat="45.81845" lon="4.81923">
        <ele>353</ele>
        <time>2012-12-16T08:59:25Z</time>
      </trkpt>
      <trkpt lat="45.81848" lon="4.81909">
        <ele>352</ele>
        <time>2012-12-16T08:59:29Z</time>
      </trkpt>
      <trkpt lat="45.8185" lon="4.81898">
        <ele>353</ele>
        <time>2012-12-16T08:59:32Z</time>
      </trkpt>
      <trkpt lat="45.81851" lon="4.81882">
        <ele>353</ele>
        <time>2012-12-16T08:59:36Z</time>
      </trkpt>
      <trkpt lat="45.81852" lon="4.8187">
        <ele>353</ele>
        <time>2012-12-16T08:59:39Z</time>
      </trkpt>
      <trkpt lat="45.81852" lon="4.81853">
        <ele>353</ele>
        <time>2012-12-16T08:59:43Z</time>
      </trkpt>
      <trkpt lat="45.81849" lon="4.81842">
        <ele>352</ele>
        <time>2012-12-16T08:59:46Z</time>
      </trkpt>
      <trkpt lat="45.81846" lon="4.81832">
        <ele>351</ele>
        <time>2012-12-16T08:59:49Z</time>
      </trkpt>
      <trkpt lat="45.81839" lon="4.8182">
        <ele>351</ele>
        <time>2012-12-16T08:59:53Z</time>
      </trkpt>
      <trkpt lat="45.81837" lon="4.81818">
        <ele>351</ele>
        <time>2012-12-16T08:59:54Z</time>
      </trkpt>
      <trkpt lat="45.81829" lon="4.81806">
        <ele>346</ele>
        <time>2012-12-16T08:59:59Z</time>
      </trkpt>
      <trkpt lat="45.81829" lon="4.81803">
        <ele>346</ele>
        <time>2012-12-16T09:00:00Z</time>
      </trkpt>
      <trkpt lat="45.81832" lon="4.81801">
        <ele>346</ele>
        <time>2012-12-16T09:00:02Z</time>
      </trkpt>
      <trkpt lat="45.81834" lon="4.81802">
        <ele>352</ele>
        <time>2012-12-16T09:00:03Z</time>
      </trkpt>
      <trkpt lat="45.81836" lon="4.81803">
        <ele>352</ele>
        <time>2012-12-16T09:00:04Z</time>
      </trkpt>
      <trkpt lat="45.81843" lon="4.81804">
        <ele>353</ele>
        <time>2012-12-16T09:00:09Z</time>
      </trkpt>
      <trkpt lat="45.8185" lon="4.81806">
        <ele>353</ele>
        <time>2012-12-16T09:00:13Z</time>
      </trkpt>
      <trkpt lat="45.81851" lon="4.81804">
        <ele>353</ele>
        <time>2012-12-16T09:00:14Z</time>
      </trkpt>
      <trkpt lat="45.81858" lon="4.81798">
        <ele>354</ele>
        <time>2012-12-16T09:00:18Z</time>
      </trkpt>
      <trkpt lat="45.81859" lon="4.81795">
        <ele>354</ele>
        <time>2012-12-16T09:00:19Z</time>
      </trkpt>
      <trkpt lat="45.81861" lon="4.81785">
        <ele>354</ele>
        <time>2012-12-16T09:00:23Z</time>
      </trkpt>
      <trkpt lat="45.81862" lon="4.81783">
        <ele>354</ele>
        <time>2012-12-16T09:00:24Z</time>
      </trkpt>
      <trkpt lat="45.81864" lon="4.81765">
        <ele>354</ele>
        <time>2012-12-16T09:00:30Z</time>
      </trkpt>
      <trkpt lat="45.81865" lon="4.8176">
        <ele>354</ele>
        <time>2012-12-16T09:00:32Z</time>
      </trkpt>
      <trkpt lat="45.81866" lon="4.81749">
        <ele>354</ele>
        <time>2012-12-16T09:00:36Z</time>
      </trkpt>
      <trkpt lat="45.81869" lon="4.81735">
        <ele>354</ele>
        <time>2012-12-16T09:00:41Z</time>
      </trkpt>
      <trkpt lat="45.8187" lon="4.81733">
        <ele>354</ele>
        <time>2012-12-16T09:00:42Z</time>
      </trkpt>
      <trkpt lat="45.81874" lon="4.81718">
        <ele>354</ele>
        <time>2012-12-16T09:00:48Z</time>
      </trkpt>
      <trkpt lat="45.81876" lon="4.81717">
        <ele>354</ele>
        <time>2012-12-16T09:00:49Z</time>
      </trkpt>
      <trkpt lat="45.81879" lon="4.81715">
        <ele>355</ele>
        <time>2012-12-16T09:00:52Z</time>
      </trkpt>
      <trkpt lat="45.8188" lon="4.81716">
        <ele>355</ele>
        <time>2012-12-16T09:00:53Z</time>
      </trkpt>
      <trkpt lat="45.81887" lon="4.81722">
        <ele>355</ele>
        <time>2012-12-16T09:00:57Z</time>
      </trkpt>
      <trkpt lat="45.8189" lon="4.81725">
        <ele>356</ele>
        <time>2012-12-16T09:00:59Z</time>
      </trkpt>
      <trkpt lat="45.81894" lon="4.8173">
        <ele>356</ele>
        <time>2012-12-16T09:01:02Z</time>
      </trkpt>
      <trkpt lat="45.81895" lon="4.81732">
        <ele>357</ele>
        <time>2012-12-16T09:01:03Z</time>
      </trkpt>
      <trkpt lat="45.81896" lon="4.81733">
        <ele>357</ele>
        <time>2012-12-16T09:01:04Z</time>
      </trkpt>
      <trkpt lat="45.81901" lon="4.81739">
        <ele>358</ele>
        <time>2012-12-16T09:01:08Z</time>
      </trkpt>
      <trkpt lat="45.81908" lon="4.81744">
        <ele>359</ele>
        <time>2012-12-16T09:01:13Z</time>
      </trkpt>
      <trkpt lat="45.81911" lon="4.81747">
        <ele>360</ele>
        <time>2012-12-16T09:01:15Z</time>
      </trkpt>
      <trkpt lat="45.81917" lon="4.81754">
        <ele>361</ele>
        <time>2012-12-16T09:01:19Z</time>
      </trkpt>
      <trkpt lat="45.81919" lon="4.81757">
        <ele>364</ele>
        <time>2012-12-16T09:01:21Z</time>
      </trkpt>
      <trkpt lat="45.81925" lon="4.81766">
        <ele>366</ele>
        <time>2012-12-16T09:01:26Z</time>
      </trkpt>
      <trkpt lat="45.81926" lon="4.81768">
        <ele>366</ele>
        <time>2012-12-16T09:01:27Z</time>
      </trkpt>
      <trkpt lat="45.81929" lon="4.81771">
        <ele>367</ele>
        <time>2012-12-16T09:01:29Z</time>
      </trkpt>
      <trkpt lat="45.81933" lon="4.81775">
        <ele>367</ele>
        <time>2012-12-16T09:01:33Z</time>
      </trkpt>
      <trkpt lat="45.81935" lon="4.81776">
        <ele>368</ele>
        <time>2012-12-16T09:01:35Z</time>
      </trkpt>
      <trkpt lat="45.8194" lon="4.81782">
        <ele>368</ele>
        <time>2012-12-16T09:01:40Z</time>
      </trkpt>
      <trkpt lat="45.81942" lon="4.81785">
        <ele>368</ele>
        <time>2012-12-16T09:01:42Z</time>
      </trkpt>
      <trkpt lat="45.81951" lon="4.81798">
        <ele>370</ele>
        <time>2012-12-16T09:01:52Z</time>
      </trkpt>
      <trkpt lat="45.81954" lon="4.81802">
        <ele>370</ele>
        <time>2012-12-16T09:01:55Z</time>
      </trkpt>
      <trkpt lat="45.81958" lon="4.81807">
        <ele>371</ele>
        <time>2012-12-16T09:02:00Z</time>
      </trkpt>
      <trkpt lat="45.81966" lon="4.81814">
        <ele>372</ele>
        <time>2012-12-16T09:02:07Z</time>
      </trkpt>
      <trkpt lat="45.81969" lon="4.81819">
        <ele>373</ele>
        <time>2012-12-16T09:02:11Z</time>
      </trkpt>
      <trkpt lat="45.81969" lon="4.8182">
        <ele>373</ele>
        <time>2012-12-16T09:02:12Z</time>
      </trkpt>
      <trkpt lat="45.8197" lon="4.81821">
        <ele>373</ele>
        <time>2012-12-16T09:02:13Z</time>
      </trkpt>
      <trkpt lat="45.81973" lon="4.81823">
        <ele>374</ele>
        <time>2012-12-16T09:02:15Z</time>
      </trkpt>
      <trkpt lat="45.81977" lon="4.81826">
        <ele>375</ele>
        <time>2012-12-16T09:02:19Z</time>
      </trkpt>
      <trkpt lat="45.81979" lon="4.81829">
        <ele>375</ele>
        <time>2012-12-16T09:02:21Z</time>
      </trkpt>
      <trkpt lat="45.81984" lon="4.81834">
        <ele>379</ele>
        <time>2012-12-16T09:02:27Z</time>
      </trkpt>
      <trkpt lat="45.81984" lon="4.81835">
        <ele>379</ele>
        <time>2012-12-16T09:02:28Z</time>
      </trkpt>
      <trkpt lat="45.81989" lon="4.81841">
        <ele>380</ele>
        <time>2012-12-16T09:02:35Z</time>
      </trkpt>
      <trkpt lat="45.81992" lon="4.81848">
        <ele>379</ele>
        <time>2012-12-16T09:02:41Z</time>
      </trkpt>
      <trkpt lat="45.81993" lon="4.81849">
        <ele>379</ele>
        <time>2012-12-16T09:02:42Z</time>
      </trkpt>
      <trkpt lat="45.81996" lon="4.81853">
        <ele>379</ele>
        <time>2012-12-16T09:02:46Z</time>
      </trkpt>
      <trkpt lat="45.81998" lon="4.81855">
        <ele>379</ele>
        <time>2012-12-16T09:02:50Z</time>
      </trkpt>
      <trkpt lat="45.81998" lon="4.81857">
        <ele>379</ele>
        <time>2012-12-16T09:02:52Z</time>
      </trkpt>
      <trkpt lat="45.82003" lon="4.81863">
        <ele>392</ele>
        <time>2012-12-16T09:02:59Z</time>
      </trkpt>
      <trkpt lat="45.82007" lon="4.81871">
        <ele>393</ele>
        <time>2012-12-16T09:03:08Z</time>
      </trkpt>
      <trkpt lat="45.82009" lon="4.81872">
        <ele>393</ele>
        <time>2012-12-16T09:03:11Z</time>
      </trkpt>
      <trkpt lat="45.82012" lon="4.81875">
        <ele>394</ele>
        <time>2012-12-16T09:03:15Z</time>
      </trkpt>
      <trkpt lat="45.82014" lon="4.81877">
        <ele>394</ele>
        <time>2012-12-16T09:03:20Z</time>
      </trkpt>
      <trkpt lat="45.82017" lon="4.81881">
        <ele>394</ele>
        <time>2012-12-16T09:03:26Z</time>
      </trkpt>
      <trkpt lat="45.8202" lon="4.81885">
        <ele>395</ele>
        <time>2012-12-16T09:03:31Z</time>
      </trkpt>
      <trkpt lat="45.8202" lon="4.81886">
        <ele>395</ele>
        <time>2012-12-16T09:03:32Z</time>
      </trkpt>
      <trkpt lat="45.8202" lon="4.81887">
        <ele>395</ele>
        <time>2012-12-16T09:03:33Z</time>
      </trkpt>
      <trkpt lat="45.82021" lon="4.8189">
        <ele>395</ele>
        <time>2012-12-16T09:03:36Z</time>
      </trkpt>
      <trkpt lat="45.82021" lon="4.8189">
        <ele>395</ele>
        <time>2012-12-16T09:03:37Z</time>
      </trkpt>
      <trkpt lat="45.82027" lon="4.81896">
        <ele>396</ele>
        <time>2012-12-16T09:03:44Z</time>
      </trkpt>
      <trkpt lat="45.8203" lon="4.819">
        <ele>396</ele>
        <time>2012-12-16T09:03:52Z</time>
      </trkpt>
      <trkpt lat="45.82033" lon="4.81905">
        <ele>397</ele>
        <time>2012-12-16T09:03:59Z</time>
      </trkpt>
      <trkpt lat="45.82035" lon="4.81908">
        <ele>397</ele>
        <time>2012-12-16T09:04:03Z</time>
      </trkpt>
      <trkpt lat="45.82037" lon="4.8191">
        <ele>398</ele>
        <time>2012-12-16T09:04:07Z</time>
      </trkpt>
      <trkpt lat="45.82039" lon="4.81914">
        <ele>398</ele>
        <time>2012-12-16T09:04:12Z</time>
      </trkpt>
      <trkpt lat="45.82042" lon="4.81917">
        <ele>404</ele>
        <time>2012-12-16T09:04:17Z</time>
      </trkpt>
      <trkpt lat="45.82046" lon="4.81922">
        <ele>405</ele>
        <time>2012-12-16T09:04:24Z</time>
      </trkpt>
      <trkpt lat="45.82046" lon="4.81922">
        <ele>405</ele>
        <time>2012-12-16T09:04:25Z</time>
      </trkpt>
      <trkpt lat="45.82047" lon="4.81926">
        <ele>405</ele>
        <time>2012-12-16T09:04:29Z</time>
      </trkpt>
      <trkpt lat="45.82048" lon="4.81926">
        <ele>405</ele>
        <time>2012-12-16T09:04:30Z</time>
      </trkpt>
      <trkpt lat="45.82051" lon="4.8193">
        <ele>406</ele>
        <time>2012-12-16T09:04:35Z</time>
      </trkpt>
      <trkpt lat="45.82054" lon="4.81934">
        <ele>407</ele>
        <time>2012-12-16T09:04:39Z</time>
      </trkpt>
      <trkpt lat="45.82056" lon="4.81937">
        <ele>407</ele>
        <time>2012-12-16T09:04:47Z</time>
      </trkpt>
      <trkpt lat="45.8206" lon="4.81941">
        <ele>408</ele>
        <time>2012-12-16T09:04:53Z</time>
      </trkpt>
      <trkpt lat="45.82061" lon="4.81942">
        <ele>408</ele>
        <time>2012-12-16T09:04:54Z</time>
      </trkpt>
      <trkpt lat="45.82062" lon="4.81943">
        <ele>408</ele>
        <time>2012-12-16T09:04:56Z</time>
      </trkpt>
      <trkpt lat="45.82063" lon="4.81944">
        <ele>408</ele>
        <time>2012-12-16T09:04:57Z</time>
      </trkpt>
      <trkpt lat="45.82066" lon="4.81949">
        <ele>409</ele>
        <time>2012-12-16T09:05:00Z</time>
      </trkpt>
      <trkpt lat="45.82068" lon="4.81952">
        <ele>409</ele>
        <time>2012-12-16T09:05:03Z</time>
      </trkpt>
      <trkpt lat="45.82067" lon="4.81953">
        <ele>409</ele>
        <time>2012-12-16T09:05:04Z</time>
      </trkpt>
      <trkpt lat="45.82069" lon="4.81953">
        <ele>409</ele>
        <time>2012-12-16T09:05:06Z</time>
      </trkpt>
      <trkpt lat="45.82069" lon="4.81954">
        <ele>409</ele>
        <time>2012-12-16T09:05:07Z</time>
      </trkpt>
      <trkpt lat="45.82072" lon="4.81958">
        <ele>410</ele>
        <time>2012-12-16T09:05:11Z</time>
      </trkpt>
      <trkpt lat="45.82072" lon="4.81959">
        <ele>410</ele>
        <time>2012-12-16T09:05:12Z</time>
      </trkpt>
      <trkpt lat="45.82074" lon="4.81962">
        <ele>410</ele>
        <time>2012-12-16T09:05:16Z</time>
      </trkpt>
      <trkpt lat="45.82075" lon="4.81963">
        <ele>410</ele>
        <time>2012-12-16T09:05:17Z</time>
      </trkpt>
      <trkpt lat="45.82075" lon="4.81964">
        <ele>411</ele>
        <time>2012-12-16T09:05:18Z</time>
      </trkpt>
      <trkpt lat="45.82077" lon="4.81966">
        <ele>411</ele>
        <time>2012-12-16T09:05:22Z</time>
      </trkpt>
      <trkpt lat="45.82077" lon="4.81967">
        <ele>411</ele>
        <time>2012-12-16T09:05:31Z</time>
      </trkpt>
      <trkpt lat="45.8208" lon="4.81967">
        <ele>411</ele>
        <time>2012-12-16T09:05:47Z</time>
      </trkpt>
      <trkpt lat="45.82086" lon="4.81967">
        <ele>429</ele>
        <time>2012-12-16T09:06:07Z</time>
      </trkpt>
      <trkpt lat="45.8209" lon="4.81964">
        <ele>429</ele>
        <time>2012-12-16T09:06:11Z</time>
      </trkpt>
      <trkpt lat="45.82094" lon="4.81961">
        <ele>429</ele>
        <time>2012-12-16T09:06:15Z</time>
      </trkpt>
      <trkpt lat="45.821" lon="4.81957">
        <ele>429</ele>
        <time>2012-12-16T09:06:23Z</time>
      </trkpt>
      <trkpt lat="45.82107" lon="4.81953">
        <ele>430</ele>
        <time>2012-12-16T09:06:30Z</time>
      </trkpt>
      <trkpt lat="45.82108" lon="4.81952">
        <ele>430</ele>
        <time>2012-12-16T09:06:31Z</time>
      </trkpt>
      <trkpt lat="45.82117" lon="4.81952">
        <ele>431</ele>
        <time>2012-12-16T09:06:39Z</time>
      </trkpt>
      <trkpt lat="45.82125" lon="4.81949">
        <ele>433</ele>
        <time>2012-12-16T09:06:46Z</time>
      </trkpt>
      <trkpt lat="45.82129" lon="4.81944">
        <ele>433</ele>
        <time>2012-12-16T09:06:52Z</time>
      </trkpt>
      <trkpt lat="45.8213" lon="4.81943">
        <ele>433</ele>
        <time>2012-12-16T09:06:53Z</time>
      </trkpt>
      <trkpt lat="45.82134" lon="4.81936">
        <ele>434</ele>
        <time>2012-12-16T09:06:58Z</time>
      </trkpt>
      <trkpt lat="45.82135" lon="4.81934">
        <ele>434</ele>
        <time>2012-12-16T09:06:59Z</time>
      </trkpt>
      <trkpt lat="45.82137" lon="4.8193">
        <ele>434</ele>
        <time>2012-12-16T09:07:02Z</time>
      </trkpt>
      <trkpt lat="45.82138" lon="4.81929">
        <ele>434</ele>
        <time>2012-12-16T09:07:03Z</time>
      </trkpt>
      <trkpt lat="45.8214" lon="4.81926">
        <ele>435</ele>
        <time>2012-12-16T09:07:06Z</time>
      </trkpt>
      <trkpt lat="45.8214" lon="4.81925">
        <ele>435</ele>
        <time>2012-12-16T09:07:07Z</time>
      </trkpt>
      <trkpt lat="45.82144" lon="4.81923">
        <ele>436</ele>
        <time>2012-12-16T09:07:11Z</time>
      </trkpt>
      <trkpt lat="45.82147" lon="4.81926">
        <ele>436</ele>
        <time>2012-12-16T09:07:14Z</time>
      </trkpt>
      <trkpt lat="45.82148" lon="4.8193">
        <ele>436</ele>
        <time>2012-12-16T09:07:17Z</time>
      </trkpt>
      <trkpt lat="45.82147" lon="4.81936">
        <ele>436</ele>
        <time>2012-12-16T09:07:23Z</time>
      </trkpt>
      <trkpt lat="45.82147" lon="4.81937">
        <ele>436</ele>
        <time>2012-12-16T09:07:24Z</time>
      </trkpt>
      <trkpt lat="45.82143" lon="4.81946">
        <ele>435</ele>
        <time>2012-12-16T09:07:31Z</time>
      </trkpt>
      <trkpt lat="45.82139" lon="4.81955">
        <ele>435</ele>
        <time>2012-12-16T09:07:38Z</time>
      </trkpt>
      <trkpt lat="45.82137" lon="4.81961">
        <ele>435</ele>
        <time>2012-12-16T09:07:41Z</time>
      </trkpt>
      <trkpt lat="45.82136" lon="4.81969">
        <ele>436</ele>
        <time>2012-12-16T09:07:46Z</time>
      </trkpt>
      <trkpt lat="45.82135" lon="4.81977">
        <ele>436</ele>
        <time>2012-12-16T09:07:51Z</time>
      </trkpt>
      <trkpt lat="45.82135" lon="4.8198">
        <ele>437</ele>
        <time>2012-12-16T09:07:53Z</time>
      </trkpt>
      <trkpt lat="45.82134" lon="4.81986">
        <ele>437</ele>
        <time>2012-12-16T09:07:57Z</time>
      </trkpt>
      <trkpt lat="45.82134" lon="4.81991">
        <ele>437</ele>
        <time>2012-12-16T09:08:00Z</time>
      </trkpt>
      <trkpt lat="45.82133" lon="4.82006">
        <ele>440</ele>
        <time>2012-12-16T09:08:09Z</time>
      </trkpt>
      <trkpt lat="45.82132" lon="4.82011">
        <ele>440</ele>
        <time>2012-12-16T09:08:12Z</time>
      </trkpt>
      <trkpt lat="45.82132" lon="4.82014">
        <ele>440</ele>
        <time>2012-12-16T09:08:13Z</time>
      </trkpt>
      <trkpt lat="45.8213" lon="4.82019">
        <ele>439</ele>
        <time>2012-12-16T09:08:15Z</time>
      </trkpt>
      <trkpt lat="45.82129" lon="4.82027">
        <ele>439</ele>
        <time>2012-12-16T09:08:18Z</time>
      </trkpt>
      <trkpt lat="45.8213" lon="4.82032">
        <ele>439</ele>
        <time>2012-12-16T09:08:20Z</time>
      </trkpt>
      <trkpt lat="45.8213" lon="4.82037">
        <ele>439</ele>
        <time>2012-12-16T09:08:22Z</time>
      </trkpt>
      <trkpt lat="45.82132" lon="4.8204">
        <ele>439</ele>
        <time>2012-12-16T09:08:24Z</time>
      </trkpt>
      <trkpt lat="45.82135" lon="4.82042">
        <ele>440</ele>
        <time>2012-12-16T09:08:26Z</time>
      </trkpt>
      <trkpt lat="45.82141" lon="4.82038">
        <ele>441</ele>
        <time>2012-12-16T09:08:30Z</time>
      </trkpt>
      <trkpt lat="45.82143" lon="4.82033">
        <ele>441</ele>
        <time>2012-12-16T09:08:32Z</time>
      </trkpt>
      <trkpt lat="45.82144" lon="4.8203">
        <ele>441</ele>
        <time>2012-12-16T09:08:34Z</time>
      </trkpt>
      <trkpt lat="45.82144" lon="4.82025">
        <ele>442</ele>
        <time>2012-12-16T09:08:36Z</time>
      </trkpt>
      <trkpt lat="45.82146" lon="4.82011">
        <ele>443</ele>
        <time>2012-12-16T09:08:43Z</time>
      </trkpt>
      <trkpt lat="45.82148" lon="4.82004">
        <ele>445</ele>
        <time>2012-12-16T09:08:48Z</time>
      </trkpt>
      <trkpt lat="45.82149" lon="4.82003">
        <ele>445</ele>
        <time>2012-12-16T09:08:49Z</time>
      </trkpt>
      <trkpt lat="45.82151" lon="4.81994">
        <ele>443</ele>
        <time>2012-12-16T09:08:54Z</time>
      </trkpt>
      <trkpt lat="45.82151" lon="4.81991">
        <ele>443</ele>
        <time>2012-12-16T09:08:56Z</time>
      </trkpt>
      <trkpt lat="45.82152" lon="4.81984">
        <ele>441</ele>
        <time>2012-12-16T09:09:02Z</time>
      </trkpt>
      <trkpt lat="45.82152" lon="4.81979">
        <ele>440</ele>
        <time>2012-12-16T09:09:13Z</time>
      </trkpt>
      <trkpt lat="45.82154" lon="4.8198">
        <ele>441</ele>
        <time>2012-12-16T09:10:12Z</time>
      </trkpt>
      <trkpt lat="45.82154" lon="4.81979">
        <ele>441</ele>
        <time>2012-12-16T09:10:22Z</time>
      </trkpt>
      <trkpt lat="45.82152" lon="4.8198">
        <ele>441</ele>
        <time>2012-12-16T09:10:47Z</time>
      </trkpt>
      <trkpt lat="45.82154" lon="4.81979">
        <ele>441</ele>
        <time>2012-12-16T09:11:05Z</time>
      </trkpt>
      <trkpt lat="45.82154" lon="4.8198">
        <ele>441</ele>
        <time>2012-12-16T09:11:11Z</time>
      </trkpt>
      <trkpt lat="45.82155" lon="4.81984">
        <ele>442</ele>
        <time>2012-12-16T09:11:49Z</time>
      </trkpt>
      <trkpt lat="45.82156" lon="4.81987">
        <ele>443</ele>
        <time>2012-12-16T09:11:51Z</time>
      </trkpt>
      <trkpt lat="45.82159" lon="4.81989">
        <ele>445</ele>
        <time>2012-12-16T09:11:54Z</time>
      </trkpt>
      <trkpt lat="45.82161" lon="4.8199">
        <ele>446</ele>
        <time>2012-12-16T09:11:56Z</time>
      </trkpt>
      <trkpt lat="45.82165" lon="4.81989">
        <ele>446</ele>
        <time>2012-12-16T09:11:58Z</time>
      </trkpt>
      <trkpt lat="45.82171" lon="4.81987">
        <ele>453</ele>
        <time>2012-12-16T09:12:01Z</time>
      </trkpt>
      <trkpt lat="45.82177" lon="4.81981">
        <ele>454</ele>
        <time>2012-12-16T09:12:04Z</time>
      </trkpt>
      <trkpt lat="45.82181" lon="4.81976">
        <ele>454</ele>
        <time>2012-12-16T09:12:06Z</time>
      </trkpt>
      <trkpt lat="45.82184" lon="4.81975">
        <ele>454</ele>
        <time>2012-12-16T09:12:07Z</time>
      </trkpt>
      <trkpt lat="45.82192" lon="4.81969">
        <ele>454</ele>
        <time>2012-12-16T09:12:11Z</time>
      </trkpt>
      <trkpt lat="45.82194" lon="4.81967">
        <ele>454</ele>
        <time>2012-12-16T09:12:12Z</time>
      </trkpt>
      <trkpt lat="45.82201" lon="4.81963">
        <ele>454</ele>
        <time>2012-12-16T09:12:16Z</time>
      </trkpt>
      <trkpt lat="45.82209" lon="4.81958">
        <ele>455</ele>
        <time>2012-12-16T09:12:21Z</time>
      </trkpt>
      <trkpt lat="45.82211" lon="4.81957">
        <ele>455</ele>
        <time>2012-12-16T09:12:22Z</time>
      </trkpt>
      <trkpt lat="45.82217" lon="4.81956">
        <ele>455</ele>
        <time>2012-12-16T09:12:25Z</time>
      </trkpt>
      <trkpt lat="45.82229" lon="4.81955">
        <ele>456</ele>
        <time>2012-12-16T09:12:31Z</time>
      </trkpt>
      <trkpt lat="45.82242" lon="4.81955">
        <ele>457</ele>
        <time>2012-12-16T09:12:37Z</time>
      </trkpt>
      <trkpt lat="45.82244" lon="4.81953">
        <ele>457</ele>
        <time>2012-12-16T09:12:38Z</time>
      </trkpt>
      <trkpt lat="45.82247" lon="4.81949">
        <ele>456</ele>
        <time>2012-12-16T09:12:40Z</time>
      </trkpt>
      <trkpt lat="45.82248" lon="4.81946">
        <ele>456</ele>
        <time>2012-12-16T09:12:41Z</time>
      </trkpt>
      <trkpt lat="45.82259" lon="4.81937">
        <ele>460</ele>
        <time>2012-12-16T09:12:46Z</time>
      </trkpt>
      <trkpt lat="45.82264" lon="4.81933">
        <ele>460</ele>
        <time>2012-12-16T09:12:48Z</time>
      </trkpt>
      <trkpt lat="45.82271" lon="4.81928">
        <ele>460</ele>
        <time>2012-12-16T09:12:51Z</time>
      </trkpt>
      <trkpt lat="45.8228" lon="4.8192">
        <ele>461</ele>
        <time>2012-12-16T09:12:55Z</time>
      </trkpt>
      <trkpt lat="45.82288" lon="4.81916">
        <ele>451</ele>
        <time>2012-12-16T09:12:58Z</time>
      </trkpt>
      <trkpt lat="45.82298" lon="4.81911">
        <ele>451</ele>
        <time>2012-12-16T09:13:02Z</time>
      </trkpt>
      <trkpt lat="45.82303" lon="4.81908">
        <ele>451</ele>
        <time>2012-12-16T09:13:04Z</time>
      </trkpt>
      <trkpt lat="45.82318" lon="4.81903">
        <ele>452</ele>
        <time>2012-12-16T09:13:10Z</time>
      </trkpt>
      <trkpt lat="45.82324" lon="4.81901">
        <ele>453</ele>
        <time>2012-12-16T09:13:13Z</time>
      </trkpt>
      <trkpt lat="45.82326" lon="4.81901">
        <ele>453</ele>
        <time>2012-12-16T09:13:14Z</time>
      </trkpt>
      <trkpt lat="45.82336" lon="4.81897">
        <ele>455</ele>
        <time>2012-12-16T09:13:18Z</time>
      </trkpt>
      <trkpt lat="45.82341" lon="4.81894">
        <ele>454</ele>
        <time>2012-12-16T09:13:20Z</time>
      </trkpt>
      <trkpt lat="45.82354" lon="4.81889">
        <ele>454</ele>
        <time>2012-12-16T09:13:25Z</time>
      </trkpt>
      <trkpt lat="45.8236" lon="4.81887">
        <ele>453</ele>
        <time>2012-12-16T09:13:27Z</time>
      </trkpt>
      <trkpt lat="45.82374" lon="4.81882">
        <ele>453</ele>
        <time>2012-12-16T09:13:32Z</time>
      </trkpt>
      <trkpt lat="45.8238" lon="4.81879">
        <ele>453</ele>
        <time>2012-12-16T09:13:34Z</time>
      </trkpt>
      <trkpt lat="45.82393" lon="4.81873">
        <ele>453</ele>
        <time>2012-12-16T09:13:39Z</time>
      </trkpt>
      <trkpt lat="45.82396" lon="4.81872">
        <ele>453</ele>
        <time>2012-12-16T09:13:40Z</time>
      </trkpt>
      <trkpt lat="45.8241" lon="4.81862">
        <ele>452</ele>
        <time>2012-12-16T09:13:46Z</time>
      </trkpt>
      <trkpt lat="45.82412" lon="4.8186">
        <ele>452</ele>
        <time>2012-12-16T09:13:47Z</time>
      </trkpt>
      <trkpt lat="45.82423" lon="4.81856">
        <ele>454</ele>
        <time>2012-12-16T09:13:51Z</time>
      </trkpt>
      <trkpt lat="45.82431" lon="4.81853">
        <ele>454</ele>
        <time>2012-12-16T09:13:54Z</time>
      </trkpt>
      <trkpt lat="45.82434" lon="4.81852">
        <ele>454</ele>
        <time>2012-12-16T09:13:55Z</time>
      </trkpt>
      <trkpt lat="45.82438" lon="4.81847">
        <ele>454</ele>
        <time>2012-12-16T09:13:59Z</time>
      </trkpt>
      <trkpt lat="45.82436" lon="4.81844">
        <ele>453</ele>
        <time>2012-12-16T09:14:00Z</time>
      </trkpt>
      <trkpt lat="45.82429" lon="4.81836">
        <ele>451</ele>
        <time>2012-12-16T09:14:03Z</time>
      </trkpt>
      <trkpt lat="45.82428" lon="4.81832">
        <ele>447</ele>
        <time>2012-12-16T09:14:04Z</time>
      </trkpt>
      <trkpt lat="45.82427" lon="4.81829">
        <ele>447</ele>
        <time>2012-12-16T09:14:05Z</time>
      </trkpt>
      <trkpt lat="45.82427" lon="4.81823">
        <ele>447</ele>
        <time>2012-12-16T09:14:07Z</time>
      </trkpt>
      <trkpt lat="45.82424" lon="4.81808">
        <ele>446</ele>
        <time>2012-12-16T09:14:12Z</time>
      </trkpt>
      <trkpt lat="45.82423" lon="4.81782">
        <ele>444</ele>
        <time>2012-12-16T09:14:18Z</time>
      </trkpt>
      <trkpt lat="45.82421" lon="4.81764">
        <ele>441</ele>
        <time>2012-12-16T09:14:23Z</time>
      </trkpt>
      <trkpt lat="45.82418" lon="4.81754">
        <ele>438</ele>
        <time>2012-12-16T09:14:26Z</time>
      </trkpt>
      <trkpt lat="45.82418" lon="4.81747">
        <ele>437</ele>
        <time>2012-12-16T09:14:28Z</time>
      </trkpt>
      <trkpt lat="45.82419" lon="4.81738">
        <ele>437</ele>
        <time>2012-12-16T09:14:31Z</time>
      </trkpt>
      <trkpt lat="45.82419" lon="4.81734">
        <ele>438</ele>
        <time>2012-12-16T09:14:33Z</time>
      </trkpt>
      <trkpt lat="45.82419" lon="4.81729">
        <ele>438</ele>
        <time>2012-12-16T09:14:35Z</time>
      </trkpt>
      <trkpt lat="45.82421" lon="4.81724">
        <ele>438</ele>
        <time>2012-12-16T09:14:37Z</time>
      </trkpt>
      <trkpt lat="45.8242" lon="4.81715">
        <ele>438</ele>
        <time>2012-12-16T09:14:41Z</time>
      </trkpt>
      <trkpt lat="45.8242" lon="4.81712">
        <ele>438</ele>
        <time>2012-12-16T09:14:45Z</time>
      </trkpt>
      <trkpt lat="45.82419" lon="4.81712">
        <ele>438</ele>
        <time>2012-12-16T09:14:46Z</time>
      </trkpt>
      <trkpt lat="45.82419" lon="4.81712">
        <ele>438</ele>
        <time>2012-12-16T09:14:47Z</time>
      </trkpt>
      <trkpt lat="45.82418" lon="4.81712">
        <ele>438</ele>
        <time>2012-12-16T09:14:49Z</time>
      </trkpt>
      <trkpt lat="45.82419" lon="4.8171">
        <ele>438</ele>
        <time>2012-12-16T09:14:57Z</time>
      </trkpt>
      <trkpt lat="45.82418" lon="4.8171">
        <ele>438</ele>
        <time>2012-12-16T09:15:00Z</time>
      </trkpt>
      <trkpt lat="45.82416" lon="4.81709">
        <ele>429</ele>
        <time>2012-12-16T09:15:01Z</time>
      </trkpt>
      <trkpt lat="45.82414" lon="4.81708">
        <ele>428</ele>
        <time>2012-12-16T09:15:02Z</time>
      </trkpt>
      <trkpt lat="45.82401" lon="4.81696">
        <ele>427</ele>
        <time>2012-12-16T09:15:09Z</time>
      </trkpt>
      <trkpt lat="45.82399" lon="4.81694">
        <ele>427</ele>
        <time>2012-12-16T09:15:10Z</time>
      </trkpt>
      <trkpt lat="45.82393" lon="4.81687">
        <ele>427</ele>
        <time>2012-12-16T09:15:13Z</time>
      </trkpt>
      <trkpt lat="45.82384" lon="4.8168">
        <ele>426</ele>
        <time>2012-12-16T09:15:17Z</time>
      </trkpt>
      <trkpt lat="45.82377" lon="4.81675">
        <ele>424</ele>
        <time>2012-12-16T09:15:20Z</time>
      </trkpt>
      <trkpt lat="45.82372" lon="4.81669">
        <ele>423</ele>
        <time>2012-12-16T09:15:23Z</time>
      </trkpt>
      <trkpt lat="45.82372" lon="4.81668">
        <ele>423</ele>
        <time>2012-12-16T09:15:24Z</time>
      </trkpt>
      <trkpt lat="45.82374" lon="4.81663">
        <ele>418</ele>
        <time>2012-12-16T09:15:34Z</time>
      </trkpt>
      <trkpt lat="45.82376" lon="4.81657">
        <ele>418</ele>
        <time>2012-12-16T09:15:39Z</time>
      </trkpt>
      <trkpt lat="45.82377" lon="4.81652">
        <ele>418</ele>
        <time>2012-12-16T09:15:42Z</time>
      </trkpt>
      <trkpt lat="45.82379" lon="4.81648">
        <ele>418</ele>
        <time>2012-12-16T09:15:45Z</time>
      </trkpt>
      <trkpt lat="45.82379" lon="4.81646">
        <ele>418</ele>
        <time>2012-12-16T09:15:46Z</time>
      </trkpt>
      <trkpt lat="45.82379" lon="4.81641">
        <ele>418</ele>
        <time>2012-12-16T09:15:49Z</time>
      </trkpt>
      <trkpt lat="45.8238" lon="4.81641">
        <ele>418</ele>
        <time>2012-12-16T09:15:51Z</time>
      </trkpt>
      <trkpt lat="45.82382" lon="4.81639">
        <ele>418</ele>
        <time>2012-12-16T09:15:57Z</time>
      </trkpt>
      <trkpt lat="45.82384" lon="4.81636">
        <ele>418</ele>
        <time>2012-12-16T09:16:01Z</time>
      </trkpt>
      <trkpt lat="45.82386" lon="4.81632">
        <ele>418</ele>
        <time>2012-12-16T09:16:07Z</time>
      </trkpt>
      <trkpt lat="45.82392" lon="4.8163">
        <ele>419</ele>
        <time>2012-12-16T09:16:15Z</time>
      </trkpt>
      <trkpt lat="45.82395" lon="4.81626">
        <ele>419</ele>
        <time>2012-12-16T09:16:22Z</time>
      </trkpt>
      <trkpt lat="45.82397" lon="4.81624">
        <ele>419</ele>
        <time>2012-12-16T09:16:26Z</time>
      </trkpt>
      <trkpt lat="45.82398" lon="4.81625">
        <ele>419</ele>
        <time>2012-12-16T09:16:27Z</time>
      </trkpt>
      <trkpt lat="45.824" lon="4.81631">
        <ele>420</ele>
        <time>2012-12-16T09:16:32Z</time>
      </trkpt>
      <trkpt lat="45.82401" lon="4.81631">
        <ele>420</ele>
        <time>2012-12-16T09:16:33Z</time>
      </trkpt>
      <trkpt lat="45.82406" lon="4.8163">
        <ele>420</ele>
        <time>2012-12-16T09:16:38Z</time>
      </trkpt>
      <trkpt lat="45.82413" lon="4.8163">
        <ele>421</ele>
        <time>2012-12-16T09:16:45Z</time>
      </trkpt>
      <trkpt lat="45.82414" lon="4.81629">
        <ele>421</ele>
        <time>2012-12-16T09:16:46Z</time>
      </trkpt>
      <trkpt lat="45.82416" lon="4.81629">
        <ele>421</ele>
        <time>2012-12-16T09:16:49Z</time>
      </trkpt>
      <trkpt lat="45.82424" lon="4.81626">
        <ele>433</ele>
        <time>2012-12-16T09:16:56Z</time>
      </trkpt>
      <trkpt lat="45.82424" lon="4.81624">
        <ele>433</ele>
        <time>2012-12-16T09:16:57Z</time>
      </trkpt>
      <trkpt lat="45.82426" lon="4.81623">
        <ele>433</ele>
        <time>2012-12-16T09:16:59Z</time>
      </trkpt>
      <trkpt lat="45.82427" lon="4.81623">
        <ele>433</ele>
        <time>2012-12-16T09:17:02Z</time>
      </trkpt>
      <trkpt lat="45.82431" lon="4.81624">
        <ele>433</ele>
        <time>2012-12-16T09:17:08Z</time>
      </trkpt>
      <trkpt lat="45.82435" lon="4.81622">
        <ele>433</ele>
        <time>2012-12-16T09:17:13Z</time>
      </trkpt>
      <trkpt lat="45.82436" lon="4.81619">
        <ele>433</ele>
        <time>2012-12-16T09:17:15Z</time>
      </trkpt>
      <trkpt lat="45.8244" lon="4.81615">
        <ele>433</ele>
        <time>2012-12-16T09:17:18Z</time>
      </trkpt>
      <trkpt lat="45.82444" lon="4.81608">
        <ele>433</ele>
        <time>2012-12-16T09:17:22Z</time>
      </trkpt>
      <trkpt lat="45.82445" lon="4.81606">
        <ele>433</ele>
        <time>2012-12-16T09:17:23Z</time>
      </trkpt>
      <trkpt lat="45.82447" lon="4.816">
        <ele>433</ele>
        <time>2012-12-16T09:17:26Z</time>
      </trkpt>
      <trkpt lat="45.82451" lon="4.816">
        <ele>433</ele>
        <time>2012-12-16T09:17:29Z</time>
      </trkpt>
      <trkpt lat="45.82456" lon="4.81592">
        <ele>434</ele>
        <time>2012-12-16T09:17:35Z</time>
      </trkpt>
      <trkpt lat="45.82456" lon="4.81591">
        <ele>434</ele>
        <time>2012-12-16T09:17:36Z</time>
      </trkpt>
      <trkpt lat="45.82457" lon="4.81586">
        <ele>434</ele>
        <time>2012-12-16T09:17:39Z</time>
      </trkpt>
      <trkpt lat="45.82458" lon="4.81583">
        <ele>429</ele>
        <time>2012-12-16T09:17:41Z</time>
      </trkpt>
      <trkpt lat="45.82459" lon="4.81578">
        <ele>430</ele>
        <time>2012-12-16T09:17:44Z</time>
      </trkpt>
      <trkpt lat="45.82457" lon="4.81571">
        <ele>429</ele>
        <time>2012-12-16T09:17:48Z</time>
      </trkpt>
      <trkpt lat="45.82457" lon="4.81569">
        <ele>429</ele>
        <time>2012-12-16T09:17:49Z</time>
      </trkpt>
      <trkpt lat="45.82459" lon="4.81568">
        <ele>429</ele>
        <time>2012-12-16T09:17:52Z</time>
      </trkpt>
      <trkpt lat="45.8245" lon="4.81559">
        <ele>428</ele>
        <time>2012-12-16T09:17:59Z</time>
      </trkpt>
      <trkpt lat="45.82446" lon="4.81556">
        <ele>427</ele>
        <time>2012-12-16T09:18:04Z</time>
      </trkpt>
      <trkpt lat="45.82445" lon="4.81553">
        <ele>427</ele>
        <time>2012-12-16T09:18:06Z</time>
      </trkpt>
      <trkpt lat="45.82443" lon="4.8155">
        <ele>427</ele>
        <time>2012-12-16T09:18:08Z</time>
      </trkpt>
      <trkpt lat="45.82441" lon="4.81548">
        <ele>426</ele>
        <time>2012-12-16T09:18:10Z</time>
      </trkpt>
      <trkpt lat="45.82433" lon="4.81541">
        <ele>425</ele>
        <time>2012-12-16T09:18:16Z</time>
      </trkpt>
      <trkpt lat="45.82432" lon="4.8154">
        <ele>425</ele>
        <time>2012-12-16T09:18:17Z</time>
      </trkpt>
      <trkpt lat="45.8243" lon="4.81537">
        <ele>425</ele>
        <time>2012-12-16T09:18:19Z</time>
      </trkpt>
      <trkpt lat="45.82427" lon="4.81532">
        <ele>424</ele>
        <time>2012-12-16T09:18:22Z</time>
      </trkpt>
      <trkpt lat="45.82423" lon="4.81526">
        <ele>423</ele>
        <time>2012-12-16T09:18:26Z</time>
      </trkpt>
      <trkpt lat="45.8242" lon="4.81522">
        <ele>422</ele>
        <time>2012-12-16T09:18:29Z</time>
      </trkpt>
      <trkpt lat="45.82417" lon="4.8152">
        <ele>422</ele>
        <time>2012-12-16T09:18:31Z</time>
      </trkpt>
      <trkpt lat="45.82417" lon="4.81518">
        <ele>421</ele>
        <time>2012-12-16T09:18:32Z</time>
      </trkpt>
      <trkpt lat="45.82417" lon="4.81516">
        <ele>412</ele>
        <time>2012-12-16T09:18:35Z</time>
      </trkpt>
      <trkpt lat="45.82414" lon="4.81511">
        <ele>412</ele>
        <time>2012-12-16T09:18:44Z</time>
      </trkpt>
      <trkpt lat="45.82409" lon="4.81509">
        <ele>412</ele>
        <time>2012-12-16T09:18:48Z</time>
      </trkpt>
      <trkpt lat="45.82408" lon="4.81508">
        <ele>412</ele>
        <time>2012-12-16T09:18:50Z</time>
      </trkpt>
      <trkpt lat="45.82406" lon="4.81509">
        <ele>412</ele>
        <time>2012-12-16T09:18:55Z</time>
      </trkpt>
      <trkpt lat="45.82405" lon="4.81508">
        <ele>412</ele>
        <time>2012-12-16T09:18:56Z</time>
      </trkpt>
      <trkpt lat="45.82403" lon="4.81507">
        <ele>411</ele>
        <time>2012-12-16T09:19:01Z</time>
      </trkpt>
      <trkpt lat="45.82404" lon="4.81507">
        <ele>412</ele>
        <time>2012-12-16T09:19:02Z</time>
      </trkpt>
      <trkpt lat="45.82407" lon="4.81506">
        <ele>412</ele>
        <time>2012-12-16T09:19:06Z</time>
      </trkpt>
      <trkpt lat="45.8241" lon="4.81502">
        <ele>413</ele>
        <time>2012-12-16T09:19:09Z</time>
      </trkpt>
      <trkpt lat="45.8241" lon="4.815">
        <ele>411</ele>
        <time>2012-12-16T09:19:10Z</time>
      </trkpt>
      <trkpt lat="45.82411" lon="4.81496">
        <ele>411</ele>
        <time>2012-12-16T09:19:13Z</time>
      </trkpt>
      <trkpt lat="45.82411" lon="4.81494">
        <ele>411</ele>
        <time>2012-12-16T09:19:14Z</time>
      </trkpt>
      <trkpt lat="45.82412" lon="4.81488">
        <ele>409</ele>
        <time>2012-12-16T09:19:19Z</time>
      </trkpt>
      <trkpt lat="45.82412" lon="4.81488">
        <ele>408</ele>
        <time>2012-12-16T09:19:20Z</time>
      </trkpt>
      <trkpt lat="45.82413" lon="4.81486">
        <ele>408</ele>
        <time>2012-12-16T09:19:27Z</time>
      </trkpt>
      <trkpt lat="45.82414" lon="4.81485">
        <ele>408</ele>
        <time>2012-12-16T09:19:32Z</time>
      </trkpt>
      <trkpt lat="45.82415" lon="4.81485">
        <ele>408</ele>
        <time>2012-12-16T09:19:38Z</time>
      </trkpt>
      <trkpt lat="45.82418" lon="4.81483">
        <ele>417</ele>
        <time>2012-12-16T09:19:41Z</time>
      </trkpt>
      <trkpt lat="45.8242" lon="4.8148">
        <ele>417</ele>
        <time>2012-12-16T09:19:45Z</time>
      </trkpt>
      <trkpt lat="45.82422" lon="4.81476">
        <ele>417</ele>
        <time>2012-12-16T09:19:48Z</time>
      </trkpt>
      <trkpt lat="45.82423" lon="4.81475">
        <ele>417</ele>
        <time>2012-12-16T09:19:50Z</time>
      </trkpt>
      <trkpt lat="45.82424" lon="4.81474">
        <ele>417</ele>
        <time>2012-12-16T09:19:51Z</time>
      </trkpt>
      <trkpt lat="45.82428" lon="4.81469">
        <ele>418</ele>
        <time>2012-12-16T09:19:56Z</time>
      </trkpt>
      <trkpt lat="45.8243" lon="4.81466">
        <ele>418</ele>
        <time>2012-12-16T09:20:02Z</time>
      </trkpt>
      <trkpt lat="45.82435" lon="4.81462">
        <ele>418</ele>
        <time>2012-12-16T09:20:06Z</time>
      </trkpt>
      <trkpt lat="45.82435" lon="4.8146">
        <ele>418</ele>
        <time>2012-12-16T09:20:07Z</time>
      </trkpt>
      <trkpt lat="45.82436" lon="4.81456">
        <ele>417</ele>
        <time>2012-12-16T09:20:14Z</time>
      </trkpt>
      <trkpt lat="45.82438" lon="4.81454">
        <ele>418</ele>
        <time>2012-12-16T09:20:15Z</time>
      </trkpt>
      <trkpt lat="45.82444" lon="4.81451">
        <ele>418</ele>
        <time>2012-12-16T09:20:19Z</time>
      </trkpt>
      <trkpt lat="45.82446" lon="4.8145">
        <ele>418</ele>
        <time>2012-12-16T09:20:20Z</time>
      </trkpt>
      <trkpt lat="45.8245" lon="4.81447">
        <ele>418</ele>
        <time>2012-12-16T09:20:25Z</time>
      </trkpt>
      <trkpt lat="45.82451" lon="4.81446">
        <ele>419</ele>
        <time>2012-12-16T09:20:26Z</time>
      </trkpt>
      <trkpt lat="45.82453" lon="4.81445">
        <ele>419</ele>
        <time>2012-12-16T09:20:28Z</time>
      </trkpt>
      <trkpt lat="45.82455" lon="4.81442">
        <ele>419</ele>
        <time>2012-12-16T09:20:30Z</time>
      </trkpt>
      <trkpt lat="45.82457" lon="4.81438">
        <ele>419</ele>
        <time>2012-12-16T09:20:35Z</time>
      </trkpt>
      <trkpt lat="45.82457" lon="4.81438">
        <ele>419</ele>
        <time>2012-12-16T09:20:36Z</time>
      </trkpt>
      <trkpt lat="45.82459" lon="4.81442">
        <ele>419</ele>
        <time>2012-12-16T09:20:40Z</time>
      </trkpt>
      <trkpt lat="45.82463" lon="4.81444">
        <ele>420</ele>
        <time>2012-12-16T09:20:45Z</time>
      </trkpt>
      <trkpt lat="45.82465" lon="4.81443">
        <ele>420</ele>
        <time>2012-12-16T09:20:47Z</time>
      </trkpt>
      <trkpt lat="45.82468" lon="4.81439">
        <ele>420</ele>
        <time>2012-12-16T09:20:50Z</time>
      </trkpt>
      <trkpt lat="45.82469" lon="4.81438">
        <ele>421</ele>
        <time>2012-12-16T09:20:51Z</time>
      </trkpt>
      <trkpt lat="45.82473" lon="4.81432">
        <ele>421</ele>
        <time>2012-12-16T09:20:56Z</time>
      </trkpt>
      <trkpt lat="45.82474" lon="4.81431">
        <ele>421</ele>
        <time>2012-12-16T09:20:57Z</time>
      </trkpt>
      <trkpt lat="45.82474" lon="4.81431">
        <ele>421</ele>
        <time>2012-12-16T09:20:58Z</time>
      </trkpt>
      <trkpt lat="45.82475" lon="4.8143">
        <ele>421</ele>
        <time>2012-12-16T09:21:00Z</time>
      </trkpt>
      <trkpt lat="45.82477" lon="4.81433">
        <ele>421</ele>
        <time>2012-12-16T09:21:19Z</time>
      </trkpt>
      <trkpt lat="45.82478" lon="4.81433">
        <ele>422</ele>
        <time>2012-12-16T09:21:41Z</time>
      </trkpt>
      <trkpt lat="45.82479" lon="4.81437">
        <ele>422</ele>
        <time>2012-12-16T09:21:47Z</time>
      </trkpt>
      <trkpt lat="45.82481" lon="4.81438">
        <ele>422</ele>
        <time>2012-12-16T09:21:50Z</time>
      </trkpt>
      <trkpt lat="45.82483" lon="4.81439">
        <ele>422</ele>
        <time>2012-12-16T09:21:51Z</time>
      </trkpt>
      <trkpt lat="45.82485" lon="4.81439">
        <ele>422</ele>
        <time>2012-12-16T09:21:52Z</time>
      </trkpt>
      <trkpt lat="45.82494" lon="4.81438">
        <ele>423</ele>
        <time>2012-12-16T09:21:56Z</time>
      </trkpt>
      <trkpt lat="45.82499" lon="4.81435">
        <ele>423</ele>
        <time>2012-12-16T09:21:59Z</time>
      </trkpt>
      <trkpt lat="45.82501" lon="4.81434">
        <ele>429</ele>
        <time>2012-12-16T09:22:00Z</time>
      </trkpt>
      <trkpt lat="45.82508" lon="4.81435">
        <ele>429</ele>
        <time>2012-12-16T09:22:03Z</time>
      </trkpt>
      <trkpt lat="45.82509" lon="4.81436">
        <ele>430</ele>
        <time>2012-12-16T09:22:04Z</time>
      </trkpt>
      <trkpt lat="45.82518" lon="4.81435">
        <ele>430</ele>
        <time>2012-12-16T09:22:09Z</time>
      </trkpt>
      <trkpt lat="45.82529" lon="4.8143">
        <ele>431</ele>
        <time>2012-12-16T09:22:15Z</time>
      </trkpt>
      <trkpt lat="45.8253" lon="4.8143">
        <ele>431</ele>
        <time>2012-12-16T09:22:16Z</time>
      </trkpt>
      <trkpt lat="45.82531" lon="4.8143">
        <ele>431</ele>
        <time>2012-12-16T09:22:18Z</time>
      </trkpt>
      <trkpt lat="45.82533" lon="4.81428">
        <ele>431</ele>
        <time>2012-12-16T09:22:23Z</time>
      </trkpt>
      <trkpt lat="45.82536" lon="4.81428">
        <ele>431</ele>
        <time>2012-12-16T09:22:50Z</time>
      </trkpt>
      <trkpt lat="45.8254" lon="4.81425">
        <ele>431</ele>
        <time>2012-12-16T09:22:53Z</time>
      </trkpt>
      <trkpt lat="45.82551" lon="4.81421">
        <ele>432</ele>
        <time>2012-12-16T09:22:58Z</time>
      </trkpt>
      <trkpt lat="45.82552" lon="4.81421">
        <ele>432</ele>
        <time>2012-12-16T09:22:59Z</time>
      </trkpt>
      <trkpt lat="45.82553" lon="4.81421">
        <ele>432</ele>
        <time>2012-12-16T09:23:02Z</time>
      </trkpt>
      <trkpt lat="45.82554" lon="4.81421">
        <ele>432</ele>
        <time>2012-12-16T09:23:03Z</time>
      </trkpt>
      <trkpt lat="45.82562" lon="4.81422">
        <ele>433</ele>
        <time>2012-12-16T09:23:08Z</time>
      </trkpt>
      <trkpt lat="45.82573" lon="4.81423">
        <ele>433</ele>
        <time>2012-12-16T09:23:12Z</time>
      </trkpt>
      <trkpt lat="45.82575" lon="4.81423">
        <ele>433</ele>
        <time>2012-12-16T09:23:13Z</time>
      </trkpt>
      <trkpt lat="45.82587" lon="4.81429">
        <ele>434</ele>
        <time>2012-12-16T09:23:18Z</time>
      </trkpt>
      <trkpt lat="45.82591" lon="4.81433">
        <ele>434</ele>
        <time>2012-12-16T09:23:20Z</time>
      </trkpt>
      <trkpt lat="45.82595" lon="4.81434">
        <ele>434</ele>
        <time>2012-12-16T09:23:23Z</time>
      </trkpt>
      <trkpt lat="45.82606" lon="4.81432">
        <ele>434</ele>
        <time>2012-12-16T09:23:29Z</time>
      </trkpt>
      <trkpt lat="45.82608" lon="4.81432">
        <ele>434</ele>
        <time>2012-12-16T09:23:30Z</time>
      </trkpt>
      <trkpt lat="45.82609" lon="4.81433">
        <ele>434</ele>
        <time>2012-12-16T09:23:31Z</time>
      </trkpt>
      <trkpt lat="45.82611" lon="4.81433">
        <ele>434</ele>
        <time>2012-12-16T09:23:33Z</time>
      </trkpt>
      <trkpt lat="45.8262" lon="4.81429">
        <ele>433</ele>
        <time>2012-12-16T09:23:39Z</time>
      </trkpt>
      <trkpt lat="45.82626" lon="4.81428">
        <ele>433</ele>
        <time>2012-12-16T09:23:44Z</time>
      </trkpt>
      <trkpt lat="45.82628" lon="4.81426">
        <ele>433</ele>
        <time>2012-12-16T09:23:45Z</time>
      </trkpt>
      <trkpt lat="45.82636" lon="4.81422">
        <ele>433</ele>
        <time>2012-12-16T09:23:50Z</time>
      </trkpt>
      <trkpt lat="45.82643" lon="4.81417">
        <ele>428</ele>
        <time>2012-12-16T09:23:55Z</time>
      </trkpt>
      <trkpt lat="45.82644" lon="4.81416">
        <ele>428</ele>
        <time>2012-12-16T09:23:56Z</time>
      </trkpt>
      <trkpt lat="45.82649" lon="4.81419">
        <ele>432</ele>
        <time>2012-12-16T09:23:59Z</time>
      </trkpt>
      <trkpt lat="45.82653" lon="4.81422">
        <ele>431</ele>
        <time>2012-12-16T09:24:03Z</time>
      </trkpt>
      <trkpt lat="45.82654" lon="4.81422">
        <ele>431</ele>
        <time>2012-12-16T09:24:04Z</time>
      </trkpt>
      <trkpt lat="45.82659" lon="4.8142">
        <ele>430</ele>
        <time>2012-12-16T09:24:08Z</time>
      </trkpt>
      <trkpt lat="45.82662" lon="4.8142">
        <ele>430</ele>
        <time>2012-12-16T09:24:10Z</time>
      </trkpt>
      <trkpt lat="45.82666" lon="4.81419">
        <ele>430</ele>
        <time>2012-12-16T09:24:12Z</time>
      </trkpt>
      <trkpt lat="45.82673" lon="4.81414">
        <ele>427</ele>
        <time>2012-12-16T09:24:18Z</time>
      </trkpt>
      <trkpt lat="45.8268" lon="4.81415">
        <ele>426</ele>
        <time>2012-12-16T09:24:21Z</time>
      </trkpt>
      <trkpt lat="45.82689" lon="4.81416">
        <ele>425</ele>
        <time>2012-12-16T09:24:26Z</time>
      </trkpt>
      <trkpt lat="45.82699" lon="4.81415">
        <ele>424</ele>
        <time>2012-12-16T09:24:31Z</time>
      </trkpt>
      <trkpt lat="45.82705" lon="4.81417">
        <ele>429</ele>
        <time>2012-12-16T09:24:35Z</time>
      </trkpt>
      <trkpt lat="45.82709" lon="4.81417">
        <ele>429</ele>
        <time>2012-12-16T09:24:40Z</time>
      </trkpt>
      <trkpt lat="45.82714" lon="4.81419">
        <ele>429</ele>
        <time>2012-12-16T09:24:45Z</time>
      </trkpt>
      <trkpt lat="45.82716" lon="4.81419">
        <ele>428</ele>
        <time>2012-12-16T09:24:46Z</time>
      </trkpt>
      <trkpt lat="45.82718" lon="4.81419">
        <ele>428</ele>
        <time>2012-12-16T09:24:49Z</time>
      </trkpt>
      <trkpt lat="45.82719" lon="4.81418">
        <ele>428</ele>
        <time>2012-12-16T09:24:50Z</time>
      </trkpt>
      <trkpt lat="45.82719" lon="4.81417">
        <ele>428</ele>
        <time>2012-12-16T09:24:51Z</time>
      </trkpt>
      <trkpt lat="45.82723" lon="4.81417">
        <ele>428</ele>
        <time>2012-12-16T09:25:01Z</time>
      </trkpt>
      <trkpt lat="45.82727" lon="4.81421">
        <ele>428</ele>
        <time>2012-12-16T09:25:05Z</time>
      </trkpt>
      <trkpt lat="45.82731" lon="4.81423">
        <ele>427</ele>
        <time>2012-12-16T09:25:08Z</time>
      </trkpt>
      <trkpt lat="45.82734" lon="4.81425">
        <ele>427</ele>
        <time>2012-12-16T09:25:10Z</time>
      </trkpt>
      <trkpt lat="45.82735" lon="4.81426">
        <ele>427</ele>
        <time>2012-12-16T09:25:11Z</time>
      </trkpt>
      <trkpt lat="45.82736" lon="4.81427">
        <ele>427</ele>
        <time>2012-12-16T09:25:12Z</time>
      </trkpt>
      <trkpt lat="45.82738" lon="4.81428">
        <ele>427</ele>
        <time>2012-12-16T09:25:14Z</time>
      </trkpt>
      <trkpt lat="45.82738" lon="4.81429">
        <ele>427</ele>
        <time>2012-12-16T09:25:15Z</time>
      </trkpt>
      <trkpt lat="45.8274" lon="4.8143">
        <ele>427</ele>
        <time>2012-12-16T09:25:17Z</time>
      </trkpt>
      <trkpt lat="45.82743" lon="4.81433">
        <ele>427</ele>
        <time>2012-12-16T09:25:20Z</time>
      </trkpt>
      <trkpt lat="45.82744" lon="4.81434">
        <ele>427</ele>
        <time>2012-12-16T09:25:21Z</time>
      </trkpt>
      <trkpt lat="45.82747" lon="4.81436">
        <ele>427</ele>
        <time>2012-12-16T09:25:25Z</time>
      </trkpt>
      <trkpt lat="45.82747" lon="4.81436">
        <ele>427</ele>
        <time>2012-12-16T09:25:26Z</time>
      </trkpt>
      <trkpt lat="45.82749" lon="4.81436">
        <ele>427</ele>
        <time>2012-12-16T09:25:37Z</time>
      </trkpt>
      <trkpt lat="45.82745" lon="4.81436">
        <ele>427</ele>
        <time>2012-12-16T09:26:00Z</time>
      </trkpt>
      <trkpt lat="45.82747" lon="4.81437">
        <ele>427</ele>
        <time>2012-12-16T09:26:22Z</time>
      </trkpt>
      <trkpt lat="45.82747" lon="4.81438">
        <ele>428</ele>
        <time>2012-12-16T09:26:26Z</time>
      </trkpt>
      <trkpt lat="45.82747" lon="4.81434">
        <ele>427</ele>
        <time>2012-12-16T09:26:49Z</time>
      </trkpt>
      <trkpt lat="45.82754" lon="4.81427">
        <ele>421</ele>
        <time>2012-12-16T09:26:55Z</time>
      </trkpt>
      <trkpt lat="45.82759" lon="4.81421">
        <ele>421</ele>
        <time>2012-12-16T09:26:58Z</time>
      </trkpt>
      <trkpt lat="45.82761" lon="4.81417">
        <ele>420</ele>
        <time>2012-12-16T09:27:01Z</time>
      </trkpt>
      <trkpt lat="45.82767" lon="4.81404">
        <ele>418</ele>
        <time>2012-12-16T09:27:06Z</time>
      </trkpt>
      <trkpt lat="45.82769" lon="4.81402">
        <ele>417</ele>
        <time>2012-12-16T09:27:07Z</time>
      </trkpt>
      <trkpt lat="45.8277" lon="4.81399">
        <ele>417</ele>
        <time>2012-12-16T09:27:08Z</time>
      </trkpt>
      <trkpt lat="45.82775" lon="4.81388">
        <ele>416</ele>
        <time>2012-12-16T09:27:12Z</time>
      </trkpt>
      <trkpt lat="45.8278" lon="4.81374">
        <ele>415</ele>
        <time>2012-12-16T09:27:16Z</time>
      </trkpt>
      <trkpt lat="45.82782" lon="4.81363">
        <ele>415</ele>
        <time>2012-12-16T09:27:19Z</time>
      </trkpt>
      <trkpt lat="45.82785" lon="4.81348">
        <ele>414</ele>
        <time>2012-12-16T09:27:23Z</time>
      </trkpt>
      <trkpt lat="45.82787" lon="4.81337">
        <ele>414</ele>
        <time>2012-12-16T09:27:26Z</time>
      </trkpt>
      <trkpt lat="45.82789" lon="4.81322">
        <ele>413</ele>
        <time>2012-12-16T09:27:30Z</time>
      </trkpt>
      <trkpt lat="45.8279" lon="4.81314">
        <ele>413</ele>
        <time>2012-12-16T09:27:32Z</time>
      </trkpt>
      <trkpt lat="45.82794" lon="4.81296">
        <ele>413</ele>
        <time>2012-12-16T09:27:37Z</time>
      </trkpt>
      <trkpt lat="45.82796" lon="4.81293">
        <ele>413</ele>
        <time>2012-12-16T09:27:38Z</time>
      </trkpt>
      <trkpt lat="45.82801" lon="4.81275">
        <ele>413</ele>
        <time>2012-12-16T09:27:43Z</time>
      </trkpt>
      <trkpt lat="45.82803" lon="4.81272">
        <ele>413</ele>
        <time>2012-12-16T09:27:44Z</time>
      </trkpt>
      <trkpt lat="45.82809" lon="4.81255">
        <ele>412</ele>
        <time>2012-12-16T09:27:49Z</time>
      </trkpt>
      <trkpt lat="45.82811" lon="4.81248">
        <ele>411</ele>
        <time>2012-12-16T09:27:51Z</time>
      </trkpt>
      <trkpt lat="45.82816" lon="4.81234">
        <ele>411</ele>
        <time>2012-12-16T09:27:55Z</time>
      </trkpt>
      <trkpt lat="45.8282" lon="4.81223">
        <ele>411</ele>
        <time>2012-12-16T09:27:58Z</time>
      </trkpt>
      <trkpt lat="45.82823" lon="4.81213">
        <ele>411</ele>
        <time>2012-12-16T09:28:01Z</time>
      </trkpt>
      <trkpt lat="45.82828" lon="4.812">
        <ele>411</ele>
        <time>2012-12-16T09:28:05Z</time>
      </trkpt>
      <trkpt lat="45.82831" lon="4.8119">
        <ele>410</ele>
        <time>2012-12-16T09:28:08Z</time>
      </trkpt>
      <trkpt lat="45.82836" lon="4.81176">
        <ele>408</ele>
        <time>2012-12-16T09:28:12Z</time>
      </trkpt>
      <trkpt lat="45.8284" lon="4.81163">
        <ele>409</ele>
        <time>2012-12-16T09:28:16Z</time>
      </trkpt>
      <trkpt lat="45.82844" lon="4.81151">
        <ele>408</ele>
        <time>2012-12-16T09:28:20Z</time>
      </trkpt>
      <trkpt lat="45.82847" lon="4.81137">
        <ele>408</ele>
        <time>2012-12-16T09:28:24Z</time>
      </trkpt>
      <trkpt lat="45.82847" lon="4.8113">
        <ele>408</ele>
        <time>2012-12-16T09:28:26Z</time>
      </trkpt>
      <trkpt lat="45.82851" lon="4.81125">
        <ele>408</ele>
        <time>2012-12-16T09:28:28Z</time>
      </trkpt>
      <trkpt lat="45.82855" lon="4.81121">
        <ele>408</ele>
        <time>2012-12-16T09:28:30Z</time>
      </trkpt>
      <trkpt lat="45.82863" lon="4.81113">
        <ele>407</ele>
        <time>2012-12-16T09:28:34Z</time>
      </trkpt>
      <trkpt lat="45.82865" lon="4.81112">
        <ele>407</ele>
        <time>2012-12-16T09:28:35Z</time>
      </trkpt>
      <trkpt lat="45.82867" lon="4.8111">
        <ele>407</ele>
        <time>2012-12-16T09:28:36Z</time>
      </trkpt>
      <trkpt lat="45.82872" lon="4.8111">
        <ele>407</ele>
        <time>2012-12-16T09:28:38Z</time>
      </trkpt>
      <trkpt lat="45.82881" lon="4.81118">
        <ele>408</ele>
        <time>2012-12-16T09:28:43Z</time>
      </trkpt>
      <trkpt lat="45.82886" lon="4.81115">
        <ele>408</ele>
        <time>2012-12-16T09:28:45Z</time>
      </trkpt>
      <trkpt lat="45.82893" lon="4.81112">
        <ele>408</ele>
        <time>2012-12-16T09:28:48Z</time>
      </trkpt>
      <trkpt lat="45.82904" lon="4.8111">
        <ele>408</ele>
        <time>2012-12-16T09:28:53Z</time>
      </trkpt>
      <trkpt lat="45.82907" lon="4.81109">
        <ele>408</ele>
        <time>2012-12-16T09:28:54Z</time>
      </trkpt>
      <trkpt lat="45.82919" lon="4.81107">
        <ele>404</ele>
        <time>2012-12-16T09:28:59Z</time>
      </trkpt>
      <trkpt lat="45.82923" lon="4.81105">
        <ele>404</ele>
        <time>2012-12-16T09:29:01Z</time>
      </trkpt>
      <trkpt lat="45.8293" lon="4.81102">
        <ele>404</ele>
        <time>2012-12-16T09:29:04Z</time>
      </trkpt>
      <trkpt lat="45.82943" lon="4.81099">
        <ele>403</ele>
        <time>2012-12-16T09:29:09Z</time>
      </trkpt>
      <trkpt lat="45.82954" lon="4.81095">
        <ele>402</ele>
        <time>2012-12-16T09:29:14Z</time>
      </trkpt>
      <trkpt lat="45.8296" lon="4.81091">
        <ele>402</ele>
        <time>2012-12-16T09:29:17Z</time>
      </trkpt>
      <trkpt lat="45.82965" lon="4.81088">
        <ele>402</ele>
        <time>2012-12-16T09:29:19Z</time>
      </trkpt>
      <trkpt lat="45.82973" lon="4.81084">
        <ele>402</ele>
        <time>2012-12-16T09:29:23Z</time>
      </trkpt>
      <trkpt lat="45.82978" lon="4.81083">
        <ele>407</ele>
        <time>2012-12-16T09:29:25Z</time>
      </trkpt>
      <trkpt lat="45.82986" lon="4.81079">
        <ele>407</ele>
        <time>2012-12-16T09:29:28Z</time>
      </trkpt>
      <trkpt lat="45.82995" lon="4.81075">
        <ele>406</ele>
        <time>2012-12-16T09:29:31Z</time>
      </trkpt>
      <trkpt lat="45.83004" lon="4.81072">
        <ele>404</ele>
        <time>2012-12-16T09:29:34Z</time>
      </trkpt>
      <trkpt lat="45.83014" lon="4.81065">
        <ele>403</ele>
        <time>2012-12-16T09:29:38Z</time>
      </trkpt>
      <trkpt lat="45.83026" lon="4.81061">
        <ele>402</ele>
        <time>2012-12-16T09:29:43Z</time>
      </trkpt>
      <trkpt lat="45.83033" lon="4.81057">
        <ele>402</ele>
        <time>2012-12-16T09:29:46Z</time>
      </trkpt>
      <trkpt lat="45.83039" lon="4.81056">
        <ele>402</ele>
        <time>2012-12-16T09:29:48Z</time>
      </trkpt>
      <trkpt lat="45.83051" lon="4.81052">
        <ele>401</ele>
        <time>2012-12-16T09:29:52Z</time>
      </trkpt>
      <trkpt lat="45.83054" lon="4.81052">
        <ele>400</ele>
        <time>2012-12-16T09:29:53Z</time>
      </trkpt>
      <trkpt lat="45.8307" lon="4.81043">
        <ele>400</ele>
        <time>2012-12-16T09:29:58Z</time>
      </trkpt>
      <trkpt lat="45.83084" lon="4.81031">
        <ele>393</ele>
        <time>2012-12-16T09:30:03Z</time>
      </trkpt>
      <trkpt lat="45.83085" lon="4.81028">
        <ele>394</ele>
        <time>2012-12-16T09:30:04Z</time>
      </trkpt>
      <trkpt lat="45.83095" lon="4.8102">
        <ele>395</ele>
        <time>2012-12-16T09:30:07Z</time>
      </trkpt>
      <trkpt lat="45.83103" lon="4.81016">
        <ele>394</ele>
        <time>2012-12-16T09:30:09Z</time>
      </trkpt>
      <trkpt lat="45.83105" lon="4.81005">
        <ele>395</ele>
        <time>2012-12-16T09:30:12Z</time>
      </trkpt>
      <trkpt lat="45.83111" lon="4.80991">
        <ele>403</ele>
        <time>2012-12-16T09:30:16Z</time>
      </trkpt>
      <trkpt lat="45.83115" lon="4.80987">
        <ele>403</ele>
        <time>2012-12-16T09:30:18Z</time>
      </trkpt>
      <trkpt lat="45.8312" lon="4.80984">
        <ele>403</ele>
        <time>2012-12-16T09:30:21Z</time>
      </trkpt>
      <trkpt lat="45.83128" lon="4.80981">
        <ele>402</ele>
        <time>2012-12-16T09:30:24Z</time>
      </trkpt>
      <trkpt lat="45.83131" lon="4.8098">
        <ele>402</ele>
        <time>2012-12-16T09:30:25Z</time>
      </trkpt>
      <trkpt lat="45.83141" lon="4.80979">
        <ele>401</ele>
        <time>2012-12-16T09:30:30Z</time>
      </trkpt>
      <trkpt lat="45.83145" lon="4.80987">
        <ele>399</ele>
        <time>2012-12-16T09:30:34Z</time>
      </trkpt>
      <trkpt lat="45.83144" lon="4.80997">
        <ele>398</ele>
        <time>2012-12-16T09:30:37Z</time>
      </trkpt>
      <trkpt lat="45.83144" lon="4.81">
        <ele>398</ele>
        <time>2012-12-16T09:30:38Z</time>
      </trkpt>
      <trkpt lat="45.83144" lon="4.81016">
        <ele>389</ele>
        <time>2012-12-16T09:30:42Z</time>
      </trkpt>
      <trkpt lat="45.83146" lon="4.81029">
        <ele>388</ele>
        <time>2012-12-16T09:30:46Z</time>
      </trkpt>
      <trkpt lat="45.8315" lon="4.81041">
        <ele>387</ele>
        <time>2012-12-16T09:30:49Z</time>
      </trkpt>
      <trkpt lat="45.83152" lon="4.81044">
        <ele>386</ele>
        <time>2012-12-16T09:30:50Z</time>
      </trkpt>
      <trkpt lat="45.83157" lon="4.81052">
        <ele>385</ele>
        <time>2012-12-16T09:30:54Z</time>
      </trkpt>
      <trkpt lat="45.83159" lon="4.81054">
        <ele>384</ele>
        <time>2012-12-16T09:30:55Z</time>
      </trkpt>
      <trkpt lat="45.83164" lon="4.8106">
        <ele>383</ele>
        <time>2012-12-16T09:30:58Z</time>
      </trkpt>
      <trkpt lat="45.83165" lon="4.8106">
        <ele>383</ele>
        <time>2012-12-16T09:30:59Z</time>
      </trkpt>
      <trkpt lat="45.83169" lon="4.81063">
        <ele>380</ele>
        <time>2012-12-16T09:31:01Z</time>
      </trkpt>
      <trkpt lat="45.83176" lon="4.81066">
        <ele>380</ele>
        <time>2012-12-16T09:31:04Z</time>
      </trkpt>
      <trkpt lat="45.83183" lon="4.81069">
        <ele>380</ele>
        <time>2012-12-16T09:31:07Z</time>
      </trkpt>
      <trkpt lat="45.83185" lon="4.81069">
        <ele>380</ele>
        <time>2012-12-16T09:31:08Z</time>
      </trkpt>
      <trkpt lat="45.83191" lon="4.8107">
        <ele>381</ele>
        <time>2012-12-16T09:31:10Z</time>
      </trkpt>
      <trkpt lat="45.83201" lon="4.81073">
        <ele>381</ele>
        <time>2012-12-16T09:31:14Z</time>
      </trkpt>
      <trkpt lat="45.83204" lon="4.81074">
        <ele>381</ele>
        <time>2012-12-16T09:31:15Z</time>
      </trkpt>
      <trkpt lat="45.83219" lon="4.81075">
        <ele>381</ele>
        <time>2012-12-16T09:31:21Z</time>
      </trkpt>
      <trkpt lat="45.83235" lon="4.81081">
        <ele>380</ele>
        <time>2012-12-16T09:31:27Z</time>
      </trkpt>
      <trkpt lat="45.83238" lon="4.81084">
        <ele>374</ele>
        <time>2012-12-16T09:31:28Z</time>
      </trkpt>
      <trkpt lat="45.83242" lon="4.81096">
        <ele>374</ele>
        <time>2012-12-16T09:31:31Z</time>
      </trkpt>
      <trkpt lat="45.83244" lon="4.8111">
        <ele>372</ele>
        <time>2012-12-16T09:31:34Z</time>
      </trkpt>
      <trkpt lat="45.83243" lon="4.81119">
        <ele>371</ele>
        <time>2012-12-16T09:31:36Z</time>
      </trkpt>
      <trkpt lat="45.8324" lon="4.81134">
        <ele>369</ele>
        <time>2012-12-16T09:31:41Z</time>
      </trkpt>
      <trkpt lat="45.83239" lon="4.81138">
        <ele>369</ele>
        <time>2012-12-16T09:31:42Z</time>
      </trkpt>
      <trkpt lat="45.83235" lon="4.81149">
        <ele>368</ele>
        <time>2012-12-16T09:31:45Z</time>
      </trkpt>
      <trkpt lat="45.83233" lon="4.81166">
        <ele>367</ele>
        <time>2012-12-16T09:31:49Z</time>
      </trkpt>
      <trkpt lat="45.83233" lon="4.81169">
        <ele>362</ele>
        <time>2012-12-16T09:31:50Z</time>
      </trkpt>
      <trkpt lat="45.83236" lon="4.81189">
        <ele>360</ele>
        <time>2012-12-16T09:31:55Z</time>
      </trkpt>
      <trkpt lat="45.83236" lon="4.81192">
        <ele>360</ele>
        <time>2012-12-16T09:31:56Z</time>
      </trkpt>
      <trkpt lat="45.83236" lon="4.81206">
        <ele>359</ele>
        <time>2012-12-16T09:32:00Z</time>
      </trkpt>
      <trkpt lat="45.83236" lon="4.81216">
        <ele>358</ele>
        <time>2012-12-16T09:32:03Z</time>
      </trkpt>
      <trkpt lat="45.83236" lon="4.81219">
        <ele>357</ele>
        <time>2012-12-16T09:32:04Z</time>
      </trkpt>
      <trkpt lat="45.83236" lon="4.81223">
        <ele>357</ele>
        <time>2012-12-16T09:32:05Z</time>
      </trkpt>
      <trkpt lat="45.83235" lon="4.81243">
        <ele>356</ele>
        <time>2012-12-16T09:32:11Z</time>
      </trkpt>
      <trkpt lat="45.83236" lon="4.81247">
        <ele>356</ele>
        <time>2012-12-16T09:32:12Z</time>
      </trkpt>
      <trkpt lat="45.83236" lon="4.81261">
        <ele>350</ele>
        <time>2012-12-16T09:32:16Z</time>
      </trkpt>
      <trkpt lat="45.83238" lon="4.81275">
        <ele>348</ele>
        <time>2012-12-16T09:32:21Z</time>
      </trkpt>
      <trkpt lat="45.83239" lon="4.81277">
        <ele>348</ele>
        <time>2012-12-16T09:32:22Z</time>
      </trkpt>
      <trkpt lat="45.83241" lon="4.81288">
        <ele>346</ele>
        <time>2012-12-16T09:32:27Z</time>
      </trkpt>
      <trkpt lat="45.83242" lon="4.8129">
        <ele>346</ele>
        <time>2012-12-16T09:32:28Z</time>
      </trkpt>
      <trkpt lat="45.83246" lon="4.81302">
        <ele>345</ele>
        <time>2012-12-16T09:32:33Z</time>
      </trkpt>
      <trkpt lat="45.83248" lon="4.81305">
        <ele>345</ele>
        <time>2012-12-16T09:32:34Z</time>
      </trkpt>
      <trkpt lat="45.8325" lon="4.8131">
        <ele>349</ele>
        <time>2012-12-16T09:32:36Z</time>
      </trkpt>
      <trkpt lat="45.83254" lon="4.81317">
        <ele>348</ele>
        <time>2012-12-16T09:32:39Z</time>
      </trkpt>
      <trkpt lat="45.83256" lon="4.8132">
        <ele>348</ele>
        <time>2012-12-16T09:32:41Z</time>
      </trkpt>
      <trkpt lat="45.83257" lon="4.81322">
        <ele>347</ele>
        <time>2012-12-16T09:32:42Z</time>
      </trkpt>
      <trkpt lat="45.83257" lon="4.81325">
        <ele>347</ele>
        <time>2012-12-16T09:32:44Z</time>
      </trkpt>
      <trkpt lat="45.83256" lon="4.81326">
        <ele>347</ele>
        <time>2012-12-16T09:32:45Z</time>
      </trkpt>
      <trkpt lat="45.83251" lon="4.81332">
        <ele>345</ele>
        <time>2012-12-16T09:32:49Z</time>
      </trkpt>
      <trkpt lat="45.8325" lon="4.8134">
        <ele>340</ele>
        <time>2012-12-16T09:32:53Z</time>
      </trkpt>
      <trkpt lat="45.83249" lon="4.81345">
        <ele>337</ele>
        <time>2012-12-16T09:32:57Z</time>
      </trkpt>
      <trkpt lat="45.83247" lon="4.81345">
        <ele>337</ele>
        <time>2012-12-16T09:32:59Z</time>
      </trkpt>
      <trkpt lat="45.83245" lon="4.81346">
        <ele>337</ele>
        <time>2012-12-16T09:33:00Z</time>
      </trkpt>
      <trkpt lat="45.83239" lon="4.81352">
        <ele>334</ele>
        <time>2012-12-16T09:33:03Z</time>
      </trkpt>
      <trkpt lat="45.83233" lon="4.81357">
        <ele>332</ele>
        <time>2012-12-16T09:33:06Z</time>
      </trkpt>
      <trkpt lat="45.83231" lon="4.81356">
        <ele>332</ele>
        <time>2012-12-16T09:33:07Z</time>
      </trkpt>
      <trkpt lat="45.83229" lon="4.81356">
        <ele>332</ele>
        <time>2012-12-16T09:33:08Z</time>
      </trkpt>
      <trkpt lat="45.8322" lon="4.8135">
        <ele>331</ele>
        <time>2012-12-16T09:33:12Z</time>
      </trkpt>
      <trkpt lat="45.83215" lon="4.81353">
        <ele>330</ele>
        <time>2012-12-16T09:33:15Z</time>
      </trkpt>
      <trkpt lat="45.83213" lon="4.81356">
        <ele>329</ele>
        <time>2012-12-16T09:33:16Z</time>
      </trkpt>
      <trkpt lat="45.83203" lon="4.81356">
        <ele>328</ele>
        <time>2012-12-16T09:33:20Z</time>
      </trkpt>
      <trkpt lat="45.83199" lon="4.81355">
        <ele>328</ele>
        <time>2012-12-16T09:33:24Z</time>
      </trkpt>
      <trkpt lat="45.83198" lon="4.81357">
        <ele>328</ele>
        <time>2012-12-16T09:33:25Z</time>
      </trkpt>
      <trkpt lat="45.83191" lon="4.81355">
        <ele>328</ele>
        <time>2012-12-16T09:33:29Z</time>
      </trkpt>
      <trkpt lat="45.83188" lon="4.81353">
        <ele>328</ele>
        <time>2012-12-16T09:33:31Z</time>
      </trkpt>
      <trkpt lat="45.83184" lon="4.81354">
        <ele>327</ele>
        <time>2012-12-16T09:33:33Z</time>
      </trkpt>
      <trkpt lat="45.83179" lon="4.81351">
        <ele>328</ele>
        <time>2012-12-16T09:33:35Z</time>
      </trkpt>
      <trkpt lat="45.83174" lon="4.81349">
        <ele>328</ele>
        <time>2012-12-16T09:33:37Z</time>
      </trkpt>
      <trkpt lat="45.83161" lon="4.81342">
        <ele>325</ele>
        <time>2012-12-16T09:33:42Z</time>
      </trkpt>
      <trkpt lat="45.83159" lon="4.8134">
        <ele>325</ele>
        <time>2012-12-16T09:33:43Z</time>
      </trkpt>
      <trkpt lat="45.83145" lon="4.81331">
        <ele>331</ele>
        <time>2012-12-16T09:33:48Z</time>
      </trkpt>
      <trkpt lat="45.83144" lon="4.8133">
        <ele>331</ele>
        <time>2012-12-16T09:33:49Z</time>
      </trkpt>
      <trkpt lat="45.83135" lon="4.81321">
        <ele>332</ele>
        <time>2012-12-16T09:33:53Z</time>
      </trkpt>
      <trkpt lat="45.83133" lon="4.8132">
        <ele>332</ele>
        <time>2012-12-16T09:33:54Z</time>
      </trkpt>
      <trkpt lat="45.83131" lon="4.81318">
        <ele>332</ele>
        <time>2012-12-16T09:33:56Z</time>
      </trkpt>
      <trkpt lat="45.8313" lon="4.81321">
        <ele>331</ele>
        <time>2012-12-16T09:33:58Z</time>
      </trkpt>
      <trkpt lat="45.83128" lon="4.81329">
        <ele>331</ele>
        <time>2012-12-16T09:34:01Z</time>
      </trkpt>
      <trkpt lat="45.83127" lon="4.81333">
        <ele>330</ele>
        <time>2012-12-16T09:34:02Z</time>
      </trkpt>
      <trkpt lat="45.83129" lon="4.81343">
        <ele>319</ele>
        <time>2012-12-16T09:34:07Z</time>
      </trkpt>
      <trkpt lat="45.83125" lon="4.81348">
        <ele>318</ele>
        <time>2012-12-16T09:34:09Z</time>
      </trkpt>
      <trkpt lat="45.83117" lon="4.81351">
        <ele>317</ele>
        <time>2012-12-16T09:34:11Z</time>
      </trkpt>
      <trkpt lat="45.83109" lon="4.81354">
        <ele>317</ele>
        <time>2012-12-16T09:34:13Z</time>
      </trkpt>
      <trkpt lat="45.83105" lon="4.81355">
        <ele>317</ele>
        <time>2012-12-16T09:34:14Z</time>
      </trkpt>
      <trkpt lat="45.83098" lon="4.81355">
        <ele>317</ele>
        <time>2012-12-16T09:34:16Z</time>
      </trkpt>
      <trkpt lat="45.83088" lon="4.81357">
        <ele>316</ele>
        <time>2012-12-16T09:34:20Z</time>
      </trkpt>
      <trkpt lat="45.83087" lon="4.81357">
        <ele>316</ele>
        <time>2012-12-16T09:34:21Z</time>
      </trkpt>
      <trkpt lat="45.83084" lon="4.81357">
        <ele>316</ele>
        <time>2012-12-16T09:34:23Z</time>
      </trkpt>
      <trkpt lat="45.83083" lon="4.81357">
        <ele>317</ele>
        <time>2012-12-16T09:34:24Z</time>
      </trkpt>
      <trkpt lat="45.8308" lon="4.81358">
        <ele>317</ele>
        <time>2012-12-16T09:34:28Z</time>
      </trkpt>
      <trkpt lat="45.83087" lon="4.81363">
        <ele>316</ele>
        <time>2012-12-16T09:35:45Z</time>
      </trkpt>
      <trkpt lat="45.83088" lon="4.81356">
        <ele>316</ele>
        <time>2012-12-16T09:36:37Z</time>
      </trkpt>
      <trkpt lat="45.8309" lon="4.81349">
        <ele>317</ele>
        <time>2012-12-16T09:36:41Z</time>
      </trkpt>
      <trkpt lat="45.8309" lon="4.81348">
        <ele>317</ele>
        <time>2012-12-16T09:36:42Z</time>
      </trkpt>
      <trkpt lat="45.83089" lon="4.81344">
        <ele>318</ele>
        <time>2012-12-16T09:36:45Z</time>
      </trkpt>
      <trkpt lat="45.83089" lon="4.81343">
        <ele>318</ele>
        <time>2012-12-16T09:36:47Z</time>
      </trkpt>
      <trkpt lat="45.83091" lon="4.81338">
        <ele>318</ele>
        <time>2012-12-16T09:36:52Z</time>
      </trkpt>
      <trkpt lat="45.83092" lon="4.81324">
        <ele>325</ele>
        <time>2012-12-16T09:37:10Z</time>
      </trkpt>
      <trkpt lat="45.83091" lon="4.81324">
        <ele>325</ele>
        <time>2012-12-16T09:37:11Z</time>
      </trkpt>
      <trkpt lat="45.83091" lon="4.8132">
        <ele>326</ele>
        <time>2012-12-16T09:37:14Z</time>
      </trkpt>
      <trkpt lat="45.83092" lon="4.81314">
        <ele>328</ele>
        <time>2012-12-16T09:37:18Z</time>
      </trkpt>
      <trkpt lat="45.8309" lon="4.81311">
        <ele>328</ele>
        <time>2012-12-16T09:37:21Z</time>
      </trkpt>
      <trkpt lat="45.83086" lon="4.81308">
        <ele>329</ele>
        <time>2012-12-16T09:37:26Z</time>
      </trkpt>
      <trkpt lat="45.83083" lon="4.81308">
        <ele>328</ele>
        <time>2012-12-16T09:37:30Z</time>
      </trkpt>
      <trkpt lat="45.83082" lon="4.81306">
        <ele>328</ele>
        <time>2012-12-16T09:37:32Z</time>
      </trkpt>
      <trkpt lat="45.83079" lon="4.81306">
        <ele>328</ele>
        <time>2012-12-16T09:37:36Z</time>
      </trkpt>
      <trkpt lat="45.8308" lon="4.81299">
        <ele>330</ele>
        <time>2012-12-16T09:37:42Z</time>
      </trkpt>
      <trkpt lat="45.83082" lon="4.81291">
        <ele>331</ele>
        <time>2012-12-16T09:37:49Z</time>
      </trkpt>
      <trkpt lat="45.83082" lon="4.81285">
        <ele>332</ele>
        <time>2012-12-16T09:37:53Z</time>
      </trkpt>
      <trkpt lat="45.83085" lon="4.81277">
        <ele>335</ele>
        <time>2012-12-16T09:37:59Z</time>
      </trkpt>
      <trkpt lat="45.83085" lon="4.8127">
        <ele>336</ele>
        <time>2012-12-16T09:38:05Z</time>
      </trkpt>
      <trkpt lat="45.83086" lon="4.81268">
        <ele>336</ele>
        <time>2012-12-16T09:38:07Z</time>
      </trkpt>
      <trkpt lat="45.83086" lon="4.81266">
        <ele>337</ele>
        <time>2012-12-16T09:38:11Z</time>
      </trkpt>
      <trkpt lat="45.83086" lon="4.81264">
        <ele>337</ele>
        <time>2012-12-16T09:38:16Z</time>
      </trkpt>
      <trkpt lat="45.83089" lon="4.81257">
        <ele>338</ele>
        <time>2012-12-16T09:38:22Z</time>
      </trkpt>
      <trkpt lat="45.83089" lon="4.81256">
        <ele>338</ele>
        <time>2012-12-16T09:38:23Z</time>
      </trkpt>
      <trkpt lat="45.83087" lon="4.81248">
        <ele>342</ele>
        <time>2012-12-16T09:38:30Z</time>
      </trkpt>
      <trkpt lat="45.83087" lon="4.81246">
        <ele>343</ele>
        <time>2012-12-16T09:38:31Z</time>
      </trkpt>
      <trkpt lat="45.83086" lon="4.81244">
        <ele>343</ele>
        <time>2012-12-16T09:38:35Z</time>
      </trkpt>
      <trkpt lat="45.83085" lon="4.81241">
        <ele>344</ele>
        <time>2012-12-16T09:38:38Z</time>
      </trkpt>
      <trkpt lat="45.83085" lon="4.81239">
        <ele>345</ele>
        <time>2012-12-16T09:38:39Z</time>
      </trkpt>
      <trkpt lat="45.83087" lon="4.81228">
        <ele>349</ele>
        <time>2012-12-16T09:38:45Z</time>
      </trkpt>
      <trkpt lat="45.83085" lon="4.81225">
        <ele>349</ele>
        <time>2012-12-16T09:38:53Z</time>
      </trkpt>
      <trkpt lat="45.83085" lon="4.81223">
        <ele>350</ele>
        <time>2012-12-16T09:38:54Z</time>
      </trkpt>
      <trkpt lat="45.83086" lon="4.81217">
        <ele>351</ele>
        <time>2012-12-16T09:38:58Z</time>
      </trkpt>
      <trkpt lat="45.83087" lon="4.81216">
        <ele>352</ele>
        <time>2012-12-16T09:38:59Z</time>
      </trkpt>
      <trkpt lat="45.83088" lon="4.81216">
        <ele>352</ele>
        <time>2012-12-16T09:39:00Z</time>
      </trkpt>
      <trkpt lat="45.83091" lon="4.8121">
        <ele>353</ele>
        <time>2012-12-16T09:39:04Z</time>
      </trkpt>
      <trkpt lat="45.83091" lon="4.81207">
        <ele>354</ele>
        <time>2012-12-16T09:39:08Z</time>
      </trkpt>
      <trkpt lat="45.83093" lon="4.81205">
        <ele>354</ele>
        <time>2012-12-16T09:39:12Z</time>
      </trkpt>
      <trkpt lat="45.83094" lon="4.81206">
        <ele>354</ele>
        <time>2012-12-16T09:39:13Z</time>
      </trkpt>
      <trkpt lat="45.83094" lon="4.81205">
        <ele>354</ele>
        <time>2012-12-16T09:39:18Z</time>
      </trkpt>
      <trkpt lat="45.83097" lon="4.81201">
        <ele>355</ele>
        <time>2012-12-16T09:39:22Z</time>
      </trkpt>
      <trkpt lat="45.83096" lon="4.81196">
        <ele>356</ele>
        <time>2012-12-16T09:39:26Z</time>
      </trkpt>
      <trkpt lat="45.83098" lon="4.81191">
        <ele>357</ele>
        <time>2012-12-16T09:39:32Z</time>
      </trkpt>
      <trkpt lat="45.83098" lon="4.8119">
        <ele>357</ele>
        <time>2012-12-16T09:39:33Z</time>
      </trkpt>
      <trkpt lat="45.83093" lon="4.8119">
        <ele>358</ele>
        <time>2012-12-16T09:39:38Z</time>
      </trkpt>
      <trkpt lat="45.8309" lon="4.81182">
        <ele>360</ele>
        <time>2012-12-16T09:39:47Z</time>
      </trkpt>
      <trkpt lat="45.8309" lon="4.81179">
        <ele>361</ele>
        <time>2012-12-16T09:39:50Z</time>
      </trkpt>
      <trkpt lat="45.8309" lon="4.81178">
        <ele>361</ele>
        <time>2012-12-16T09:39:51Z</time>
      </trkpt>
      <trkpt lat="45.83089" lon="4.81176">
        <ele>362</ele>
        <time>2012-12-16T09:39:54Z</time>
      </trkpt>
      <trkpt lat="45.83089" lon="4.81174">
        <ele>362</ele>
        <time>2012-12-16T09:39:55Z</time>
      </trkpt>
      <trkpt lat="45.83087" lon="4.81169">
        <ele>365</ele>
        <time>2012-12-16T09:40:01Z</time>
      </trkpt>
      <trkpt lat="45.83087" lon="4.81165">
        <ele>368</ele>
        <time>2012-12-16T09:40:04Z</time>
      </trkpt>
      <trkpt lat="45.83086" lon="4.81163">
        <ele>368</ele>
        <time>2012-12-16T09:40:06Z</time>
      </trkpt>
      <trkpt lat="45.83085" lon="4.81162">
        <ele>368</ele>
        <time>2012-12-16T09:40:08Z</time>
      </trkpt>
      <trkpt lat="45.8308" lon="4.81159">
        <ele>372</ele>
        <time>2012-12-16T09:40:13Z</time>
      </trkpt>
      <trkpt lat="45.83074" lon="4.81155">
        <ele>375</ele>
        <time>2012-12-16T09:40:20Z</time>
      </trkpt>
      <trkpt lat="45.83073" lon="4.81152">
        <ele>376</ele>
        <time>2012-12-16T09:40:22Z</time>
      </trkpt>
      <trkpt lat="45.83071" lon="4.8115">
        <ele>376</ele>
        <time>2012-12-16T09:40:25Z</time>
      </trkpt>
      <trkpt lat="45.83068" lon="4.81152">
        <ele>377</ele>
        <time>2012-12-16T09:40:28Z</time>
      </trkpt>
      <trkpt lat="45.83065" lon="4.81151">
        <ele>377</ele>
        <time>2012-12-16T09:40:30Z</time>
      </trkpt>
      <trkpt lat="45.8306" lon="4.81147">
        <ele>379</ele>
        <time>2012-12-16T09:40:34Z</time>
      </trkpt>
      <trkpt lat="45.83058" lon="4.81147">
        <ele>379</ele>
        <time>2012-12-16T09:40:38Z</time>
      </trkpt>
      <trkpt lat="45.83058" lon="4.81148">
        <ele>379</ele>
        <time>2012-12-16T09:40:39Z</time>
      </trkpt>
      <trkpt lat="45.83055" lon="4.81144">
        <ele>380</ele>
        <time>2012-12-16T09:40:42Z</time>
      </trkpt>
      <trkpt lat="45.83055" lon="4.81141">
        <ele>381</ele>
        <time>2012-12-16T09:40:46Z</time>
      </trkpt>
      <trkpt lat="45.83055" lon="4.8114">
        <ele>381</ele>
        <time>2012-12-16T09:40:47Z</time>
      </trkpt>
      <trkpt lat="45.83055" lon="4.81138">
        <ele>381</ele>
        <time>2012-12-16T09:40:49Z</time>
      </trkpt>
      <trkpt lat="45.83053" lon="4.81134">
        <ele>382</ele>
        <time>2012-12-16T09:40:54Z</time>
      </trkpt>
      <trkpt lat="45.83047" lon="4.81129">
        <ele>383</ele>
        <time>2012-12-16T09:41:00Z</time>
      </trkpt>
      <trkpt lat="45.8304" lon="4.81128">
        <ele>384</ele>
        <time>2012-12-16T09:41:08Z</time>
      </trkpt>
      <trkpt lat="45.83037" lon="4.81128">
        <ele>384</ele>
        <time>2012-12-16T09:41:11Z</time>
      </trkpt>
      <trkpt lat="45.83034" lon="4.81123">
        <ele>385</ele>
        <time>2012-12-16T09:41:21Z</time>
      </trkpt>
      <trkpt lat="45.83032" lon="4.8112">
        <ele>386</ele>
        <time>2012-12-16T09:41:23Z</time>
      </trkpt>
      <trkpt lat="45.8303" lon="4.81118">
        <ele>386</ele>
        <time>2012-12-16T09:41:27Z</time>
      </trkpt>
      <trkpt lat="45.83023" lon="4.81125">
        <ele>386</ele>
        <time>2012-12-16T09:41:40Z</time>
      </trkpt>
      <trkpt lat="45.83018" lon="4.81123">
        <ele>386</ele>
        <time>2012-12-16T09:41:43Z</time>
      </trkpt>
      <trkpt lat="45.83017" lon="4.81122">
        <ele>387</ele>
        <time>2012-12-16T09:41:45Z</time>
      </trkpt>
      <trkpt lat="45.83016" lon="4.81122">
        <ele>387</ele>
        <time>2012-12-16T09:41:46Z</time>
      </trkpt>
      <trkpt lat="45.83011" lon="4.81117">
        <ele>388</ele>
        <time>2012-12-16T09:41:53Z</time>
      </trkpt>
      <trkpt lat="45.83008" lon="4.81118">
        <ele>388</ele>
        <time>2012-12-16T09:41:58Z</time>
      </trkpt>
      <trkpt lat="45.83008" lon="4.81117">
        <ele>388</ele>
        <time>2012-12-16T09:41:59Z</time>
      </trkpt>
      <trkpt lat="45.83005" lon="4.81117">
        <ele>388</ele>
        <time>2012-12-16T09:42:03Z</time>
      </trkpt>
      <trkpt lat="45.83001" lon="4.81117">
        <ele>389</ele>
        <time>2012-12-16T09:42:07Z</time>
      </trkpt>
      <trkpt lat="45.83" lon="4.81117">
        <ele>398</ele>
        <time>2012-12-16T09:42:08Z</time>
      </trkpt>
      <trkpt lat="45.82997" lon="4.81117">
        <ele>398</ele>
        <time>2012-12-16T09:42:12Z</time>
      </trkpt>
      <trkpt lat="45.82997" lon="4.81117">
        <ele>398</ele>
        <time>2012-12-16T09:42:13Z</time>
      </trkpt>
      <trkpt lat="45.82994" lon="4.81116">
        <ele>398</ele>
        <time>2012-12-16T09:42:17Z</time>
      </trkpt>
      <trkpt lat="45.82989" lon="4.81118">
        <ele>398</ele>
        <time>2012-12-16T09:42:21Z</time>
      </trkpt>
      <trkpt lat="45.8298" lon="4.81121">
        <ele>398</ele>
        <time>2012-12-16T09:42:27Z</time>
      </trkpt>
      <trkpt lat="45.82973" lon="4.81123">
        <ele>398</ele>
        <time>2012-12-16T09:42:33Z</time>
      </trkpt>
      <trkpt lat="45.82972" lon="4.81123">
        <ele>398</ele>
        <time>2012-12-16T09:42:35Z</time>
      </trkpt>
      <trkpt lat="45.82967" lon="4.81125">
        <ele>398</ele>
        <time>2012-12-16T09:42:41Z</time>
      </trkpt>
      <trkpt lat="45.82961" lon="4.8113">
        <ele>398</ele>
        <time>2012-12-16T09:42:47Z</time>
      </trkpt>
      <trkpt lat="45.8296" lon="4.81131">
        <ele>399</ele>
        <time>2012-12-16T09:42:49Z</time>
      </trkpt>
      <trkpt lat="45.82958" lon="4.81133">
        <ele>399</ele>
        <time>2012-12-16T09:42:54Z</time>
      </trkpt>
      <trkpt lat="45.82955" lon="4.81136">
        <ele>399</ele>
        <time>2012-12-16T09:43:01Z</time>
      </trkpt>
      <trkpt lat="45.82954" lon="4.81139">
        <ele>399</ele>
        <time>2012-12-16T09:43:04Z</time>
      </trkpt>
      <trkpt lat="45.8295" lon="4.81142">
        <ele>399</ele>
        <time>2012-12-16T09:43:07Z</time>
      </trkpt>
      <trkpt lat="45.82947" lon="4.81143">
        <ele>399</ele>
        <time>2012-12-16T09:43:10Z</time>
      </trkpt>
      <trkpt lat="45.82945" lon="4.81144">
        <ele>400</ele>
        <time>2012-12-16T09:43:12Z</time>
      </trkpt>
      <trkpt lat="45.82945" lon="4.81144">
        <ele>400</ele>
        <time>2012-12-16T09:43:13Z</time>
      </trkpt>
      <trkpt lat="45.82938" lon="4.81146">
        <ele>400</ele>
        <time>2012-12-16T09:43:18Z</time>
      </trkpt>
      <trkpt lat="45.82937" lon="4.81146">
        <ele>401</ele>
        <time>2012-12-16T09:43:19Z</time>
      </trkpt>
      <trkpt lat="45.82933" lon="4.81147">
        <ele>401</ele>
        <time>2012-12-16T09:43:27Z</time>
      </trkpt>
      <trkpt lat="45.82935" lon="4.81143">
        <ele>401</ele>
        <time>2012-12-16T09:43:31Z</time>
      </trkpt>
      <trkpt lat="45.82935" lon="4.81142">
        <ele>401</ele>
        <time>2012-12-16T09:43:32Z</time>
      </trkpt>
      <trkpt lat="45.82935" lon="4.8114">
        <ele>401</ele>
        <time>2012-12-16T09:43:34Z</time>
      </trkpt>
      <trkpt lat="45.82935" lon="4.81136">
        <ele>401</ele>
        <time>2012-12-16T09:43:36Z</time>
      </trkpt>
      <trkpt lat="45.82934" lon="4.81135">
        <ele>401</ele>
        <time>2012-12-16T09:43:37Z</time>
      </trkpt>
      <trkpt lat="45.82933" lon="4.81134">
        <ele>401</ele>
        <time>2012-12-16T09:43:38Z</time>
      </trkpt>
      <trkpt lat="45.8293" lon="4.81131">
        <ele>401</ele>
        <time>2012-12-16T09:43:43Z</time>
      </trkpt>
      <trkpt lat="45.82928" lon="4.8113">
        <ele>401</ele>
        <time>2012-12-16T09:43:49Z</time>
      </trkpt>
      <trkpt lat="45.82925" lon="4.81126">
        <ele>402</ele>
        <time>2012-12-16T09:43:55Z</time>
      </trkpt>
      <trkpt lat="45.82922" lon="4.81122">
        <ele>402</ele>
        <time>2012-12-16T09:43:58Z</time>
      </trkpt>
      <trkpt lat="45.82919" lon="4.8112">
        <ele>402</ele>
        <time>2012-12-16T09:44:02Z</time>
      </trkpt>
      <trkpt lat="45.82919" lon="4.81114">
        <ele>403</ele>
        <time>2012-12-16T09:44:07Z</time>
      </trkpt>
      <trkpt lat="45.82917" lon="4.81112">
        <ele>403</ele>
        <time>2012-12-16T09:44:15Z</time>
      </trkpt>
      <trkpt lat="45.82912" lon="4.81111">
        <ele>408</ele>
        <time>2012-12-16T09:44:31Z</time>
      </trkpt>
      <trkpt lat="45.82908" lon="4.81111">
        <ele>408</ele>
        <time>2012-12-16T09:44:37Z</time>
      </trkpt>
      <trkpt lat="45.82902" lon="4.8111">
        <ele>408</ele>
        <time>2012-12-16T09:44:41Z</time>
      </trkpt>
      <trkpt lat="45.82901" lon="4.81109">
        <ele>408</ele>
        <time>2012-12-16T09:44:42Z</time>
      </trkpt>
      <trkpt lat="45.82897" lon="4.81111">
        <ele>408</ele>
        <time>2012-12-16T09:44:46Z</time>
      </trkpt>
      <trkpt lat="45.82896" lon="4.81111">
        <ele>408</ele>
        <time>2012-12-16T09:44:47Z</time>
      </trkpt>
      <trkpt lat="45.82889" lon="4.81112">
        <ele>408</ele>
        <time>2012-12-16T09:44:52Z</time>
      </trkpt>
      <trkpt lat="45.82887" lon="4.81112">
        <ele>408</ele>
        <time>2012-12-16T09:44:53Z</time>
      </trkpt>
      <trkpt lat="45.82882" lon="4.81113">
        <ele>408</ele>
        <time>2012-12-16T09:44:56Z</time>
      </trkpt>
      <trkpt lat="45.82875" lon="4.8111">
        <ele>408</ele>
        <time>2012-12-16T09:44:59Z</time>
      </trkpt>
      <trkpt lat="45.82872" lon="4.81107">
        <ele>407</ele>
        <time>2012-12-16T09:45:01Z</time>
      </trkpt>
      <trkpt lat="45.82865" lon="4.81107">
        <ele>407</ele>
        <time>2012-12-16T09:45:04Z</time>
      </trkpt>
      <trkpt lat="45.8286" lon="4.81111">
        <ele>407</ele>
        <time>2012-12-16T09:45:07Z</time>
      </trkpt>
      <trkpt lat="45.82857" lon="4.81115">
        <ele>407</ele>
        <time>2012-12-16T09:45:09Z</time>
      </trkpt>
      <trkpt lat="45.82855" lon="4.81117">
        <ele>407</ele>
        <time>2012-12-16T09:45:10Z</time>
      </trkpt>
      <trkpt lat="45.82848" lon="4.81123">
        <ele>408</ele>
        <time>2012-12-16T09:45:14Z</time>
      </trkpt>
      <trkpt lat="45.82847" lon="4.81126">
        <ele>408</ele>
        <time>2012-12-16T09:45:15Z</time>
      </trkpt>
      <trkpt lat="45.82846" lon="4.81135">
        <ele>408</ele>
        <time>2012-12-16T09:45:18Z</time>
      </trkpt>
      <trkpt lat="45.82846" lon="4.81138">
        <ele>408</ele>
        <time>2012-12-16T09:45:19Z</time>
      </trkpt>
      <trkpt lat="45.82842" lon="4.81151">
        <ele>409</ele>
        <time>2012-12-16T09:45:23Z</time>
      </trkpt>
      <trkpt lat="45.82839" lon="4.81162">
        <ele>409</ele>
        <time>2012-12-16T09:45:27Z</time>
      </trkpt>
      <trkpt lat="45.82837" lon="4.81167">
        <ele>409</ele>
        <time>2012-12-16T09:45:29Z</time>
      </trkpt>
      <trkpt lat="45.82831" lon="4.81184">
        <ele>410</ele>
        <time>2012-12-16T09:45:36Z</time>
      </trkpt>
      <trkpt lat="45.82831" lon="4.81186">
        <ele>410</ele>
        <time>2012-12-16T09:45:37Z</time>
      </trkpt>
      <trkpt lat="45.82826" lon="4.81202">
        <ele>411</ele>
        <time>2012-12-16T09:45:44Z</time>
      </trkpt>
      <trkpt lat="45.82822" lon="4.81212">
        <ele>411</ele>
        <time>2012-12-16T09:45:48Z</time>
      </trkpt>
      <trkpt lat="45.8282" lon="4.81219">
        <ele>411</ele>
        <time>2012-12-16T09:45:51Z</time>
      </trkpt>
      <trkpt lat="45.82815" lon="4.81233">
        <ele>411</ele>
        <time>2012-12-16T09:45:57Z</time>
      </trkpt>
      <trkpt lat="45.82814" lon="4.81235">
        <ele>411</ele>
        <time>2012-12-16T09:45:58Z</time>
      </trkpt>
      <trkpt lat="45.82811" lon="4.81244">
        <ele>411</ele>
        <time>2012-12-16T09:46:02Z</time>
      </trkpt>
      <trkpt lat="45.82805" lon="4.81259">
        <ele>413</ele>
        <time>2012-12-16T09:46:08Z</time>
      </trkpt>
      <trkpt lat="45.82804" lon="4.81261">
        <ele>413</ele>
        <time>2012-12-16T09:46:09Z</time>
      </trkpt>
      <trkpt lat="45.82803" lon="4.81263">
        <ele>413</ele>
        <time>2012-12-16T09:46:10Z</time>
      </trkpt>
      <trkpt lat="45.82801" lon="4.81274">
        <ele>413</ele>
        <time>2012-12-16T09:46:14Z</time>
      </trkpt>
      <trkpt lat="45.82798" lon="4.81283">
        <ele>413</ele>
        <time>2012-12-16T09:46:18Z</time>
      </trkpt>
      <trkpt lat="45.82797" lon="4.81288">
        <ele>413</ele>
        <time>2012-12-16T09:46:20Z</time>
      </trkpt>
      <trkpt lat="45.82794" lon="4.813">
        <ele>413</ele>
        <time>2012-12-16T09:46:25Z</time>
      </trkpt>
      <trkpt lat="45.82792" lon="4.81309">
        <ele>413</ele>
        <time>2012-12-16T09:46:29Z</time>
      </trkpt>
      <trkpt lat="45.82791" lon="4.81315">
        <ele>413</ele>
        <time>2012-12-16T09:46:31Z</time>
      </trkpt>
      <trkpt lat="45.82789" lon="4.8133">
        <ele>413</ele>
        <time>2012-12-16T09:46:37Z</time>
      </trkpt>
      <trkpt lat="45.82788" lon="4.81335">
        <ele>414</ele>
        <time>2012-12-16T09:46:39Z</time>
      </trkpt>
      <trkpt lat="45.82787" lon="4.81345">
        <ele>414</ele>
        <time>2012-12-16T09:46:43Z</time>
      </trkpt>
      <trkpt lat="45.82784" lon="4.81359">
        <ele>415</ele>
        <time>2012-12-16T09:46:49Z</time>
      </trkpt>
      <trkpt lat="45.82784" lon="4.81362">
        <ele>415</ele>
        <time>2012-12-16T09:46:50Z</time>
      </trkpt>
      <trkpt lat="45.8278" lon="4.81376">
        <ele>415</ele>
        <time>2012-12-16T09:46:55Z</time>
      </trkpt>
      <trkpt lat="45.82777" lon="4.81386">
        <ele>415</ele>
        <time>2012-12-16T09:46:58Z</time>
      </trkpt>
      <trkpt lat="45.82778" lon="4.81394">
        <ele>416</ele>
        <time>2012-12-16T09:47:02Z</time>
      </trkpt>
      <trkpt lat="45.82777" lon="4.81405">
        <ele>416</ele>
        <time>2012-12-16T09:47:07Z</time>
      </trkpt>
      <trkpt lat="45.82775" lon="4.81411">
        <ele>417</ele>
        <time>2012-12-16T09:47:09Z</time>
      </trkpt>
      <trkpt lat="45.82774" lon="4.81416">
        <ele>417</ele>
        <time>2012-12-16T09:47:11Z</time>
      </trkpt>
      <trkpt lat="45.82774" lon="4.81422">
        <ele>418</ele>
        <time>2012-12-16T09:47:14Z</time>
      </trkpt>
      <trkpt lat="45.82773" lon="4.81428">
        <ele>418</ele>
        <time>2012-12-16T09:47:17Z</time>
      </trkpt>
      <trkpt lat="45.82773" lon="4.81432">
        <ele>417</ele>
        <time>2012-12-16T09:47:19Z</time>
      </trkpt>
      <trkpt lat="45.82771" lon="4.81437">
        <ele>418</ele>
        <time>2012-12-16T09:47:22Z</time>
      </trkpt>
      <trkpt lat="45.82768" lon="4.81447">
        <ele>418</ele>
        <time>2012-12-16T09:47:28Z</time>
      </trkpt>
      <trkpt lat="45.82768" lon="4.81449">
        <ele>418</ele>
        <time>2012-12-16T09:47:29Z</time>
      </trkpt>
      <trkpt lat="45.82764" lon="4.81458">
        <ele>418</ele>
        <time>2012-12-16T09:47:33Z</time>
      </trkpt>
      <trkpt lat="45.82764" lon="4.8146">
        <ele>418</ele>
        <time>2012-12-16T09:47:34Z</time>
      </trkpt>
      <trkpt lat="45.82763" lon="4.81463">
        <ele>418</ele>
        <time>2012-12-16T09:47:35Z</time>
      </trkpt>
      <trkpt lat="45.82762" lon="4.81467">
        <ele>419</ele>
        <time>2012-12-16T09:47:37Z</time>
      </trkpt>
      <trkpt lat="45.82761" lon="4.81471">
        <ele>420</ele>
        <time>2012-12-16T09:47:39Z</time>
      </trkpt>
      <trkpt lat="45.82759" lon="4.81488">
        <ele>423</ele>
        <time>2012-12-16T09:47:45Z</time>
      </trkpt>
      <trkpt lat="45.82758" lon="4.8149">
        <ele>424</ele>
        <time>2012-12-16T09:47:46Z</time>
      </trkpt>
      <trkpt lat="45.82757" lon="4.81498">
        <ele>427</ele>
        <time>2012-12-16T09:47:49Z</time>
      </trkpt>
      <trkpt lat="45.82756" lon="4.81502">
        <ele>428</ele>
        <time>2012-12-16T09:47:50Z</time>
      </trkpt>
      <trkpt lat="45.82755" lon="4.81513">
        <ele>426</ele>
        <time>2012-12-16T09:47:55Z</time>
      </trkpt>
      <trkpt lat="45.82755" lon="4.81514">
        <ele>426</ele>
        <time>2012-12-16T09:47:56Z</time>
      </trkpt>
      <trkpt lat="45.82756" lon="4.81517">
        <ele>425</ele>
        <time>2012-12-16T09:47:58Z</time>
      </trkpt>
      <trkpt lat="45.82756" lon="4.81521">
        <ele>424</ele>
        <time>2012-12-16T09:48:00Z</time>
      </trkpt>
      <trkpt lat="45.82757" lon="4.81526">
        <ele>423</ele>
        <time>2012-12-16T09:48:02Z</time>
      </trkpt>
      <trkpt lat="45.8276" lon="4.81534">
        <ele>423</ele>
        <time>2012-12-16T09:48:08Z</time>
      </trkpt>
      <trkpt lat="45.82761" lon="4.81538">
        <ele>423</ele>
        <time>2012-12-16T09:48:11Z</time>
      </trkpt>
      <trkpt lat="45.82761" lon="4.8154">
        <ele>423</ele>
        <time>2012-12-16T09:48:12Z</time>
      </trkpt>
      <trkpt lat="45.82761" lon="4.81542">
        <ele>423</ele>
        <time>2012-12-16T09:48:13Z</time>
      </trkpt>
      <trkpt lat="45.82761" lon="4.81544">
        <ele>423</ele>
        <time>2012-12-16T09:48:14Z</time>
      </trkpt>
      <trkpt lat="45.82763" lon="4.81561">
        <ele>425</ele>
        <time>2012-12-16T09:48:20Z</time>
      </trkpt>
      <trkpt lat="45.82764" lon="4.81566">
        <ele>425</ele>
        <time>2012-12-16T09:48:22Z</time>
      </trkpt>
      <trkpt lat="45.82765" lon="4.81575">
        <ele>427</ele>
        <time>2012-12-16T09:48:25Z</time>
      </trkpt>
      <trkpt lat="45.82767" lon="4.81589">
        <ele>430</ele>
        <time>2012-12-16T09:48:30Z</time>
      </trkpt>
      <trkpt lat="45.82768" lon="4.81592">
        <ele>429</ele>
        <time>2012-12-16T09:48:31Z</time>
      </trkpt>
      <trkpt lat="45.82771" lon="4.81605">
        <ele>428</ele>
        <time>2012-12-16T09:48:35Z</time>
      </trkpt>
      <trkpt lat="45.82772" lon="4.81617">
        <ele>427</ele>
        <time>2012-12-16T09:48:38Z</time>
      </trkpt>
      <trkpt lat="45.82773" lon="4.81621">
        <ele>427</ele>
        <time>2012-12-16T09:48:39Z</time>
      </trkpt>
      <trkpt lat="45.82777" lon="4.81636">
        <ele>427</ele>
        <time>2012-12-16T09:48:44Z</time>
      </trkpt>
      <trkpt lat="45.8278" lon="4.81643">
        <ele>427</ele>
        <time>2012-12-16T09:48:47Z</time>
      </trkpt>
      <trkpt lat="45.82781" lon="4.81646">
        <ele>427</ele>
        <time>2012-12-16T09:48:48Z</time>
      </trkpt>
      <trkpt lat="45.82785" lon="4.81658">
        <ele>427</ele>
        <time>2012-12-16T09:48:51Z</time>
      </trkpt>
      <trkpt lat="45.82787" lon="4.81668">
        <ele>431</ele>
        <time>2012-12-16T09:48:53Z</time>
      </trkpt>
      <trkpt lat="45.82794" lon="4.81689">
        <ele>431</ele>
        <time>2012-12-16T09:48:59Z</time>
      </trkpt>
      <trkpt lat="45.82795" lon="4.81691">
        <ele>431</ele>
        <time>2012-12-16T09:49:00Z</time>
      </trkpt>
      <trkpt lat="45.82797" lon="4.81693">
        <ele>431</ele>
        <time>2012-12-16T09:49:01Z</time>
      </trkpt>
      <trkpt lat="45.82801" lon="4.81698">
        <ele>430</ele>
        <time>2012-12-16T09:49:04Z</time>
      </trkpt>
      <trkpt lat="45.8281" lon="4.81707">
        <ele>430</ele>
        <time>2012-12-16T09:49:08Z</time>
      </trkpt>
      <trkpt lat="45.82814" lon="4.81711">
        <ele>430</ele>
        <time>2012-12-16T09:49:10Z</time>
      </trkpt>
      <trkpt lat="45.82824" lon="4.8172">
        <ele>430</ele>
        <time>2012-12-16T09:49:15Z</time>
      </trkpt>
      <trkpt lat="45.82826" lon="4.81722">
        <ele>431</ele>
        <time>2012-12-16T09:49:16Z</time>
      </trkpt>
      <trkpt lat="45.82835" lon="4.81729">
        <ele>420</ele>
        <time>2012-12-16T09:49:20Z</time>
      </trkpt>
      <trkpt lat="45.82845" lon="4.81735">
        <ele>420</ele>
        <time>2012-12-16T09:49:24Z</time>
      </trkpt>
      <trkpt lat="45.82847" lon="4.81736">
        <ele>420</ele>
        <time>2012-12-16T09:49:25Z</time>
      </trkpt>
      <trkpt lat="45.82859" lon="4.81747">
        <ele>418</ele>
        <time>2012-12-16T09:49:30Z</time>
      </trkpt>
      <trkpt lat="45.82862" lon="4.81749">
        <ele>417</ele>
        <time>2012-12-16T09:49:31Z</time>
      </trkpt>
      <trkpt lat="45.82869" lon="4.81759">
        <ele>419</ele>
        <time>2012-12-16T09:49:34Z</time>
      </trkpt>
      <trkpt lat="45.82877" lon="4.81767">
        <ele>418</ele>
        <time>2012-12-16T09:49:37Z</time>
      </trkpt>
      <trkpt lat="45.82881" lon="4.8177">
        <ele>417</ele>
        <time>2012-12-16T09:49:39Z</time>
      </trkpt>
      <trkpt lat="45.82883" lon="4.81773">
        <ele>417</ele>
        <time>2012-12-16T09:49:40Z</time>
      </trkpt>
      <trkpt lat="45.8289" lon="4.81782">
        <ele>416</ele>
        <time>2012-12-16T09:49:43Z</time>
      </trkpt>
      <trkpt lat="45.82893" lon="4.81783">
        <ele>416</ele>
        <time>2012-12-16T09:49:44Z</time>
      </trkpt>
      <trkpt lat="45.82901" lon="4.81787">
        <ele>415</ele>
        <time>2012-12-16T09:49:47Z</time>
      </trkpt>
      <trkpt lat="45.82909" lon="4.81795">
        <ele>415</ele>
        <time>2012-12-16T09:49:50Z</time>
      </trkpt>
      <trkpt lat="45.82914" lon="4.818">
        <ele>414</ele>
        <time>2012-12-16T09:49:52Z</time>
      </trkpt>
      <trkpt lat="45.82923" lon="4.81808">
        <ele>398</ele>
        <time>2012-12-16T09:49:56Z</time>
      </trkpt>
      <trkpt lat="45.82925" lon="4.8181">
        <ele>398</ele>
        <time>2012-12-16T09:49:57Z</time>
      </trkpt>
      <trkpt lat="45.82928" lon="4.81811">
        <ele>398</ele>
        <time>2012-12-16T09:49:58Z</time>
      </trkpt>
      <trkpt lat="45.82936" lon="4.81818">
        <ele>397</ele>
        <time>2012-12-16T09:50:02Z</time>
      </trkpt>
      <trkpt lat="45.8294" lon="4.81823">
        <ele>397</ele>
        <time>2012-12-16T09:50:07Z</time>
      </trkpt>
      <trkpt lat="45.82941" lon="4.81824">
        <ele>396</ele>
        <time>2012-12-16T09:50:20Z</time>
      </trkpt>
      <trkpt lat="45.82943" lon="4.81824">
        <ele>396</ele>
        <time>2012-12-16T09:50:22Z</time>
      </trkpt>
      <trkpt lat="45.82944" lon="4.81824">
        <ele>395</ele>
        <time>2012-12-16T09:50:26Z</time>
      </trkpt>
      <trkpt lat="45.82942" lon="4.81823">
        <ele>396</ele>
        <time>2012-12-16T09:50:34Z</time>
      </trkpt>
      <trkpt lat="45.82943" lon="4.81826">
        <ele>396</ele>
        <time>2012-12-16T09:50:48Z</time>
      </trkpt>
      <trkpt lat="45.82945" lon="4.81831">
        <ele>395</ele>
        <time>2012-12-16T09:50:54Z</time>
      </trkpt>
      <trkpt lat="45.82946" lon="4.81832">
        <ele>395</ele>
        <time>2012-12-16T09:50:55Z</time>
      </trkpt>
      <trkpt lat="45.82951" lon="4.81835">
        <ele>396</ele>
        <time>2012-12-16T09:50:58Z</time>
      </trkpt>
      <trkpt lat="45.82953" lon="4.81837">
        <ele>396</ele>
        <time>2012-12-16T09:50:59Z</time>
      </trkpt>
      <trkpt lat="45.82954" lon="4.8184">
        <ele>395</ele>
        <time>2012-12-16T09:51:00Z</time>
      </trkpt>
      <trkpt lat="45.82959" lon="4.81847">
        <ele>394</ele>
        <time>2012-12-16T09:51:03Z</time>
      </trkpt>
      <trkpt lat="45.82962" lon="4.81852">
        <ele>393</ele>
        <time>2012-12-16T09:51:06Z</time>
      </trkpt>
      <trkpt lat="45.82966" lon="4.81858">
        <ele>393</ele>
        <time>2012-12-16T09:51:09Z</time>
      </trkpt>
      <trkpt lat="45.82968" lon="4.81864">
        <ele>393</ele>
        <time>2012-12-16T09:51:11Z</time>
      </trkpt>
      <trkpt lat="45.82974" lon="4.81876">
        <ele>392</ele>
        <time>2012-12-16T09:51:16Z</time>
      </trkpt>
      <trkpt lat="45.82976" lon="4.81877">
        <ele>392</ele>
        <time>2012-12-16T09:51:17Z</time>
      </trkpt>
      <trkpt lat="45.82978" lon="4.81879">
        <ele>392</ele>
        <time>2012-12-16T09:51:18Z</time>
      </trkpt>
      <trkpt lat="45.82981" lon="4.8188">
        <ele>391</ele>
        <time>2012-12-16T09:51:19Z</time>
      </trkpt>
      <trkpt lat="45.82988" lon="4.81892">
        <ele>391</ele>
        <time>2012-12-16T09:51:24Z</time>
      </trkpt>
      <trkpt lat="45.8299" lon="4.81898">
        <ele>390</ele>
        <time>2012-12-16T09:51:27Z</time>
      </trkpt>
      <trkpt lat="45.82991" lon="4.819">
        <ele>390</ele>
        <time>2012-12-16T09:51:28Z</time>
      </trkpt>
      <trkpt lat="45.82992" lon="4.81902">
        <ele>390</ele>
        <time>2012-12-16T09:51:29Z</time>
      </trkpt>
      <trkpt lat="45.82993" lon="4.81904">
        <ele>389</ele>
        <time>2012-12-16T09:51:30Z</time>
      </trkpt>
      <trkpt lat="45.82999" lon="4.81906">
        <ele>389</ele>
        <time>2012-12-16T09:51:33Z</time>
      </trkpt>
      <trkpt lat="45.83005" lon="4.81915">
        <ele>381</ele>
        <time>2012-12-16T09:51:37Z</time>
      </trkpt>
      <trkpt lat="45.83012" lon="4.81919">
        <ele>378</ele>
        <time>2012-12-16T09:51:42Z</time>
      </trkpt>
      <trkpt lat="45.83013" lon="4.8192">
        <ele>377</ele>
        <time>2012-12-16T09:51:43Z</time>
      </trkpt>
      <trkpt lat="45.83018" lon="4.81925">
        <ele>374</ele>
        <time>2012-12-16T09:51:48Z</time>
      </trkpt>
      <trkpt lat="45.83019" lon="4.81926">
        <ele>373</ele>
        <time>2012-12-16T09:51:49Z</time>
      </trkpt>
      <trkpt lat="45.8302" lon="4.81929">
        <ele>372</ele>
        <time>2012-12-16T09:51:51Z</time>
      </trkpt>
      <trkpt lat="45.83022" lon="4.81933">
        <ele>371</ele>
        <time>2012-12-16T09:51:53Z</time>
      </trkpt>
      <trkpt lat="45.8302" lon="4.81942">
        <ele>371</ele>
        <time>2012-12-16T09:51:58Z</time>
      </trkpt>
      <trkpt lat="45.83019" lon="4.81943">
        <ele>371</ele>
        <time>2012-12-16T09:51:59Z</time>
      </trkpt>
      <trkpt lat="45.83014" lon="4.81952">
        <ele>371</ele>
        <time>2012-12-16T09:52:03Z</time>
      </trkpt>
      <trkpt lat="45.83009" lon="4.81966">
        <ele>372</ele>
        <time>2012-12-16T09:52:08Z</time>
      </trkpt>
      <trkpt lat="45.83003" lon="4.81971">
        <ele>374</ele>
        <time>2012-12-16T09:52:11Z</time>
      </trkpt>
      <trkpt lat="45.83001" lon="4.81973">
        <ele>375</ele>
        <time>2012-12-16T09:52:12Z</time>
      </trkpt>
      <trkpt lat="45.82987" lon="4.81977">
        <ele>392</ele>
        <time>2012-12-16T09:52:17Z</time>
      </trkpt>
      <trkpt lat="45.82985" lon="4.81977">
        <ele>392</ele>
        <time>2012-12-16T09:52:18Z</time>
      </trkpt>
      <trkpt lat="45.82985" lon="4.81979">
        <ele>392</ele>
        <time>2012-12-16T09:52:19Z</time>
      </trkpt>
      <trkpt lat="45.82986" lon="4.81983">
        <ele>392</ele>
        <time>2012-12-16T09:52:20Z</time>
      </trkpt>
      <trkpt lat="45.82987" lon="4.81992">
        <ele>391</ele>
        <time>2012-12-16T09:52:25Z</time>
      </trkpt>
      <trkpt lat="45.82986" lon="4.81996">
        <ele>391</ele>
        <time>2012-12-16T09:53:03Z</time>
      </trkpt>
      <trkpt lat="45.82985" lon="4.81997">
        <ele>391</ele>
        <time>2012-12-16T09:53:10Z</time>
      </trkpt>
      <trkpt lat="45.82984" lon="4.81996">
        <ele>391</ele>
        <time>2012-12-16T09:53:16Z</time>
      </trkpt>
      <trkpt lat="45.82983" lon="4.81995">
        <ele>391</ele>
        <time>2012-12-16T09:53:27Z</time>
      </trkpt>
      <trkpt lat="45.82976" lon="4.81992">
        <ele>392</ele>
        <time>2012-12-16T09:53:51Z</time>
      </trkpt>
      <trkpt lat="45.82976" lon="4.81994">
        <ele>392</ele>
        <time>2012-12-16T09:53:56Z</time>
      </trkpt>
      <trkpt lat="45.82975" lon="4.81989">
        <ele>392</ele>
        <time>2012-12-16T09:54:05Z</time>
      </trkpt>
      <trkpt lat="45.82971" lon="4.81989">
        <ele>393</ele>
        <time>2012-12-16T09:54:08Z</time>
      </trkpt>
      <trkpt lat="45.8297" lon="4.81989">
        <ele>393</ele>
        <time>2012-12-16T09:54:09Z</time>
      </trkpt>
      <trkpt lat="45.82968" lon="4.81989">
        <ele>393</ele>
        <time>2012-12-16T09:54:10Z</time>
      </trkpt>
      <trkpt lat="45.82968" lon="4.81989">
        <ele>393</ele>
        <time>2012-12-16T09:54:11Z</time>
      </trkpt>
      <trkpt lat="45.82963" lon="4.81988">
        <ele>394</ele>
        <time>2012-12-16T09:54:15Z</time>
      </trkpt>
      <trkpt lat="45.8296" lon="4.81985">
        <ele>394</ele>
        <time>2012-12-16T09:54:19Z</time>
      </trkpt>
      <trkpt lat="45.82958" lon="4.81988">
        <ele>394</ele>
        <time>2012-12-16T09:54:21Z</time>
      </trkpt>
      <trkpt lat="45.82956" lon="4.81992">
        <ele>394</ele>
        <time>2012-12-16T09:54:23Z</time>
      </trkpt>
      <trkpt lat="45.82953" lon="4.81995">
        <ele>395</ele>
        <time>2012-12-16T09:54:26Z</time>
      </trkpt>
      <trkpt lat="45.82946" lon="4.81998">
        <ele>395</ele>
        <time>2012-12-16T09:54:29Z</time>
      </trkpt>
      <trkpt lat="45.82944" lon="4.81998">
        <ele>396</ele>
        <time>2012-12-16T09:54:31Z</time>
      </trkpt>
      <trkpt lat="45.82943" lon="4.81998">
        <ele>396</ele>
        <time>2012-12-16T09:54:32Z</time>
      </trkpt>
      <trkpt lat="45.82941" lon="4.81994">
        <ele>396</ele>
        <time>2012-12-16T09:54:37Z</time>
      </trkpt>
      <trkpt lat="45.8294" lon="4.81995">
        <ele>396</ele>
        <time>2012-12-16T09:54:38Z</time>
      </trkpt>
      <trkpt lat="45.82937" lon="4.81998">
        <ele>396</ele>
        <time>2012-12-16T09:54:40Z</time>
      </trkpt>
      <trkpt lat="45.82936" lon="4.82">
        <ele>396</ele>
        <time>2012-12-16T09:54:42Z</time>
      </trkpt>
      <trkpt lat="45.82931" lon="4.82002">
        <ele>397</ele>
        <time>2012-12-16T09:54:47Z</time>
      </trkpt>
      <trkpt lat="45.82927" lon="4.82002">
        <ele>398</ele>
        <time>2012-12-16T09:54:51Z</time>
      </trkpt>
      <trkpt lat="45.82923" lon="4.82001">
        <ele>398</ele>
        <time>2012-12-16T09:54:54Z</time>
      </trkpt>
      <trkpt lat="45.82922" lon="4.82001">
        <ele>398</ele>
        <time>2012-12-16T09:54:55Z</time>
      </trkpt>
      <trkpt lat="45.82922" lon="4.82002">
        <ele>398</ele>
        <time>2012-12-16T09:54:56Z</time>
      </trkpt>
      <trkpt lat="45.82916" lon="4.82001">
        <ele>399</ele>
        <time>2012-12-16T09:55:06Z</time>
      </trkpt>
      <trkpt lat="45.82913" lon="4.82">
        <ele>401</ele>
        <time>2012-12-16T09:55:10Z</time>
      </trkpt>
      <trkpt lat="45.8291" lon="4.81999">
        <ele>402</ele>
        <time>2012-12-16T09:55:13Z</time>
      </trkpt>
      <trkpt lat="45.8291" lon="4.82">
        <ele>402</ele>
        <time>2012-12-16T09:55:14Z</time>
      </trkpt>
      <trkpt lat="45.82909" lon="4.82001">
        <ele>402</ele>
        <time>2012-12-16T09:55:17Z</time>
      </trkpt>
      <trkpt lat="45.82906" lon="4.82004">
        <ele>402</ele>
        <time>2012-12-16T09:55:19Z</time>
      </trkpt>
      <trkpt lat="45.82906" lon="4.82005">
        <ele>403</ele>
        <time>2012-12-16T09:55:20Z</time>
      </trkpt>
      <trkpt lat="45.82899" lon="4.82007">
        <ele>404</ele>
        <time>2012-12-16T09:55:27Z</time>
      </trkpt>
      <trkpt lat="45.82898" lon="4.82007">
        <ele>404</ele>
        <time>2012-12-16T09:55:28Z</time>
      </trkpt>
      <trkpt lat="45.82889" lon="4.82012">
        <ele>406</ele>
        <time>2012-12-16T09:55:34Z</time>
      </trkpt>
      <trkpt lat="45.82887" lon="4.82014">
        <ele>407</ele>
        <time>2012-12-16T09:55:38Z</time>
      </trkpt>
      <trkpt lat="45.82886" lon="4.82015">
        <ele>407</ele>
        <time>2012-12-16T09:55:40Z</time>
      </trkpt>
      <trkpt lat="45.82884" lon="4.82018">
        <ele>407</ele>
        <time>2012-12-16T09:55:43Z</time>
      </trkpt>
      <trkpt lat="45.82882" lon="4.82019">
        <ele>407</ele>
        <time>2012-12-16T09:55:45Z</time>
      </trkpt>
      <trkpt lat="45.82881" lon="4.82017">
        <ele>407</ele>
        <time>2012-12-16T09:55:48Z</time>
      </trkpt>
      <trkpt lat="45.82881" lon="4.82016">
        <ele>407</ele>
        <time>2012-12-16T09:55:53Z</time>
      </trkpt>
      <trkpt lat="45.82877" lon="4.82012">
        <ele>408</ele>
        <time>2012-12-16T09:55:57Z</time>
      </trkpt>
      <trkpt lat="45.82874" lon="4.82011">
        <ele>408</ele>
        <time>2012-12-16T09:56:00Z</time>
      </trkpt>
      <trkpt lat="45.82872" lon="4.82009">
        <ele>409</ele>
        <time>2012-12-16T09:56:01Z</time>
      </trkpt>
      <trkpt lat="45.82864" lon="4.82006">
        <ele>410</ele>
        <time>2012-12-16T09:56:05Z</time>
      </trkpt>
      <trkpt lat="45.82861" lon="4.82006">
        <ele>410</ele>
        <time>2012-12-16T09:56:07Z</time>
      </trkpt>
      <trkpt lat="45.82852" lon="4.82011">
        <ele>411</ele>
        <time>2012-12-16T09:56:13Z</time>
      </trkpt>
      <trkpt lat="45.82851" lon="4.82012">
        <ele>412</ele>
        <time>2012-12-16T09:56:14Z</time>
      </trkpt>
      <trkpt lat="45.82843" lon="4.82009">
        <ele>413</ele>
        <time>2012-12-16T09:56:20Z</time>
      </trkpt>
      <trkpt lat="45.82839" lon="4.82006">
        <ele>414</ele>
        <time>2012-12-16T09:56:24Z</time>
      </trkpt>
      <trkpt lat="45.82839" lon="4.82005">
        <ele>414</ele>
        <time>2012-12-16T09:56:25Z</time>
      </trkpt>
      <trkpt lat="45.82836" lon="4.82006">
        <ele>414</ele>
        <time>2012-12-16T09:56:29Z</time>
      </trkpt>
      <trkpt lat="45.82835" lon="4.82006">
        <ele>414</ele>
        <time>2012-12-16T09:56:31Z</time>
      </trkpt>
      <trkpt lat="45.82835" lon="4.82005">
        <ele>415</ele>
        <time>2012-12-16T09:56:32Z</time>
      </trkpt>
      <trkpt lat="45.8283" lon="4.82002">
        <ele>417</ele>
        <time>2012-12-16T09:56:38Z</time>
      </trkpt>
      <trkpt lat="45.82829" lon="4.82003">
        <ele>418</ele>
        <time>2012-12-16T09:56:40Z</time>
      </trkpt>
      <trkpt lat="45.82825" lon="4.82002">
        <ele>418</ele>
        <time>2012-12-16T09:56:43Z</time>
      </trkpt>
      <trkpt lat="45.82821" lon="4.82002">
        <ele>419</ele>
        <time>2012-12-16T09:56:47Z</time>
      </trkpt>
      <trkpt lat="45.82818" lon="4.82003">
        <ele>420</ele>
        <time>2012-12-16T09:56:49Z</time>
      </trkpt>
      <trkpt lat="45.82816" lon="4.82005">
        <ele>420</ele>
        <time>2012-12-16T09:56:51Z</time>
      </trkpt>
      <trkpt lat="45.82813" lon="4.82004">
        <ele>421</ele>
        <time>2012-12-16T09:56:56Z</time>
      </trkpt>
      <trkpt lat="45.82807" lon="4.82">
        <ele>424</ele>
        <time>2012-12-16T09:57:03Z</time>
      </trkpt>
      <trkpt lat="45.82806" lon="4.81999">
        <ele>424</ele>
        <time>2012-12-16T09:57:05Z</time>
      </trkpt>
      <trkpt lat="45.82801" lon="4.81999">
        <ele>425</ele>
        <time>2012-12-16T09:57:08Z</time>
      </trkpt>
      <trkpt lat="45.828" lon="4.81999">
        <ele>425</ele>
        <time>2012-12-16T09:57:10Z</time>
      </trkpt>
      <trkpt lat="45.82797" lon="4.81999">
        <ele>426</ele>
        <time>2012-12-16T09:57:12Z</time>
      </trkpt>
      <trkpt lat="45.82793" lon="4.81998">
        <ele>427</ele>
        <time>2012-12-16T09:57:15Z</time>
      </trkpt>
      <trkpt lat="45.8279" lon="4.81998">
        <ele>427</ele>
        <time>2012-12-16T09:57:20Z</time>
      </trkpt>
      <trkpt lat="45.82788" lon="4.81998">
        <ele>427</ele>
        <time>2012-12-16T09:57:25Z</time>
      </trkpt>
      <trkpt lat="45.82781" lon="4.82">
        <ele>428</ele>
        <time>2012-12-16T09:57:30Z</time>
      </trkpt>
      <trkpt lat="45.8278" lon="4.81998">
        <ele>428</ele>
        <time>2012-12-16T09:57:32Z</time>
      </trkpt>
      <trkpt lat="45.82777" lon="4.81994">
        <ele>429</ele>
        <time>2012-12-16T09:57:37Z</time>
      </trkpt>
      <trkpt lat="45.82777" lon="4.81992">
        <ele>429</ele>
        <time>2012-12-16T09:57:39Z</time>
      </trkpt>
      <trkpt lat="45.82773" lon="4.81987">
        <ele>429</ele>
        <time>2012-12-16T09:57:44Z</time>
      </trkpt>
      <trkpt lat="45.82771" lon="4.81992">
        <ele>429</ele>
        <time>2012-12-16T09:57:51Z</time>
      </trkpt>
      <trkpt lat="45.8277" lon="4.81993">
        <ele>429</ele>
        <time>2012-12-16T09:57:52Z</time>
      </trkpt>
      <trkpt lat="45.82768" lon="4.81994">
        <ele>430</ele>
        <time>2012-12-16T09:57:54Z</time>
      </trkpt>
      <trkpt lat="45.82766" lon="4.81992">
        <ele>430</ele>
        <time>2012-12-16T09:57:56Z</time>
      </trkpt>
      <trkpt lat="45.82765" lon="4.81991">
        <ele>430</ele>
        <time>2012-12-16T09:57:57Z</time>
      </trkpt>
      <trkpt lat="45.82764" lon="4.8199">
        <ele>430</ele>
        <time>2012-12-16T09:57:58Z</time>
      </trkpt>
      <trkpt lat="45.82763" lon="4.81989">
        <ele>430</ele>
        <time>2012-12-16T09:57:59Z</time>
      </trkpt>
      <trkpt lat="45.82758" lon="4.8199">
        <ele>431</ele>
        <time>2012-12-16T09:58:02Z</time>
      </trkpt>
      <trkpt lat="45.82755" lon="4.81995">
        <ele>431</ele>
        <time>2012-12-16T09:58:07Z</time>
      </trkpt>
      <trkpt lat="45.82753" lon="4.81996">
        <ele>431</ele>
        <time>2012-12-16T09:58:13Z</time>
      </trkpt>
      <trkpt lat="45.82751" lon="4.81995">
        <ele>431</ele>
        <time>2012-12-16T09:58:15Z</time>
      </trkpt>
      <trkpt lat="45.82748" lon="4.81996">
        <ele>434</ele>
        <time>2012-12-16T09:58:20Z</time>
      </trkpt>
      <trkpt lat="45.82747" lon="4.81996">
        <ele>434</ele>
        <time>2012-12-16T09:58:21Z</time>
      </trkpt>
      <trkpt lat="45.82741" lon="4.81995">
        <ele>436</ele>
        <time>2012-12-16T09:58:26Z</time>
      </trkpt>
      <trkpt lat="45.82738" lon="4.81993">
        <ele>438</ele>
        <time>2012-12-16T09:58:32Z</time>
      </trkpt>
      <trkpt lat="45.82736" lon="4.81994">
        <ele>438</ele>
        <time>2012-12-16T09:58:36Z</time>
      </trkpt>
      <trkpt lat="45.82735" lon="4.81996">
        <ele>438</ele>
        <time>2012-12-16T09:58:38Z</time>
      </trkpt>
      <trkpt lat="45.82733" lon="4.81995">
        <ele>439</ele>
        <time>2012-12-16T09:58:41Z</time>
      </trkpt>
      <trkpt lat="45.82733" lon="4.81996">
        <ele>438</ele>
        <time>2012-12-16T09:58:43Z</time>
      </trkpt>
      <trkpt lat="45.82729" lon="4.82001">
        <ele>437</ele>
        <time>2012-12-16T09:58:48Z</time>
      </trkpt>
      <trkpt lat="45.82728" lon="4.82">
        <ele>437</ele>
        <time>2012-12-16T09:58:49Z</time>
      </trkpt>
      <trkpt lat="45.82726" lon="4.81999">
        <ele>440</ele>
        <time>2012-12-16T09:58:50Z</time>
      </trkpt>
      <trkpt lat="45.82723" lon="4.82">
        <ele>438</ele>
        <time>2012-12-16T09:58:53Z</time>
      </trkpt>
      <trkpt lat="45.82719" lon="4.81998">
        <ele>442</ele>
        <time>2012-12-16T09:58:56Z</time>
      </trkpt>
      <trkpt lat="45.82713" lon="4.82">
        <ele>440</ele>
        <time>2012-12-16T09:59:03Z</time>
      </trkpt>
      <trkpt lat="45.8271" lon="4.82001">
        <ele>440</ele>
        <time>2012-12-16T09:59:06Z</time>
      </trkpt>
      <trkpt lat="45.82708" lon="4.81999">
        <ele>444</ele>
        <time>2012-12-16T09:59:09Z</time>
      </trkpt>
      <trkpt lat="45.82708" lon="4.81998">
        <ele>444</ele>
        <time>2012-12-16T09:59:10Z</time>
      </trkpt>
      <trkpt lat="45.82706" lon="4.81997">
        <ele>444</ele>
        <time>2012-12-16T09:59:12Z</time>
      </trkpt>
      <trkpt lat="45.82703" lon="4.81999">
        <ele>445</ele>
        <time>2012-12-16T09:59:16Z</time>
      </trkpt>
      <trkpt lat="45.82702" lon="4.81999">
        <ele>445</ele>
        <time>2012-12-16T09:59:17Z</time>
      </trkpt>
      <trkpt lat="45.82698" lon="4.82002">
        <ele>443</ele>
        <time>2012-12-16T09:59:22Z</time>
      </trkpt>
      <trkpt lat="45.82693" lon="4.82004">
        <ele>443</ele>
        <time>2012-12-16T09:59:26Z</time>
      </trkpt>
      <trkpt lat="45.82692" lon="4.82007">
        <ele>444</ele>
        <time>2012-12-16T09:59:29Z</time>
      </trkpt>
      <trkpt lat="45.82689" lon="4.82013">
        <ele>444</ele>
        <time>2012-12-16T09:59:35Z</time>
      </trkpt>
      <trkpt lat="45.82685" lon="4.82016">
        <ele>444</ele>
        <time>2012-12-16T09:59:39Z</time>
      </trkpt>
      <trkpt lat="45.82679" lon="4.82017">
        <ele>445</ele>
        <time>2012-12-16T09:59:42Z</time>
      </trkpt>
      <trkpt lat="45.82678" lon="4.82018">
        <ele>445</ele>
        <time>2012-12-16T09:59:43Z</time>
      </trkpt>
      <trkpt lat="45.82678" lon="4.82019">
        <ele>445</ele>
        <time>2012-12-16T09:59:44Z</time>
      </trkpt>
      <trkpt lat="45.8267" lon="4.82022">
        <ele>445</ele>
        <time>2012-12-16T09:59:54Z</time>
      </trkpt>
      <trkpt lat="45.82666" lon="4.82025">
        <ele>453</ele>
        <time>2012-12-16T09:59:58Z</time>
      </trkpt>
      <trkpt lat="45.82665" lon="4.82025">
        <ele>453</ele>
        <time>2012-12-16T09:59:59Z</time>
      </trkpt>
      <trkpt lat="45.82661" lon="4.82024">
        <ele>453</ele>
        <time>2012-12-16T10:00:05Z</time>
      </trkpt>
      <trkpt lat="45.8266" lon="4.82024">
        <ele>453</ele>
        <time>2012-12-16T10:00:07Z</time>
      </trkpt>
      <trkpt lat="45.82657" lon="4.82028">
        <ele>453</ele>
        <time>2012-12-16T10:00:12Z</time>
      </trkpt>
      <trkpt lat="45.8265" lon="4.82028">
        <ele>454</ele>
        <time>2012-12-16T10:00:18Z</time>
      </trkpt>
      <trkpt lat="45.82649" lon="4.82027">
        <ele>454</ele>
        <time>2012-12-16T10:00:19Z</time>
      </trkpt>
      <trkpt lat="45.82646" lon="4.82022">
        <ele>454</ele>
        <time>2012-12-16T10:00:24Z</time>
      </trkpt>
      <trkpt lat="45.82645" lon="4.8202">
        <ele>454</ele>
        <time>2012-12-16T10:00:25Z</time>
      </trkpt>
      <trkpt lat="45.82642" lon="4.82018">
        <ele>454</ele>
        <time>2012-12-16T10:00:29Z</time>
      </trkpt>
      <trkpt lat="45.82641" lon="4.82017">
        <ele>454</ele>
        <time>2012-12-16T10:00:30Z</time>
      </trkpt>
      <trkpt lat="45.82638" lon="4.82016">
        <ele>454</ele>
        <time>2012-12-16T10:00:34Z</time>
      </trkpt>
      <trkpt lat="45.82636" lon="4.82015">
        <ele>455</ele>
        <time>2012-12-16T10:00:36Z</time>
      </trkpt>
      <trkpt lat="45.82634" lon="4.82016">
        <ele>455</ele>
        <time>2012-12-16T10:00:38Z</time>
      </trkpt>
      <trkpt lat="45.82629" lon="4.8202">
        <ele>455</ele>
        <time>2012-12-16T10:00:42Z</time>
      </trkpt>
      <trkpt lat="45.82628" lon="4.82021">
        <ele>455</ele>
        <time>2012-12-16T10:00:45Z</time>
      </trkpt>
      <trkpt lat="45.82627" lon="4.82022">
        <ele>455</ele>
        <time>2012-12-16T10:00:47Z</time>
      </trkpt>
      <trkpt lat="45.82625" lon="4.82021">
        <ele>455</ele>
        <time>2012-12-16T10:00:59Z</time>
      </trkpt>
      <trkpt lat="45.82627" lon="4.82023">
        <ele>455</ele>
        <time>2012-12-16T10:01:10Z</time>
      </trkpt>
      <trkpt lat="45.82627" lon="4.82021">
        <ele>455</ele>
        <time>2012-12-16T10:01:15Z</time>
      </trkpt>
      <trkpt lat="45.82626" lon="4.8202">
        <ele>455</ele>
        <time>2012-12-16T10:02:17Z</time>
      </trkpt>
      <trkpt lat="45.82623" lon="4.82028">
        <ele>455</ele>
        <time>2012-12-16T10:02:33Z</time>
      </trkpt>
      <trkpt lat="45.82624" lon="4.82031">
        <ele>455</ele>
        <time>2012-12-16T10:02:35Z</time>
      </trkpt>
      <trkpt lat="45.82623" lon="4.82038">
        <ele>455</ele>
        <time>2012-12-16T10:02:37Z</time>
      </trkpt>
      <trkpt lat="45.82625" lon="4.82053">
        <ele>455</ele>
        <time>2012-12-16T10:02:42Z</time>
      </trkpt>
      <trkpt lat="45.82625" lon="4.82059">
        <ele>455</ele>
        <time>2012-12-16T10:02:44Z</time>
      </trkpt>
      <trkpt lat="45.82625" lon="4.8207">
        <ele>455</ele>
        <time>2012-12-16T10:02:47Z</time>
      </trkpt>
      <trkpt lat="45.82628" lon="4.82084">
        <ele>454</ele>
        <time>2012-12-16T10:02:51Z</time>
      </trkpt>
      <trkpt lat="45.82628" lon="4.82088">
        <ele>454</ele>
        <time>2012-12-16T10:02:52Z</time>
      </trkpt>
      <trkpt lat="45.82633" lon="4.8211">
        <ele>454</ele>
        <time>2012-12-16T10:02:58Z</time>
      </trkpt>
      <trkpt lat="45.82638" lon="4.82127">
        <ele>454</ele>
        <time>2012-12-16T10:03:04Z</time>
      </trkpt>
      <trkpt lat="45.8264" lon="4.82135">
        <ele>455</ele>
        <time>2012-12-16T10:03:06Z</time>
      </trkpt>
      <trkpt lat="45.82643" lon="4.82145">
        <ele>455</ele>
        <time>2012-12-16T10:03:09Z</time>
      </trkpt>
      <trkpt lat="45.82648" lon="4.82159">
        <ele>454</ele>
        <time>2012-12-16T10:03:14Z</time>
      </trkpt>
      <trkpt lat="45.82651" lon="4.82165">
        <ele>454</ele>
        <time>2012-12-16T10:03:16Z</time>
      </trkpt>
      <trkpt lat="45.82655" lon="4.82178">
        <ele>455</ele>
        <time>2012-12-16T10:03:21Z</time>
      </trkpt>
      <trkpt lat="45.82657" lon="4.82184">
        <ele>455</ele>
        <time>2012-12-16T10:03:23Z</time>
      </trkpt>
      <trkpt lat="45.82661" lon="4.82192">
        <ele>456</ele>
        <time>2012-12-16T10:03:26Z</time>
      </trkpt>
      <trkpt lat="45.82667" lon="4.82206">
        <ele>451</ele>
        <time>2012-12-16T10:03:31Z</time>
      </trkpt>
      <trkpt lat="45.82668" lon="4.82209">
        <ele>451</ele>
        <time>2012-12-16T10:03:32Z</time>
      </trkpt>
      <trkpt lat="45.82674" lon="4.82225">
        <ele>452</ele>
        <time>2012-12-16T10:03:37Z</time>
      </trkpt>
      <trkpt lat="45.82676" lon="4.82228">
        <ele>452</ele>
        <time>2012-12-16T10:03:38Z</time>
      </trkpt>
      <trkpt lat="45.82683" lon="4.82239">
        <ele>452</ele>
        <time>2012-12-16T10:03:42Z</time>
      </trkpt>
      <trkpt lat="45.82689" lon="4.82249">
        <ele>452</ele>
        <time>2012-12-16T10:03:46Z</time>
      </trkpt>
      <trkpt lat="45.82694" lon="4.82257">
        <ele>451</ele>
        <time>2012-12-16T10:03:49Z</time>
      </trkpt>
      <trkpt lat="45.82702" lon="4.82272">
        <ele>451</ele>
        <time>2012-12-16T10:03:54Z</time>
      </trkpt>
      <trkpt lat="45.82703" lon="4.82275">
        <ele>450</ele>
        <time>2012-12-16T10:03:55Z</time>
      </trkpt>
      <trkpt lat="45.82711" lon="4.82289">
        <ele>450</ele>
        <time>2012-12-16T10:04:00Z</time>
      </trkpt>
      <trkpt lat="45.82714" lon="4.82294">
        <ele>450</ele>
        <time>2012-12-16T10:04:02Z</time>
      </trkpt>
      <trkpt lat="45.82717" lon="4.82303">
        <ele>450</ele>
        <time>2012-12-16T10:04:05Z</time>
      </trkpt>
      <trkpt lat="45.82721" lon="4.8232">
        <ele>449</ele>
        <time>2012-12-16T10:04:10Z</time>
      </trkpt>
      <trkpt lat="45.82726" lon="4.82339">
        <ele>446</ele>
        <time>2012-12-16T10:04:16Z</time>
      </trkpt>
      <trkpt lat="45.82729" lon="4.82345">
        <ele>446</ele>
        <time>2012-12-16T10:04:18Z</time>
      </trkpt>
      <trkpt lat="45.82732" lon="4.82355">
        <ele>446</ele>
        <time>2012-12-16T10:04:21Z</time>
      </trkpt>
      <trkpt lat="45.82737" lon="4.82371">
        <ele>445</ele>
        <time>2012-12-16T10:04:26Z</time>
      </trkpt>
      <trkpt lat="45.82741" lon="4.82391">
        <ele>444</ele>
        <time>2012-12-16T10:04:32Z</time>
      </trkpt>
      <trkpt lat="45.82742" lon="4.82397">
        <ele>444</ele>
        <time>2012-12-16T10:04:34Z</time>
      </trkpt>
      <trkpt lat="45.82746" lon="4.82408">
        <ele>443</ele>
        <time>2012-12-16T10:04:37Z</time>
      </trkpt>
      <trkpt lat="45.82751" lon="4.82421">
        <ele>441</ele>
        <time>2012-12-16T10:04:41Z</time>
      </trkpt>
      <trkpt lat="45.82753" lon="4.82428">
        <ele>440</ele>
        <time>2012-12-16T10:04:43Z</time>
      </trkpt>
      <trkpt lat="45.82756" lon="4.82436">
        <ele>439</ele>
        <time>2012-12-16T10:04:46Z</time>
      </trkpt>
      <trkpt lat="45.82758" lon="4.82439">
        <ele>438</ele>
        <time>2012-12-16T10:04:47Z</time>
      </trkpt>
      <trkpt lat="45.82761" lon="4.82446">
        <ele>438</ele>
        <time>2012-12-16T10:04:49Z</time>
      </trkpt>
      <trkpt lat="45.82767" lon="4.82458">
        <ele>437</ele>
        <time>2012-12-16T10:04:52Z</time>
      </trkpt>
      <trkpt lat="45.82772" lon="4.82468">
        <ele>436</ele>
        <time>2012-12-16T10:04:55Z</time>
      </trkpt>
      <trkpt lat="45.82774" lon="4.82471">
        <ele>436</ele>
        <time>2012-12-16T10:04:56Z</time>
      </trkpt>
      <trkpt lat="45.82781" lon="4.82491">
        <ele>435</ele>
        <time>2012-12-16T10:05:01Z</time>
      </trkpt>
      <trkpt lat="45.82784" lon="4.82506">
        <ele>429</ele>
        <time>2012-12-16T10:05:05Z</time>
      </trkpt>
      <trkpt lat="45.82788" lon="4.82516">
        <ele>429</ele>
        <time>2012-12-16T10:05:08Z</time>
      </trkpt>
      <trkpt lat="45.82789" lon="4.82523">
        <ele>429</ele>
        <time>2012-12-16T10:05:10Z</time>
      </trkpt>
      <trkpt lat="45.82791" lon="4.82537">
        <ele>428</ele>
        <time>2012-12-16T10:05:14Z</time>
      </trkpt>
      <trkpt lat="45.82791" lon="4.82541">
        <ele>428</ele>
        <time>2012-12-16T10:05:15Z</time>
      </trkpt>
      <trkpt lat="45.82791" lon="4.82545">
        <ele>427</ele>
        <time>2012-12-16T10:05:16Z</time>
      </trkpt>
      <trkpt lat="45.82787" lon="4.8255">
        <ele>427</ele>
        <time>2012-12-16T10:05:18Z</time>
      </trkpt>
      <trkpt lat="45.82783" lon="4.82558">
        <ele>426</ele>
        <time>2012-12-16T10:05:24Z</time>
      </trkpt>
      <trkpt lat="45.82783" lon="4.82558">
        <ele>426</ele>
        <time>2012-12-16T10:05:31Z</time>
      </trkpt>
      <trkpt lat="45.82784" lon="4.82558">
        <ele>426</ele>
        <time>2012-12-16T10:06:03Z</time>
      </trkpt>
      <trkpt lat="45.82784" lon="4.82565">
        <ele>426</ele>
        <time>2012-12-16T10:06:07Z</time>
      </trkpt>
      <trkpt lat="45.82784" lon="4.82568">
        <ele>425</ele>
        <time>2012-12-16T10:06:08Z</time>
      </trkpt>
      <trkpt lat="45.82784" lon="4.82578">
        <ele>425</ele>
        <time>2012-12-16T10:06:11Z</time>
      </trkpt>
      <trkpt lat="45.82785" lon="4.82583">
        <ele>425</ele>
        <time>2012-12-16T10:06:13Z</time>
      </trkpt>
      <trkpt lat="45.82789" lon="4.8259">
        <ele>418</ele>
        <time>2012-12-16T10:06:16Z</time>
      </trkpt>
      <trkpt lat="45.82795" lon="4.82608">
        <ele>417</ele>
        <time>2012-12-16T10:06:21Z</time>
      </trkpt>
      <trkpt lat="45.82798" lon="4.82621">
        <ele>417</ele>
        <time>2012-12-16T10:06:25Z</time>
      </trkpt>
      <trkpt lat="45.82803" lon="4.82635">
        <ele>416</ele>
        <time>2012-12-16T10:06:29Z</time>
      </trkpt>
      <trkpt lat="45.82805" lon="4.82642">
        <ele>415</ele>
        <time>2012-12-16T10:06:31Z</time>
      </trkpt>
      <trkpt lat="45.82807" lon="4.82661">
        <ele>415</ele>
        <time>2012-12-16T10:06:35Z</time>
      </trkpt>
      <trkpt lat="45.82808" lon="4.82665">
        <ele>415</ele>
        <time>2012-12-16T10:06:36Z</time>
      </trkpt>
      <trkpt lat="45.82805" lon="4.82689">
        <ele>405</ele>
        <time>2012-12-16T10:06:42Z</time>
      </trkpt>
      <trkpt lat="45.828" lon="4.82707">
        <ele>403</ele>
        <time>2012-12-16T10:06:46Z</time>
      </trkpt>
      <trkpt lat="45.82796" lon="4.82713">
        <ele>402</ele>
        <time>2012-12-16T10:06:48Z</time>
      </trkpt>
      <trkpt lat="45.82792" lon="4.82719">
        <ele>401</ele>
        <time>2012-12-16T10:06:50Z</time>
      </trkpt>
      <trkpt lat="45.82781" lon="4.8273">
        <ele>399</ele>
        <time>2012-12-16T10:06:55Z</time>
      </trkpt>
      <trkpt lat="45.82768" lon="4.82735">
        <ele>397</ele>
        <time>2012-12-16T10:07:00Z</time>
      </trkpt>
      <trkpt lat="45.82761" lon="4.82737">
        <ele>396</ele>
        <time>2012-12-16T10:07:02Z</time>
      </trkpt>
      <trkpt lat="45.82748" lon="4.82741">
        <ele>388</ele>
        <time>2012-12-16T10:07:06Z</time>
      </trkpt>
      <trkpt lat="45.82742" lon="4.82741">
        <ele>388</ele>
        <time>2012-12-16T10:07:08Z</time>
      </trkpt>
      <trkpt lat="45.82729" lon="4.82736">
        <ele>386</ele>
        <time>2012-12-16T10:07:12Z</time>
      </trkpt>
      <trkpt lat="45.82723" lon="4.82734">
        <ele>385</ele>
        <time>2012-12-16T10:07:14Z</time>
      </trkpt>
      <trkpt lat="45.82717" lon="4.82729">
        <ele>385</ele>
        <time>2012-12-16T10:07:16Z</time>
      </trkpt>
      <trkpt lat="45.82705" lon="4.82718">
        <ele>384</ele>
        <time>2012-12-16T10:07:20Z</time>
      </trkpt>
      <trkpt lat="45.82698" lon="4.82716">
        <ele>383</ele>
        <time>2012-12-16T10:07:22Z</time>
      </trkpt>
      <trkpt lat="45.82688" lon="4.82708">
        <ele>383</ele>
        <time>2012-12-16T10:07:25Z</time>
      </trkpt>
      <trkpt lat="45.82684" lon="4.82703">
        <ele>383</ele>
        <time>2012-12-16T10:07:27Z</time>
      </trkpt>
      <trkpt lat="45.82669" lon="4.82695">
        <ele>383</ele>
        <time>2012-12-16T10:07:32Z</time>
      </trkpt>
      <trkpt lat="45.82658" lon="4.82684">
        <ele>373</ele>
        <time>2012-12-16T10:07:37Z</time>
      </trkpt>
      <trkpt lat="45.82654" lon="4.8268">
        <ele>374</ele>
        <time>2012-12-16T10:07:39Z</time>
      </trkpt>
      <trkpt lat="45.82644" lon="4.82672">
        <ele>372</ele>
        <time>2012-12-16T10:07:43Z</time>
      </trkpt>
      <trkpt lat="45.82635" lon="4.82669">
        <ele>370</ele>
        <time>2012-12-16T10:07:46Z</time>
      </trkpt>
      <trkpt lat="45.82629" lon="4.82666">
        <ele>383</ele>
        <time>2012-12-16T10:07:48Z</time>
      </trkpt>
      <trkpt lat="45.82618" lon="4.8266">
        <ele>381</ele>
        <time>2012-12-16T10:07:52Z</time>
      </trkpt>
      <trkpt lat="45.82613" lon="4.82658">
        <ele>380</ele>
        <time>2012-12-16T10:07:54Z</time>
      </trkpt>
      <trkpt lat="45.826" lon="4.82652">
        <ele>378</ele>
        <time>2012-12-16T10:07:58Z</time>
      </trkpt>
      <trkpt lat="45.82597" lon="4.8265">
        <ele>378</ele>
        <time>2012-12-16T10:07:59Z</time>
      </trkpt>
      <trkpt lat="45.82581" lon="4.82646">
        <ele>372</ele>
        <time>2012-12-16T10:08:04Z</time>
      </trkpt>
      <trkpt lat="45.82578" lon="4.82645">
        <ele>372</ele>
        <time>2012-12-16T10:08:05Z</time>
      </trkpt>
      <trkpt lat="45.82562" lon="4.82646">
        <ele>373</ele>
        <time>2012-12-16T10:08:10Z</time>
      </trkpt>
      <trkpt lat="45.82559" lon="4.82648">
        <ele>373</ele>
        <time>2012-12-16T10:08:11Z</time>
      </trkpt>
      <trkpt lat="45.82549" lon="4.82659">
        <ele>372</ele>
        <time>2012-12-16T10:08:15Z</time>
      </trkpt>
      <trkpt lat="45.82547" lon="4.82662">
        <ele>371</ele>
        <time>2012-12-16T10:08:16Z</time>
      </trkpt>
      <trkpt lat="45.82542" lon="4.82678">
        <ele>357</ele>
        <time>2012-12-16T10:08:20Z</time>
      </trkpt>
      <trkpt lat="45.82539" lon="4.82685">
        <ele>357</ele>
        <time>2012-12-16T10:08:22Z</time>
      </trkpt>
      <trkpt lat="45.82536" lon="4.82696">
        <ele>356</ele>
        <time>2012-12-16T10:08:25Z</time>
      </trkpt>
      <trkpt lat="45.82533" lon="4.82704">
        <ele>355</ele>
        <time>2012-12-16T10:08:29Z</time>
      </trkpt>
      <trkpt lat="45.82534" lon="4.82704">
        <ele>355</ele>
        <time>2012-12-16T10:08:30Z</time>
      </trkpt>
      <trkpt lat="45.82535" lon="4.82709">
        <ele>354</ele>
        <time>2012-12-16T10:09:15Z</time>
      </trkpt>
      <trkpt lat="45.82534" lon="4.82709">
        <ele>354</ele>
        <time>2012-12-16T10:09:16Z</time>
      </trkpt>
      <trkpt lat="45.82524" lon="4.82713">
        <ele>354</ele>
        <time>2012-12-16T10:09:22Z</time>
      </trkpt>
      <trkpt lat="45.82516" lon="4.82713">
        <ele>353</ele>
        <time>2012-12-16T10:09:26Z</time>
      </trkpt>
      <trkpt lat="45.82509" lon="4.82715">
        <ele>353</ele>
        <time>2012-12-16T10:09:28Z</time>
      </trkpt>
      <trkpt lat="45.82498" lon="4.82712">
        <ele>350</ele>
        <time>2012-12-16T10:09:33Z</time>
      </trkpt>
      <trkpt lat="45.82485" lon="4.82706">
        <ele>351</ele>
        <time>2012-12-16T10:09:39Z</time>
      </trkpt>
      <trkpt lat="45.82479" lon="4.82705">
        <ele>351</ele>
        <time>2012-12-16T10:09:41Z</time>
      </trkpt>
      <trkpt lat="45.82467" lon="4.82703">
        <ele>351</ele>
        <time>2012-12-16T10:09:45Z</time>
      </trkpt>
      <trkpt lat="45.82459" lon="4.82701">
        <ele>351</ele>
        <time>2012-12-16T10:09:48Z</time>
      </trkpt>
      <trkpt lat="45.82452" lon="4.82703">
        <ele>350</ele>
        <time>2012-12-16T10:09:50Z</time>
      </trkpt>
      <trkpt lat="45.8244" lon="4.82702">
        <ele>350</ele>
        <time>2012-12-16T10:09:54Z</time>
      </trkpt>
      <trkpt lat="45.82424" lon="4.827">
        <ele>350</ele>
        <time>2012-12-16T10:10:00Z</time>
      </trkpt>
      <trkpt lat="45.82421" lon="4.827">
        <ele>350</ele>
        <time>2012-12-16T10:10:01Z</time>
      </trkpt>
      <trkpt lat="45.82411" lon="4.82697">
        <ele>348</ele>
        <time>2012-12-16T10:10:05Z</time>
      </trkpt>
      <trkpt lat="45.82402" lon="4.82694">
        <ele>348</ele>
        <time>2012-12-16T10:10:09Z</time>
      </trkpt>
      <trkpt lat="45.82397" lon="4.82695">
        <ele>347</ele>
        <time>2012-12-16T10:10:11Z</time>
      </trkpt>
      <trkpt lat="45.82383" lon="4.82694">
        <ele>347</ele>
        <time>2012-12-16T10:10:17Z</time>
      </trkpt>
      <trkpt lat="45.82366" lon="4.82693">
        <ele>346</ele>
        <time>2012-12-16T10:10:24Z</time>
      </trkpt>
      <trkpt lat="45.82364" lon="4.82693">
        <ele>346</ele>
        <time>2012-12-16T10:10:25Z</time>
      </trkpt>
      <trkpt lat="45.82351" lon="4.82692">
        <ele>346</ele>
        <time>2012-12-16T10:10:30Z</time>
      </trkpt>
      <trkpt lat="45.82344" lon="4.82691">
        <ele>347</ele>
        <time>2012-12-16T10:10:33Z</time>
      </trkpt>
      <trkpt lat="45.82337" lon="4.82693">
        <ele>347</ele>
        <time>2012-12-16T10:10:36Z</time>
      </trkpt>
      <trkpt lat="45.82327" lon="4.827">
        <ele>344</ele>
        <time>2012-12-16T10:10:40Z</time>
      </trkpt>
      <trkpt lat="45.82325" lon="4.82701">
        <ele>344</ele>
        <time>2012-12-16T10:10:41Z</time>
      </trkpt>
      <trkpt lat="45.82321" lon="4.82702">
        <ele>343</ele>
        <time>2012-12-16T10:10:43Z</time>
      </trkpt>
      <trkpt lat="45.82318" lon="4.82707">
        <ele>343</ele>
        <time>2012-12-16T10:10:47Z</time>
      </trkpt>
      <trkpt lat="45.82312" lon="4.82715">
        <ele>342</ele>
        <time>2012-12-16T10:10:50Z</time>
      </trkpt>
      <trkpt lat="45.8231" lon="4.82721">
        <ele>342</ele>
        <time>2012-12-16T10:10:52Z</time>
      </trkpt>
      <trkpt lat="45.82309" lon="4.82724">
        <ele>341</ele>
        <time>2012-12-16T10:10:53Z</time>
      </trkpt>
      <trkpt lat="45.82305" lon="4.82738">
        <ele>340</ele>
        <time>2012-12-16T10:10:57Z</time>
      </trkpt>
      <trkpt lat="45.82304" lon="4.82742">
        <ele>340</ele>
        <time>2012-12-16T10:10:58Z</time>
      </trkpt>
      <trkpt lat="45.82301" lon="4.82753">
        <ele>332</ele>
        <time>2012-12-16T10:11:01Z</time>
      </trkpt>
      <trkpt lat="45.82298" lon="4.82754">
        <ele>332</ele>
        <time>2012-12-16T10:11:02Z</time>
      </trkpt>
      <trkpt lat="45.82291" lon="4.82757">
        <ele>332</ele>
        <time>2012-12-16T10:11:04Z</time>
      </trkpt>
      <trkpt lat="45.82282" lon="4.8276">
        <ele>332</ele>
        <time>2012-12-16T10:11:07Z</time>
      </trkpt>
      <trkpt lat="45.82272" lon="4.8276">
        <ele>332</ele>
        <time>2012-12-16T10:11:10Z</time>
      </trkpt>
      <trkpt lat="45.82267" lon="4.8276">
        <ele>332</ele>
        <time>2012-12-16T10:11:12Z</time>
      </trkpt>
      <trkpt lat="45.82255" lon="4.82764">
        <ele>333</ele>
        <time>2012-12-16T10:11:16Z</time>
      </trkpt>
      <trkpt lat="45.82252" lon="4.82765">
        <ele>333</ele>
        <time>2012-12-16T10:11:17Z</time>
      </trkpt>
      <trkpt lat="45.82242" lon="4.8277">
        <ele>331</ele>
        <time>2012-12-16T10:11:20Z</time>
      </trkpt>
      <trkpt lat="45.82237" lon="4.82779">
        <ele>330</ele>
        <time>2012-12-16T10:11:24Z</time>
      </trkpt>
      <trkpt lat="45.82235" lon="4.82781">
        <ele>329</ele>
        <time>2012-12-16T10:11:25Z</time>
      </trkpt>
      <trkpt lat="45.82224" lon="4.82788">
        <ele>329</ele>
        <time>2012-12-16T10:11:29Z</time>
      </trkpt>
      <trkpt lat="45.8222" lon="4.82787">
        <ele>329</ele>
        <time>2012-12-16T10:11:32Z</time>
      </trkpt>
      <trkpt lat="45.82216" lon="4.82787">
        <ele>328</ele>
        <time>2012-12-16T10:11:34Z</time>
      </trkpt>
      <trkpt lat="45.82214" lon="4.82787">
        <ele>328</ele>
        <time>2012-12-16T10:11:35Z</time>
      </trkpt>
      <trkpt lat="45.8221" lon="4.82784">
        <ele>329</ele>
        <time>2012-12-16T10:11:37Z</time>
      </trkpt>
      <trkpt lat="45.82206" lon="4.82779">
        <ele>329</ele>
        <time>2012-12-16T10:11:39Z</time>
      </trkpt>
      <trkpt lat="45.82204" lon="4.82776">
        <ele>329</ele>
        <time>2012-12-16T10:11:41Z</time>
      </trkpt>
      <trkpt lat="45.82199" lon="4.82768">
        <ele>330</ele>
        <time>2012-12-16T10:11:45Z</time>
      </trkpt>
      <trkpt lat="45.82191" lon="4.82758">
        <ele>330</ele>
        <time>2012-12-16T10:11:50Z</time>
      </trkpt>
      <trkpt lat="45.82186" lon="4.8275">
        <ele>331</ele>
        <time>2012-12-16T10:11:54Z</time>
      </trkpt>
      <trkpt lat="45.82176" lon="4.82739">
        <ele>338</ele>
        <time>2012-12-16T10:12:00Z</time>
      </trkpt>
      <trkpt lat="45.82165" lon="4.82732">
        <ele>337</ele>
        <time>2012-12-16T10:12:06Z</time>
      </trkpt>
      <trkpt lat="45.82158" lon="4.82731">
        <ele>337</ele>
        <time>2012-12-16T10:12:09Z</time>
      </trkpt>
      <trkpt lat="45.82151" lon="4.82727">
        <ele>337</ele>
        <time>2012-12-16T10:12:13Z</time>
      </trkpt>
      <trkpt lat="45.82141" lon="4.82721">
        <ele>338</ele>
        <time>2012-12-16T10:12:18Z</time>
      </trkpt>
      <trkpt lat="45.8214" lon="4.8272">
        <ele>338</ele>
        <time>2012-12-16T10:12:19Z</time>
      </trkpt>
      <trkpt lat="45.82126" lon="4.82709">
        <ele>339</ele>
        <time>2012-12-16T10:12:27Z</time>
      </trkpt>
      <trkpt lat="45.82124" lon="4.82707">
        <ele>339</ele>
        <time>2012-12-16T10:12:28Z</time>
      </trkpt>
      <trkpt lat="45.82115" lon="4.82702">
        <ele>339</ele>
        <time>2012-12-16T10:12:33Z</time>
      </trkpt>
      <trkpt lat="45.82106" lon="4.82699">
        <ele>339</ele>
        <time>2012-12-16T10:12:37Z</time>
      </trkpt>
      <trkpt lat="45.82098" lon="4.82694">
        <ele>339</ele>
        <time>2012-12-16T10:12:41Z</time>
      </trkpt>
      <trkpt lat="45.82088" lon="4.82687">
        <ele>340</ele>
        <time>2012-12-16T10:12:46Z</time>
      </trkpt>
      <trkpt lat="45.82084" lon="4.82684">
        <ele>341</ele>
        <time>2012-12-16T10:12:48Z</time>
      </trkpt>
      <trkpt lat="45.8207" lon="4.82673">
        <ele>337</ele>
        <time>2012-12-16T10:12:55Z</time>
      </trkpt>
      <trkpt lat="45.82068" lon="4.82672">
        <ele>337</ele>
        <time>2012-12-16T10:12:56Z</time>
      </trkpt>
      <trkpt lat="45.82057" lon="4.82661">
        <ele>344</ele>
        <time>2012-12-16T10:13:02Z</time>
      </trkpt>
      <trkpt lat="45.82054" lon="4.8266">
        <ele>344</ele>
        <time>2012-12-16T10:13:04Z</time>
      </trkpt>
      <trkpt lat="45.82048" lon="4.82657">
        <ele>343</ele>
        <time>2012-12-16T10:13:07Z</time>
      </trkpt>
      <trkpt lat="45.82038" lon="4.82649">
        <ele>343</ele>
        <time>2012-12-16T10:13:12Z</time>
      </trkpt>
      <trkpt lat="45.82031" lon="4.82643">
        <ele>343</ele>
        <time>2012-12-16T10:13:16Z</time>
      </trkpt>
      <trkpt lat="45.82023" lon="4.82631">
        <ele>343</ele>
        <time>2012-12-16T10:13:21Z</time>
      </trkpt>
      <trkpt lat="45.82018" lon="4.82626">
        <ele>344</ele>
        <time>2012-12-16T10:13:24Z</time>
      </trkpt>
      <trkpt lat="45.82017" lon="4.82623">
        <ele>344</ele>
        <time>2012-12-16T10:13:26Z</time>
      </trkpt>
      <trkpt lat="45.8201" lon="4.82617">
        <ele>344</ele>
        <time>2012-12-16T10:13:32Z</time>
      </trkpt>
      <trkpt lat="45.82007" lon="4.82614">
        <ele>345</ele>
        <time>2012-12-16T10:13:37Z</time>
      </trkpt>
      <trkpt lat="45.82001" lon="4.82607">
        <ele>345</ele>
        <time>2012-12-16T10:13:49Z</time>
      </trkpt>
      <trkpt lat="45.82" lon="4.82607">
        <ele>338</ele>
        <time>2012-12-16T10:13:50Z</time>
      </trkpt>
      <trkpt lat="45.81993" lon="4.82607">
        <ele>337</ele>
        <time>2012-12-16T10:13:56Z</time>
      </trkpt>
      <trkpt lat="45.81991" lon="4.82605">
        <ele>337</ele>
        <time>2012-12-16T10:13:58Z</time>
      </trkpt>
      <trkpt lat="45.81985" lon="4.82601">
        <ele>337</ele>
        <time>2012-12-16T10:14:02Z</time>
      </trkpt>
      <trkpt lat="45.81973" lon="4.82595">
        <ele>336</ele>
        <time>2012-12-16T10:14:08Z</time>
      </trkpt>
      <trkpt lat="45.8197" lon="4.82593">
        <ele>336</ele>
        <time>2012-12-16T10:14:09Z</time>
      </trkpt>
      <trkpt lat="45.81963" lon="4.82581">
        <ele>344</ele>
        <time>2012-12-16T10:14:14Z</time>
      </trkpt>
      <trkpt lat="45.8196" lon="4.82576">
        <ele>344</ele>
        <time>2012-12-16T10:14:17Z</time>
      </trkpt>
      <trkpt lat="45.81958" lon="4.82575">
        <ele>344</ele>
        <time>2012-12-16T10:14:18Z</time>
      </trkpt>
      <trkpt lat="45.81956" lon="4.82571">
        <ele>344</ele>
        <time>2012-12-16T10:14:20Z</time>
      </trkpt>
      <trkpt lat="45.81956" lon="4.82568">
        <ele>344</ele>
        <time>2012-12-16T10:14:22Z</time>
      </trkpt>
      <trkpt lat="45.8196" lon="4.82565">
        <ele>344</ele>
        <time>2012-12-16T10:14:25Z</time>
      </trkpt>
      <trkpt lat="45.81963" lon="4.8256">
        <ele>345</ele>
        <time>2012-12-16T10:14:28Z</time>
      </trkpt>
      <trkpt lat="45.81964" lon="4.82558">
        <ele>345</ele>
        <time>2012-12-16T10:14:29Z</time>
      </trkpt>
      <trkpt lat="45.81969" lon="4.82551">
        <ele>346</ele>
        <time>2012-12-16T10:14:34Z</time>
      </trkpt>
      <trkpt lat="45.81971" lon="4.82548">
        <ele>346</ele>
        <time>2012-12-16T10:14:36Z</time>
      </trkpt>
      <trkpt lat="45.81973" lon="4.82544">
        <ele>346</ele>
        <time>2012-12-16T10:14:39Z</time>
      </trkpt>
      <trkpt lat="45.81975" lon="4.82541">
        <ele>347</ele>
        <time>2012-12-16T10:14:41Z</time>
      </trkpt>
      <trkpt lat="45.81977" lon="4.82539">
        <ele>347</ele>
        <time>2012-12-16T10:14:43Z</time>
      </trkpt>
      <trkpt lat="45.81978" lon="4.82538">
        <ele>347</ele>
        <time>2012-12-16T10:14:44Z</time>
      </trkpt>
      <trkpt lat="45.81984" lon="4.8253">
        <ele>348</ele>
        <time>2012-12-16T10:14:50Z</time>
      </trkpt>
      <trkpt lat="45.81987" lon="4.82523">
        <ele>349</ele>
        <time>2012-12-16T10:14:54Z</time>
      </trkpt>
      <trkpt lat="45.81988" lon="4.82521">
        <ele>350</ele>
        <time>2012-12-16T10:14:55Z</time>
      </trkpt>
      <trkpt lat="45.81989" lon="4.8252">
        <ele>350</ele>
        <time>2012-12-16T10:14:56Z</time>
      </trkpt>
      <trkpt lat="45.81991" lon="4.82518">
        <ele>350</ele>
        <time>2012-12-16T10:14:57Z</time>
      </trkpt>
      <trkpt lat="45.81994" lon="4.82513">
        <ele>352</ele>
        <time>2012-12-16T10:15:01Z</time>
      </trkpt>
      <trkpt lat="45.81998" lon="4.82507">
        <ele>353</ele>
        <time>2012-12-16T10:15:06Z</time>
      </trkpt>
      <trkpt lat="45.82003" lon="4.825">
        <ele>357</ele>
        <time>2012-12-16T10:15:11Z</time>
      </trkpt>
      <trkpt lat="45.82005" lon="4.82499">
        <ele>358</ele>
        <time>2012-12-16T10:15:12Z</time>
      </trkpt>
      <trkpt lat="45.82006" lon="4.82498">
        <ele>358</ele>
        <time>2012-12-16T10:15:13Z</time>
      </trkpt>
      <trkpt lat="45.82009" lon="4.82493">
        <ele>359</ele>
        <time>2012-12-16T10:15:17Z</time>
      </trkpt>
      <trkpt lat="45.82009" lon="4.82493">
        <ele>359</ele>
        <time>2012-12-16T10:15:18Z</time>
      </trkpt>
      <trkpt lat="45.82006" lon="4.82487">
        <ele>360</ele>
        <time>2012-12-16T10:15:23Z</time>
      </trkpt>
      <trkpt lat="45.82004" lon="4.82484">
        <ele>360</ele>
        <time>2012-12-16T10:15:25Z</time>
      </trkpt>
      <trkpt lat="45.82003" lon="4.82483">
        <ele>360</ele>
        <time>2012-12-16T10:15:26Z</time>
      </trkpt>
      <trkpt lat="45.81999" lon="4.82479">
        <ele>355</ele>
        <time>2012-12-16T10:15:28Z</time>
      </trkpt>
      <trkpt lat="45.81989" lon="4.82465">
        <ele>355</ele>
        <time>2012-12-16T10:15:34Z</time>
      </trkpt>
      <trkpt lat="45.81978" lon="4.8245">
        <ele>355</ele>
        <time>2012-12-16T10:15:40Z</time>
      </trkpt>
      <trkpt lat="45.81974" lon="4.82445">
        <ele>354</ele>
        <time>2012-12-16T10:15:42Z</time>
      </trkpt>
      <trkpt lat="45.81969" lon="4.82438">
        <ele>354</ele>
        <time>2012-12-16T10:15:45Z</time>
      </trkpt>
      <trkpt lat="45.8196" lon="4.82427">
        <ele>354</ele>
        <time>2012-12-16T10:15:50Z</time>
      </trkpt>
      <trkpt lat="45.81958" lon="4.82424">
        <ele>354</ele>
        <time>2012-12-16T10:15:51Z</time>
      </trkpt>
      <trkpt lat="45.81955" lon="4.8241">
        <ele>357</ele>
        <time>2012-12-16T10:15:55Z</time>
      </trkpt>
      <trkpt lat="45.81953" lon="4.82403">
        <ele>357</ele>
        <time>2012-12-16T10:15:57Z</time>
      </trkpt>
      <trkpt lat="45.81947" lon="4.82385">
        <ele>357</ele>
        <time>2012-12-16T10:16:03Z</time>
      </trkpt>
      <trkpt lat="45.81946" lon="4.82378">
        <ele>357</ele>
        <time>2012-12-16T10:16:05Z</time>
      </trkpt>
      <trkpt lat="45.81943" lon="4.82366">
        <ele>358</ele>
        <time>2012-12-16T10:16:08Z</time>
      </trkpt>
      <trkpt lat="45.8194" lon="4.8235">
        <ele>358</ele>
        <time>2012-12-16T10:16:13Z</time>
      </trkpt>
      <trkpt lat="45.81935" lon="4.82334">
        <ele>357</ele>
        <time>2012-12-16T10:16:18Z</time>
      </trkpt>
      <trkpt lat="45.81933" lon="4.82327">
        <ele>360</ele>
        <time>2012-12-16T10:16:20Z</time>
      </trkpt>
      <trkpt lat="45.81928" lon="4.82312">
        <ele>361</ele>
        <time>2012-12-16T10:16:24Z</time>
      </trkpt>
      <trkpt lat="45.81924" lon="4.82302">
        <ele>362</ele>
        <time>2012-12-16T10:16:27Z</time>
      </trkpt>
      <trkpt lat="45.81921" lon="4.82292">
        <ele>363</ele>
        <time>2012-12-16T10:16:30Z</time>
      </trkpt>
      <trkpt lat="45.81916" lon="4.82277">
        <ele>356</ele>
        <time>2012-12-16T10:16:34Z</time>
      </trkpt>
      <trkpt lat="45.81911" lon="4.82264">
        <ele>357</ele>
        <time>2012-12-16T10:16:37Z</time>
      </trkpt>
      <trkpt lat="45.81906" lon="4.82256">
        <ele>358</ele>
        <time>2012-12-16T10:16:40Z</time>
      </trkpt>
      <trkpt lat="45.81905" lon="4.82255">
        <ele>358</ele>
        <time>2012-12-16T10:16:41Z</time>
      </trkpt>
      <trkpt lat="45.81905" lon="4.82254">
        <ele>358</ele>
        <time>2012-12-16T10:16:42Z</time>
      </trkpt>
      <trkpt lat="45.81905" lon="4.82254">
        <ele>358</ele>
        <time>2012-12-16T10:16:44Z</time>
      </trkpt>
      <trkpt lat="45.81901" lon="4.82251">
        <ele>357</ele>
        <time>2012-12-16T10:16:58Z</time>
      </trkpt>
      <trkpt lat="45.81899" lon="4.82245">
        <ele>359</ele>
        <time>2012-12-16T10:17:03Z</time>
      </trkpt>
      <trkpt lat="45.81899" lon="4.82244">
        <ele>359</ele>
        <time>2012-12-16T10:17:04Z</time>
      </trkpt>
      <trkpt lat="45.81896" lon="4.82234">
        <ele>359</ele>
        <time>2012-12-16T10:17:09Z</time>
      </trkpt>
      <trkpt lat="45.8189" lon="4.82217">
        <ele>359</ele>
        <time>2012-12-16T10:17:14Z</time>
      </trkpt>
      <trkpt lat="45.81887" lon="4.82211">
        <ele>359</ele>
        <time>2012-12-16T10:17:16Z</time>
      </trkpt>
      <trkpt lat="45.81881" lon="4.82199">
        <ele>359</ele>
        <time>2012-12-16T10:17:20Z</time>
      </trkpt>
      <trkpt lat="45.81875" lon="4.8219">
        <ele>359</ele>
        <time>2012-12-16T10:17:23Z</time>
      </trkpt>
      <trkpt lat="45.8187" lon="4.82182">
        <ele>359</ele>
        <time>2012-12-16T10:17:26Z</time>
      </trkpt>
      <trkpt lat="45.81863" lon="4.82169">
        <ele>358</ele>
        <time>2012-12-16T10:17:30Z</time>
      </trkpt>
      <trkpt lat="45.81862" lon="4.82165">
        <ele>361</ele>
        <time>2012-12-16T10:17:31Z</time>
      </trkpt>
      <trkpt lat="45.81862" lon="4.82159">
        <ele>361</ele>
        <time>2012-12-16T10:17:33Z</time>
      </trkpt>
      <trkpt lat="45.81862" lon="4.82152">
        <ele>361</ele>
        <time>2012-12-16T10:17:35Z</time>
      </trkpt>
      <trkpt lat="45.81861" lon="4.82141">
        <ele>362</ele>
        <time>2012-12-16T10:17:38Z</time>
      </trkpt>
      <trkpt lat="45.81861" lon="4.82137">
        <ele>362</ele>
        <time>2012-12-16T10:17:39Z</time>
      </trkpt>
      <trkpt lat="45.81861" lon="4.82119">
        <ele>362</ele>
        <time>2012-12-16T10:17:44Z</time>
      </trkpt>
      <trkpt lat="45.8186" lon="4.82115">
        <ele>362</ele>
        <time>2012-12-16T10:17:45Z</time>
      </trkpt>
      <trkpt lat="45.81858" lon="4.82102">
        <ele>362</ele>
        <time>2012-12-16T10:17:49Z</time>
      </trkpt>
      <trkpt lat="45.81858" lon="4.82099">
        <ele>361</ele>
        <time>2012-12-16T10:17:50Z</time>
      </trkpt>
      <trkpt lat="45.81855" lon="4.82089">
        <ele>361</ele>
        <time>2012-12-16T10:17:53Z</time>
      </trkpt>
      <trkpt lat="45.81852" lon="4.82079">
        <ele>360</ele>
        <time>2012-12-16T10:17:56Z</time>
      </trkpt>
      <trkpt lat="45.8185" lon="4.82066">
        <ele>360</ele>
        <time>2012-12-16T10:18:00Z</time>
      </trkpt>
      <trkpt lat="45.8185" lon="4.82063">
        <ele>360</ele>
        <time>2012-12-16T10:18:01Z</time>
      </trkpt>
      <trkpt lat="45.81848" lon="4.82053">
        <ele>360</ele>
        <time>2012-12-16T10:18:04Z</time>
      </trkpt>
      <trkpt lat="45.81845" lon="4.82037">
        <ele>360</ele>
        <time>2012-12-16T10:18:08Z</time>
      </trkpt>
      <trkpt lat="45.81844" lon="4.82029">
        <ele>360</ele>
        <time>2012-12-16T10:18:10Z</time>
      </trkpt>
      <trkpt lat="45.81841" lon="4.8201">
        <ele>357</ele>
        <time>2012-12-16T10:18:15Z</time>
      </trkpt>
      <trkpt lat="45.81841" lon="4.81991">
        <ele>355</ele>
        <time>2012-12-16T10:18:20Z</time>
      </trkpt>
      <trkpt lat="45.81841" lon="4.81984">
        <ele>356</ele>
        <time>2012-12-16T10:18:22Z</time>
      </trkpt>
      <trkpt lat="45.81843" lon="4.81977">
        <ele>356</ele>
        <time>2012-12-16T10:18:24Z</time>
      </trkpt>
      <trkpt lat="45.81847" lon="4.81957">
        <ele>356</ele>
        <time>2012-12-16T10:18:30Z</time>
      </trkpt>
      <trkpt lat="45.8185" lon="4.81933">
        <ele>354</ele>
        <time>2012-12-16T10:18:36Z</time>
      </trkpt>
      <trkpt lat="45.81849" lon="4.81928">
        <ele>354</ele>
        <time>2012-12-16T10:18:37Z</time>
      </trkpt>
      <trkpt lat="45.81853" lon="4.81908">
        <ele>353</ele>
        <time>2012-12-16T10:18:42Z</time>
      </trkpt>
      <trkpt lat="45.81854" lon="4.819">
        <ele>353</ele>
        <time>2012-12-16T10:18:44Z</time>
      </trkpt>
      <trkpt lat="45.81857" lon="4.81892">
        <ele>354</ele>
        <time>2012-12-16T10:18:46Z</time>
      </trkpt>
      <trkpt lat="45.81861" lon="4.81873">
        <ele>354</ele>
        <time>2012-12-16T10:18:51Z</time>
      </trkpt>
      <trkpt lat="45.81861" lon="4.81853">
        <ele>353</ele>
        <time>2012-12-16T10:18:56Z</time>
      </trkpt>
      <trkpt lat="45.81858" lon="4.81845">
        <ele>353</ele>
        <time>2012-12-16T10:18:58Z</time>
      </trkpt>
      <trkpt lat="45.8185" lon="4.81828">
        <ele>352</ele>
        <time>2012-12-16T10:19:03Z</time>
      </trkpt>
      <trkpt lat="45.81845" lon="4.81823">
        <ele>351</ele>
        <time>2012-12-16T10:19:05Z</time>
      </trkpt>
      <trkpt lat="45.81837" lon="4.81815">
        <ele>351</ele>
        <time>2012-12-16T10:19:08Z</time>
      </trkpt>
      <trkpt lat="45.8183" lon="4.81809">
        <ele>346</ele>
        <time>2012-12-16T10:19:11Z</time>
      </trkpt>
      <trkpt lat="45.81821" lon="4.81805">
        <ele>346</ele>
        <time>2012-12-16T10:19:14Z</time>
      </trkpt>
      <trkpt lat="45.81812" lon="4.81806">
        <ele>345</ele>
        <time>2012-12-16T10:19:17Z</time>
      </trkpt>
      <trkpt lat="45.81804" lon="4.81803">
        <ele>345</ele>
        <time>2012-12-16T10:19:20Z</time>
      </trkpt>
      <trkpt lat="45.81793" lon="4.81799">
        <ele>344</ele>
        <time>2012-12-16T10:19:24Z</time>
      </trkpt>
      <trkpt lat="45.81791" lon="4.81798">
        <ele>344</ele>
        <time>2012-12-16T10:19:25Z</time>
      </trkpt>
      <trkpt lat="45.81775" lon="4.81792">
        <ele>343</ele>
        <time>2012-12-16T10:19:31Z</time>
      </trkpt>
      <trkpt lat="45.81759" lon="4.81787">
        <ele>343</ele>
        <time>2012-12-16T10:19:37Z</time>
      </trkpt>
      <trkpt lat="45.81756" lon="4.81786">
        <ele>343</ele>
        <time>2012-12-16T10:19:38Z</time>
      </trkpt>
      <trkpt lat="45.81745" lon="4.81782">
        <ele>337</ele>
        <time>2012-12-16T10:19:42Z</time>
      </trkpt>
      <trkpt lat="45.81738" lon="4.81779">
        <ele>337</ele>
        <time>2012-12-16T10:19:45Z</time>
      </trkpt>
      <trkpt lat="45.81734" lon="4.81778">
        <ele>337</ele>
        <time>2012-12-16T10:19:47Z</time>
      </trkpt>
      <trkpt lat="45.81729" lon="4.81781">
        <ele>337</ele>
        <time>2012-12-16T10:19:49Z</time>
      </trkpt>
      <trkpt lat="45.81726" lon="4.81787">
        <ele>336</ele>
        <time>2012-12-16T10:19:51Z</time>
      </trkpt>
      <trkpt lat="45.81725" lon="4.8179">
        <ele>336</ele>
        <time>2012-12-16T10:19:52Z</time>
      </trkpt>
      <trkpt lat="45.81723" lon="4.81802">
        <ele>336</ele>
        <time>2012-12-16T10:19:55Z</time>
      </trkpt>
      <trkpt lat="45.8172" lon="4.81818">
        <ele>336</ele>
        <time>2012-12-16T10:19:59Z</time>
      </trkpt>
      <trkpt lat="45.8172" lon="4.81822">
        <ele>336</ele>
        <time>2012-12-16T10:20:00Z</time>
      </trkpt>
      <trkpt lat="45.81716" lon="4.81842">
        <ele>337</ele>
        <time>2012-12-16T10:20:05Z</time>
      </trkpt>
      <trkpt lat="45.81716" lon="4.81845">
        <ele>337</ele>
        <time>2012-12-16T10:20:06Z</time>
      </trkpt>
      <trkpt lat="45.81713" lon="4.8186">
        <ele>337</ele>
        <time>2012-12-16T10:20:10Z</time>
      </trkpt>
      <trkpt lat="45.8171" lon="4.81871">
        <ele>337</ele>
        <time>2012-12-16T10:20:13Z</time>
      </trkpt>
      <trkpt lat="45.81707" lon="4.81877">
        <ele>336</ele>
        <time>2012-12-16T10:20:15Z</time>
      </trkpt>
      <trkpt lat="45.81703" lon="4.81878">
        <ele>336</ele>
        <time>2012-12-16T10:20:18Z</time>
      </trkpt>
      <trkpt lat="45.81702" lon="4.81874">
        <ele>336</ele>
        <time>2012-12-16T10:20:19Z</time>
      </trkpt>
      <trkpt lat="45.81698" lon="4.81867">
        <ele>336</ele>
        <time>2012-12-16T10:20:21Z</time>
      </trkpt>
      <trkpt lat="45.81696" lon="4.81864">
        <ele>336</ele>
        <time>2012-12-16T10:20:22Z</time>
      </trkpt>
      <trkpt lat="45.81693" lon="4.81861">
        <ele>336</ele>
        <time>2012-12-16T10:20:23Z</time>
      </trkpt>
      <trkpt lat="45.81685" lon="4.81846">
        <ele>335</ele>
        <time>2012-12-16T10:20:27Z</time>
      </trkpt>
      <trkpt lat="45.81675" lon="4.81839">
        <ele>333</ele>
        <time>2012-12-16T10:20:31Z</time>
      </trkpt>
      <trkpt lat="45.81666" lon="4.81837">
        <ele>332</ele>
        <time>2012-12-16T10:20:34Z</time>
      </trkpt>
      <trkpt lat="45.8166" lon="4.81835">
        <ele>332</ele>
        <time>2012-12-16T10:20:36Z</time>
      </trkpt>
      <trkpt lat="45.81646" lon="4.81831">
        <ele>331</ele>
        <time>2012-12-16T10:20:41Z</time>
      </trkpt>
      <trkpt lat="45.81644" lon="4.8183">
        <ele>331</ele>
        <time>2012-12-16T10:20:42Z</time>
      </trkpt>
      <trkpt lat="45.81627" lon="4.81828">
        <ele>331</ele>
        <time>2012-12-16T10:20:48Z</time>
      </trkpt>
      <trkpt lat="45.81624" lon="4.81827">
        <ele>331</ele>
        <time>2012-12-16T10:20:49Z</time>
      </trkpt>
      <trkpt lat="45.81608" lon="4.81826">
        <ele>330</ele>
        <time>2012-12-16T10:20:55Z</time>
      </trkpt>
      <trkpt lat="45.81602" lon="4.81827">
        <ele>330</ele>
        <time>2012-12-16T10:20:57Z</time>
      </trkpt>
      <trkpt lat="45.8159" lon="4.81835">
        <ele>329</ele>
        <time>2012-12-16T10:21:02Z</time>
      </trkpt>
      <trkpt lat="45.81583" lon="4.8185">
        <ele>328</ele>
        <time>2012-12-16T10:21:07Z</time>
      </trkpt>
      <trkpt lat="45.8158" lon="4.81857">
        <ele>327</ele>
        <time>2012-12-16T10:21:09Z</time>
      </trkpt>
      <trkpt lat="45.81579" lon="4.81865">
        <ele>327</ele>
        <time>2012-12-16T10:21:11Z</time>
      </trkpt>
      <trkpt lat="45.81577" lon="4.81883">
        <ele>327</ele>
        <time>2012-12-16T10:21:16Z</time>
      </trkpt>
      <trkpt lat="45.81572" lon="4.81899">
        <ele>327</ele>
        <time>2012-12-16T10:21:21Z</time>
      </trkpt>
      <trkpt lat="45.81568" lon="4.81906">
        <ele>327</ele>
        <time>2012-12-16T10:21:24Z</time>
      </trkpt>
      <trkpt lat="45.81565" lon="4.81908">
        <ele>327</ele>
        <time>2012-12-16T10:21:25Z</time>
      </trkpt>
      <trkpt lat="45.81554" lon="4.81919">
        <ele>326</ele>
        <time>2012-12-16T10:21:30Z</time>
      </trkpt>
      <trkpt lat="45.81552" lon="4.8192">
        <ele>326</ele>
        <time>2012-12-16T10:21:31Z</time>
      </trkpt>
      <trkpt lat="45.81539" lon="4.81929">
        <ele>325</ele>
        <time>2012-12-16T10:21:36Z</time>
      </trkpt>
      <trkpt lat="45.81535" lon="4.81932">
        <ele>325</ele>
        <time>2012-12-16T10:21:38Z</time>
      </trkpt>
      <trkpt lat="45.81524" lon="4.81936">
        <ele>325</ele>
        <time>2012-12-16T10:21:42Z</time>
      </trkpt>
      <trkpt lat="45.81517" lon="4.81941">
        <ele>324</ele>
        <time>2012-12-16T10:21:45Z</time>
      </trkpt>
      <trkpt lat="45.81512" lon="4.81944">
        <ele>324</ele>
        <time>2012-12-16T10:21:47Z</time>
      </trkpt>
      <trkpt lat="45.81498" lon="4.81951">
        <ele>320</ele>
        <time>2012-12-16T10:21:52Z</time>
      </trkpt>
      <trkpt lat="45.81481" lon="4.81958">
        <ele>320</ele>
        <time>2012-12-16T10:21:58Z</time>
      </trkpt>
      <trkpt lat="45.81478" lon="4.81958">
        <ele>320</ele>
        <time>2012-12-16T10:21:59Z</time>
      </trkpt>
      <trkpt lat="45.81469" lon="4.81964">
        <ele>319</ele>
        <time>2012-12-16T10:22:03Z</time>
      </trkpt>
    </trkseg>
  </trk>
</gpx>